<?xml version="1.0" encoding="UTF-8" standalone="no" ?>
<gpx xmlns="http://www.topografix.com/GPX/1/1" xmlns:xsi="http://www.w3.org/2001/XMLSchema-instance" xsi:schemaLocation="http://www.topografix.com/GPX/1/1 http://www.topografix.com/GPX/1/1/gpx.xsd" version="1.1" creator="VisuGPX - https://www.visugpx.com">
  <metadata>
    <name>20-02-23 Grande Lance de Domène en ski</name>
    <desc><![CDATA[Portage dans la forêt.
Condition neige de printemps.
]]></desc>
  </metadata>
  <trk>
    <name><![CDATA[20-02-23 Grande Lance de Domène en ski]]></name>
    <desc><![CDATA[]]></desc>
    <trkseg>
      <trkpt lat="45.18667" lon="5.91289">
        <ele>1427</ele>
        <time>2020-02-23T06:48:24.782Z</time>
      </trkpt>
      <trkpt lat="45.18669" lon="5.91296">
        <ele>1425</ele>
        <time>2020-02-23T06:48:32.063Z</time>
      </trkpt>
      <trkpt lat="45.1867" lon="5.91305">
        <ele>1426</ele>
        <time>2020-02-23T06:48:38.923Z</time>
      </trkpt>
      <trkpt lat="45.1867" lon="5.91312">
        <ele>1427</ele>
        <time>2020-02-23T06:48:50.000Z</time>
      </trkpt>
      <trkpt lat="45.18665" lon="5.91309">
        <ele>1427</ele>
        <time>2020-02-23T06:48:59.063Z</time>
      </trkpt>
      <trkpt lat="45.18662" lon="5.91303">
        <ele>1426</ele>
        <time>2020-02-23T06:49:07.000Z</time>
      </trkpt>
      <trkpt lat="45.18657" lon="5.91299">
        <ele>1424</ele>
        <time>2020-02-23T06:49:16.846Z</time>
      </trkpt>
      <trkpt lat="45.18653" lon="5.91299">
        <ele>1420</ele>
        <time>2020-02-23T06:49:31.000Z</time>
      </trkpt>
      <trkpt lat="45.1865" lon="5.91303">
        <ele>1422</ele>
        <time>2020-02-23T06:49:48.000Z</time>
      </trkpt>
      <trkpt lat="45.18645" lon="5.91302">
        <ele>1425</ele>
        <time>2020-02-23T06:50:08.000Z</time>
      </trkpt>
      <trkpt lat="45.1864" lon="5.91299">
        <ele>1430</ele>
        <time>2020-02-23T06:50:19.000Z</time>
      </trkpt>
      <trkpt lat="45.18636" lon="5.91301">
        <ele>1429</ele>
        <time>2020-02-23T06:50:40.000Z</time>
      </trkpt>
      <trkpt lat="45.18631" lon="5.91304">
        <ele>1431</ele>
        <time>2020-02-23T06:51:04.000Z</time>
      </trkpt>
      <trkpt lat="45.18624" lon="5.91305">
        <ele>1434</ele>
        <time>2020-02-23T06:51:17.759Z</time>
      </trkpt>
      <trkpt lat="45.18619" lon="5.91304">
        <ele>1435</ele>
        <time>2020-02-23T06:51:25.000Z</time>
      </trkpt>
      <trkpt lat="45.18613" lon="5.91303">
        <ele>1436</ele>
        <time>2020-02-23T06:51:32.000Z</time>
      </trkpt>
      <trkpt lat="45.18608" lon="5.91302">
        <ele>1435</ele>
        <time>2020-02-23T06:51:37.837Z</time>
      </trkpt>
      <trkpt lat="45.18602" lon="5.913">
        <ele>1436</ele>
        <time>2020-02-23T06:51:46.000Z</time>
      </trkpt>
      <trkpt lat="45.18597" lon="5.91302">
        <ele>1437</ele>
        <time>2020-02-23T06:51:51.543Z</time>
      </trkpt>
      <trkpt lat="45.18592" lon="5.91304">
        <ele>1440</ele>
        <time>2020-02-23T06:52:00.000Z</time>
      </trkpt>
      <trkpt lat="45.18587" lon="5.91307">
        <ele>1441</ele>
        <time>2020-02-23T06:52:05.890Z</time>
      </trkpt>
      <trkpt lat="45.18581" lon="5.91312">
        <ele>1441</ele>
        <time>2020-02-23T06:52:12.992Z</time>
      </trkpt>
      <trkpt lat="45.18577" lon="5.91317">
        <ele>1442</ele>
        <time>2020-02-23T06:52:21.000Z</time>
      </trkpt>
      <trkpt lat="45.18572" lon="5.91325">
        <ele>1444</ele>
        <time>2020-02-23T06:52:27.853Z</time>
      </trkpt>
      <trkpt lat="45.18568" lon="5.91331">
        <ele>1448</ele>
        <time>2020-02-23T06:52:35.000Z</time>
      </trkpt>
      <trkpt lat="45.18562" lon="5.91337">
        <ele>1448</ele>
        <time>2020-02-23T06:52:44.768Z</time>
      </trkpt>
      <trkpt lat="45.18559" lon="5.91342">
        <ele>1450</ele>
        <time>2020-02-23T06:52:51.451Z</time>
      </trkpt>
      <trkpt lat="45.18554" lon="5.91347">
        <ele>1452</ele>
        <time>2020-02-23T06:53:01.943Z</time>
      </trkpt>
      <trkpt lat="45.18549" lon="5.91351">
        <ele>1454</ele>
        <time>2020-02-23T06:53:13.000Z</time>
      </trkpt>
      <trkpt lat="45.18544" lon="5.91353">
        <ele>1455</ele>
        <time>2020-02-23T06:53:24.000Z</time>
      </trkpt>
      <trkpt lat="45.18546" lon="5.91345">
        <ele>1454</ele>
        <time>2020-02-23T06:53:36.729Z</time>
      </trkpt>
      <trkpt lat="45.18544" lon="5.91352">
        <ele>1455</ele>
        <time>2020-02-23T06:54:23.918Z</time>
      </trkpt>
      <trkpt lat="45.18538" lon="5.91356">
        <ele>1453</ele>
        <time>2020-02-23T06:54:30.564Z</time>
      </trkpt>
      <trkpt lat="45.1853" lon="5.91362">
        <ele>1455</ele>
        <time>2020-02-23T06:54:38.000Z</time>
      </trkpt>
      <trkpt lat="45.18527" lon="5.91366">
        <ele>1456</ele>
        <time>2020-02-23T06:54:40.743Z</time>
      </trkpt>
      <trkpt lat="45.18523" lon="5.91373">
        <ele>1457</ele>
        <time>2020-02-23T06:54:48.000Z</time>
      </trkpt>
      <trkpt lat="45.18517" lon="5.91376">
        <ele>1459</ele>
        <time>2020-02-23T06:54:58.000Z</time>
      </trkpt>
      <trkpt lat="45.18512" lon="5.91379">
        <ele>1461</ele>
        <time>2020-02-23T06:55:05.000Z</time>
      </trkpt>
      <trkpt lat="45.18506" lon="5.91382">
        <ele>1463</ele>
        <time>2020-02-23T06:55:11.000Z</time>
      </trkpt>
      <trkpt lat="45.18499" lon="5.91383">
        <ele>1463</ele>
        <time>2020-02-23T06:55:18.000Z</time>
      </trkpt>
      <trkpt lat="45.18491" lon="5.91382">
        <ele>1462</ele>
        <time>2020-02-23T06:55:24.645Z</time>
      </trkpt>
      <trkpt lat="45.18486" lon="5.91377">
        <ele>1462</ele>
        <time>2020-02-23T06:55:35.000Z</time>
      </trkpt>
      <trkpt lat="45.18479" lon="5.91374">
        <ele>1462</ele>
        <time>2020-02-23T06:55:42.000Z</time>
      </trkpt>
      <trkpt lat="45.18473" lon="5.91371">
        <ele>1463</ele>
        <time>2020-02-23T06:55:47.890Z</time>
      </trkpt>
      <trkpt lat="45.18466" lon="5.91369">
        <ele>1465</ele>
        <time>2020-02-23T06:55:54.512Z</time>
      </trkpt>
      <trkpt lat="45.1846" lon="5.91368">
        <ele>1465</ele>
        <time>2020-02-23T06:56:01.485Z</time>
      </trkpt>
      <trkpt lat="45.18453" lon="5.91368">
        <ele>1468</ele>
        <time>2020-02-23T06:56:08.101Z</time>
      </trkpt>
      <trkpt lat="45.18448" lon="5.91368">
        <ele>1470</ele>
        <time>2020-02-23T06:56:14.646Z</time>
      </trkpt>
      <trkpt lat="45.18443" lon="5.91368">
        <ele>1472</ele>
        <time>2020-02-23T06:56:21.425Z</time>
      </trkpt>
      <trkpt lat="45.18438" lon="5.91369">
        <ele>1473</ele>
        <time>2020-02-23T06:56:29.000Z</time>
      </trkpt>
      <trkpt lat="45.18433" lon="5.9137">
        <ele>1474</ele>
        <time>2020-02-23T06:56:34.781Z</time>
      </trkpt>
      <trkpt lat="45.18428" lon="5.9137">
        <ele>1477</ele>
        <time>2020-02-23T06:56:43.000Z</time>
      </trkpt>
      <trkpt lat="45.18421" lon="5.91374">
        <ele>1479</ele>
        <time>2020-02-23T06:56:51.808Z</time>
      </trkpt>
      <trkpt lat="45.18416" lon="5.91376">
        <ele>1479</ele>
        <time>2020-02-23T06:56:57.000Z</time>
      </trkpt>
      <trkpt lat="45.18411" lon="5.91377">
        <ele>1479</ele>
        <time>2020-02-23T06:57:03.000Z</time>
      </trkpt>
      <trkpt lat="45.18406" lon="5.91378">
        <ele>1481</ele>
        <time>2020-02-23T06:57:09.243Z</time>
      </trkpt>
      <trkpt lat="45.18399" lon="5.91378">
        <ele>1481</ele>
        <time>2020-02-23T06:57:19.464Z</time>
      </trkpt>
      <trkpt lat="45.18394" lon="5.91381">
        <ele>1483</ele>
        <time>2020-02-23T06:57:31.000Z</time>
      </trkpt>
      <trkpt lat="45.18389" lon="5.91386">
        <ele>1484</ele>
        <time>2020-02-23T06:57:39.828Z</time>
      </trkpt>
      <trkpt lat="45.18382" lon="5.91387">
        <ele>1488</ele>
        <time>2020-02-23T06:57:49.749Z</time>
      </trkpt>
      <trkpt lat="45.18376" lon="5.91386">
        <ele>1489</ele>
        <time>2020-02-23T06:57:59.882Z</time>
      </trkpt>
      <trkpt lat="45.18369" lon="5.91387">
        <ele>1490</ele>
        <time>2020-02-23T06:58:11.000Z</time>
      </trkpt>
      <trkpt lat="45.18363" lon="5.91389">
        <ele>1490</ele>
        <time>2020-02-23T06:58:19.779Z</time>
      </trkpt>
      <trkpt lat="45.18359" lon="5.91392">
        <ele>1497</ele>
        <time>2020-02-23T06:58:36.506Z</time>
      </trkpt>
      <trkpt lat="45.18353" lon="5.91394">
        <ele>1496</ele>
        <time>2020-02-23T06:58:43.450Z</time>
      </trkpt>
      <trkpt lat="45.18348" lon="5.91397">
        <ele>1496</ele>
        <time>2020-02-23T06:58:52.000Z</time>
      </trkpt>
      <trkpt lat="45.18342" lon="5.91402">
        <ele>1496</ele>
        <time>2020-02-23T06:59:00.799Z</time>
      </trkpt>
      <trkpt lat="45.18337" lon="5.91403">
        <ele>1496</ele>
        <time>2020-02-23T06:59:08.000Z</time>
      </trkpt>
      <trkpt lat="45.18332" lon="5.91405">
        <ele>1497</ele>
        <time>2020-02-23T06:59:13.661Z</time>
      </trkpt>
      <trkpt lat="45.18326" lon="5.91408">
        <ele>1498</ele>
        <time>2020-02-23T06:59:23.801Z</time>
      </trkpt>
      <trkpt lat="45.18322" lon="5.91411">
        <ele>1499</ele>
        <time>2020-02-23T06:59:32.000Z</time>
      </trkpt>
      <trkpt lat="45.18316" lon="5.91415">
        <ele>1500</ele>
        <time>2020-02-23T06:59:40.662Z</time>
      </trkpt>
      <trkpt lat="45.18311" lon="5.91418">
        <ele>1500</ele>
        <time>2020-02-23T06:59:50.583Z</time>
      </trkpt>
      <trkpt lat="45.18304" lon="5.91418">
        <ele>1498</ele>
        <time>2020-02-23T07:00:00.759Z</time>
      </trkpt>
      <trkpt lat="45.18298" lon="5.91419">
        <ele>1500</ele>
        <time>2020-02-23T07:00:11.000Z</time>
      </trkpt>
      <trkpt lat="45.18293" lon="5.9142">
        <ele>1501</ele>
        <time>2020-02-23T07:00:18.000Z</time>
      </trkpt>
      <trkpt lat="45.18288" lon="5.9142">
        <ele>1502</ele>
        <time>2020-02-23T07:00:23.729Z</time>
      </trkpt>
      <trkpt lat="45.18282" lon="5.91419">
        <ele>1503</ele>
        <time>2020-02-23T07:00:30.011Z</time>
      </trkpt>
      <trkpt lat="45.18277" lon="5.91421">
        <ele>1504</ele>
        <time>2020-02-23T07:00:36.352Z</time>
      </trkpt>
      <trkpt lat="45.18272" lon="5.91424">
        <ele>1504</ele>
        <time>2020-02-23T07:00:42.572Z</time>
      </trkpt>
      <trkpt lat="45.18267" lon="5.91427">
        <ele>1504</ele>
        <time>2020-02-23T07:00:51.000Z</time>
      </trkpt>
      <trkpt lat="45.18261" lon="5.91428">
        <ele>1506</ele>
        <time>2020-02-23T07:00:57.956Z</time>
      </trkpt>
      <trkpt lat="45.18256" lon="5.91429">
        <ele>1507</ele>
        <time>2020-02-23T07:01:04.958Z</time>
      </trkpt>
      <trkpt lat="45.1825" lon="5.9143">
        <ele>1510</ele>
        <time>2020-02-23T07:01:16.000Z</time>
      </trkpt>
      <trkpt lat="45.18246" lon="5.91432">
        <ele>1510</ele>
        <time>2020-02-23T07:01:25.079Z</time>
      </trkpt>
      <trkpt lat="45.1824" lon="5.91433">
        <ele>1510</ele>
        <time>2020-02-23T07:01:35.417Z</time>
      </trkpt>
      <trkpt lat="45.18234" lon="5.91434">
        <ele>1512</ele>
        <time>2020-02-23T07:01:46.000Z</time>
      </trkpt>
      <trkpt lat="45.18229" lon="5.91435">
        <ele>1518</ele>
        <time>2020-02-23T07:01:57.000Z</time>
      </trkpt>
      <trkpt lat="45.18224" lon="5.91437">
        <ele>1519</ele>
        <time>2020-02-23T07:02:06.826Z</time>
      </trkpt>
      <trkpt lat="45.18217" lon="5.91438">
        <ele>1519</ele>
        <time>2020-02-23T07:02:17.000Z</time>
      </trkpt>
      <trkpt lat="45.18213" lon="5.91435">
        <ele>1519</ele>
        <time>2020-02-23T07:03:29.000Z</time>
      </trkpt>
      <trkpt lat="45.18209" lon="5.91438">
        <ele>1523</ele>
        <time>2020-02-23T07:03:42.000Z</time>
      </trkpt>
      <trkpt lat="45.18204" lon="5.91439">
        <ele>1526</ele>
        <time>2020-02-23T07:04:07.957Z</time>
      </trkpt>
      <trkpt lat="45.182" lon="5.91441">
        <ele>1526</ele>
        <time>2020-02-23T07:04:19.000Z</time>
      </trkpt>
      <trkpt lat="45.18195" lon="5.91444">
        <ele>1528</ele>
        <time>2020-02-23T07:04:25.010Z</time>
      </trkpt>
      <trkpt lat="45.18188" lon="5.91445">
        <ele>1528</ele>
        <time>2020-02-23T07:04:32.000Z</time>
      </trkpt>
      <trkpt lat="45.18182" lon="5.91443">
        <ele>1528</ele>
        <time>2020-02-23T07:04:40.000Z</time>
      </trkpt>
      <trkpt lat="45.18178" lon="5.91447">
        <ele>1529</ele>
        <time>2020-02-23T07:05:01.000Z</time>
      </trkpt>
      <trkpt lat="45.18176" lon="5.91453">
        <ele>1531</ele>
        <time>2020-02-23T07:05:43.635Z</time>
      </trkpt>
      <trkpt lat="45.18168" lon="5.91456">
        <ele>1530</ele>
        <time>2020-02-23T07:05:50.112Z</time>
      </trkpt>
      <trkpt lat="45.18162" lon="5.91458">
        <ele>1532</ele>
        <time>2020-02-23T07:05:56.944Z</time>
      </trkpt>
      <trkpt lat="45.18156" lon="5.91461">
        <ele>1531</ele>
        <time>2020-02-23T07:06:04.000Z</time>
      </trkpt>
      <trkpt lat="45.18149" lon="5.91464">
        <ele>1532</ele>
        <time>2020-02-23T07:06:14.000Z</time>
      </trkpt>
      <trkpt lat="45.18144" lon="5.91466">
        <ele>1532</ele>
        <time>2020-02-23T07:06:19.469Z</time>
      </trkpt>
      <trkpt lat="45.18138" lon="5.91472">
        <ele>1532</ele>
        <time>2020-02-23T07:06:29.735Z</time>
      </trkpt>
      <trkpt lat="45.18133" lon="5.91475">
        <ele>1534</ele>
        <time>2020-02-23T07:06:41.807Z</time>
      </trkpt>
      <trkpt lat="45.18126" lon="5.91475">
        <ele>1539</ele>
        <time>2020-02-23T07:06:48.460Z</time>
      </trkpt>
      <trkpt lat="45.18121" lon="5.91478">
        <ele>1538</ele>
        <time>2020-02-23T07:06:55.403Z</time>
      </trkpt>
      <trkpt lat="45.18119" lon="5.91484">
        <ele>1540</ele>
        <time>2020-02-23T07:07:03.000Z</time>
      </trkpt>
      <trkpt lat="45.18121" lon="5.91493">
        <ele>1541</ele>
        <time>2020-02-23T07:07:10.000Z</time>
      </trkpt>
      <trkpt lat="45.18124" lon="5.91499">
        <ele>1543</ele>
        <time>2020-02-23T07:07:12.669Z</time>
      </trkpt>
      <trkpt lat="45.18126" lon="5.91508">
        <ele>1543</ele>
        <time>2020-02-23T07:07:20.000Z</time>
      </trkpt>
      <trkpt lat="45.18126" lon="5.91515">
        <ele>1543</ele>
        <time>2020-02-23T07:07:22.584Z</time>
      </trkpt>
      <trkpt lat="45.18126" lon="5.91523">
        <ele>1545</ele>
        <time>2020-02-23T07:07:30.000Z</time>
      </trkpt>
      <trkpt lat="45.18129" lon="5.91533">
        <ele>1549</ele>
        <time>2020-02-23T07:07:37.000Z</time>
      </trkpt>
      <trkpt lat="45.18129" lon="5.9154">
        <ele>1550</ele>
        <time>2020-02-23T07:08:08.000Z</time>
      </trkpt>
      <trkpt lat="45.18126" lon="5.91548">
        <ele>1554</ele>
        <time>2020-02-23T07:08:13.782Z</time>
      </trkpt>
      <trkpt lat="45.18124" lon="5.91558">
        <ele>1553</ele>
        <time>2020-02-23T07:08:19.962Z</time>
      </trkpt>
      <trkpt lat="45.18119" lon="5.91564">
        <ele>1552</ele>
        <time>2020-02-23T07:08:27.000Z</time>
      </trkpt>
      <trkpt lat="45.18112" lon="5.91567">
        <ele>1551</ele>
        <time>2020-02-23T07:08:32.661Z</time>
      </trkpt>
      <trkpt lat="45.18105" lon="5.91569">
        <ele>1549</ele>
        <time>2020-02-23T07:08:40.000Z</time>
      </trkpt>
      <trkpt lat="45.18097" lon="5.91571">
        <ele>1551</ele>
        <time>2020-02-23T07:08:47.000Z</time>
      </trkpt>
      <trkpt lat="45.18091" lon="5.91572">
        <ele>1553</ele>
        <time>2020-02-23T07:08:54.000Z</time>
      </trkpt>
      <trkpt lat="45.18086" lon="5.91572">
        <ele>1552</ele>
        <time>2020-02-23T07:08:56.284Z</time>
      </trkpt>
      <trkpt lat="45.18081" lon="5.91573">
        <ele>1552</ele>
        <time>2020-02-23T07:09:01.000Z</time>
      </trkpt>
      <trkpt lat="45.18076" lon="5.91575">
        <ele>1553</ele>
        <time>2020-02-23T07:09:05.000Z</time>
      </trkpt>
      <trkpt lat="45.18068" lon="5.91577">
        <ele>1552</ele>
        <time>2020-02-23T07:09:10.782Z</time>
      </trkpt>
      <trkpt lat="45.1806" lon="5.91579">
        <ele>1553</ele>
        <time>2020-02-23T07:09:17.864Z</time>
      </trkpt>
      <trkpt lat="45.18053" lon="5.9158">
        <ele>1555</ele>
        <time>2020-02-23T07:09:25.000Z</time>
      </trkpt>
      <trkpt lat="45.18045" lon="5.91581">
        <ele>1557</ele>
        <time>2020-02-23T07:09:30.744Z</time>
      </trkpt>
      <trkpt lat="45.18041" lon="5.91582">
        <ele>1558</ele>
        <time>2020-02-23T07:09:35.000Z</time>
      </trkpt>
      <trkpt lat="45.18033" lon="5.91583">
        <ele>1560</ele>
        <time>2020-02-23T07:09:40.999Z</time>
      </trkpt>
      <trkpt lat="45.18025" lon="5.91584">
        <ele>1558</ele>
        <time>2020-02-23T07:09:47.972Z</time>
      </trkpt>
      <trkpt lat="45.18016" lon="5.91585">
        <ele>1559</ele>
        <time>2020-02-23T07:09:54.498Z</time>
      </trkpt>
      <trkpt lat="45.18009" lon="5.91585">
        <ele>1560</ele>
        <time>2020-02-23T07:10:02.000Z</time>
      </trkpt>
      <trkpt lat="45.18004" lon="5.91585">
        <ele>1560</ele>
        <time>2020-02-23T07:10:06.000Z</time>
      </trkpt>
      <trkpt lat="45.17997" lon="5.91584">
        <ele>1561</ele>
        <time>2020-02-23T07:10:13.000Z</time>
      </trkpt>
      <trkpt lat="45.17991" lon="5.91587">
        <ele>1563</ele>
        <time>2020-02-23T07:10:18.821Z</time>
      </trkpt>
      <trkpt lat="45.17986" lon="5.91587">
        <ele>1564</ele>
        <time>2020-02-23T07:10:25.395Z</time>
      </trkpt>
      <trkpt lat="45.1798" lon="5.91587">
        <ele>1566</ele>
        <time>2020-02-23T07:10:36.000Z</time>
      </trkpt>
      <trkpt lat="45.17975" lon="5.91591">
        <ele>1565</ele>
        <time>2020-02-23T07:10:44.446Z</time>
      </trkpt>
      <trkpt lat="45.17969" lon="5.91593">
        <ele>1565</ele>
        <time>2020-02-23T07:10:51.989Z</time>
      </trkpt>
      <trkpt lat="45.17964" lon="5.91594">
        <ele>1565</ele>
        <time>2020-02-23T07:10:58.672Z</time>
      </trkpt>
      <trkpt lat="45.17958" lon="5.91593">
        <ele>1565</ele>
        <time>2020-02-23T07:11:10.000Z</time>
      </trkpt>
      <trkpt lat="45.17953" lon="5.91596">
        <ele>1564</ele>
        <time>2020-02-23T07:11:21.000Z</time>
      </trkpt>
      <trkpt lat="45.17947" lon="5.91598">
        <ele>1567</ele>
        <time>2020-02-23T07:11:32.000Z</time>
      </trkpt>
      <trkpt lat="45.17942" lon="5.916">
        <ele>1568</ele>
        <time>2020-02-23T07:11:38.718Z</time>
      </trkpt>
      <trkpt lat="45.17936" lon="5.91602">
        <ele>1570</ele>
        <time>2020-02-23T07:11:44.995Z</time>
      </trkpt>
      <trkpt lat="45.1793" lon="5.91602">
        <ele>1570</ele>
        <time>2020-02-23T07:11:56.000Z</time>
      </trkpt>
      <trkpt lat="45.17924" lon="5.91602">
        <ele>1572</ele>
        <time>2020-02-23T07:12:04.947Z</time>
      </trkpt>
      <trkpt lat="45.17919" lon="5.91605">
        <ele>1572</ele>
        <time>2020-02-23T07:12:14.580Z</time>
      </trkpt>
      <trkpt lat="45.17913" lon="5.91605">
        <ele>1571</ele>
        <time>2020-02-23T07:12:24.542Z</time>
      </trkpt>
      <trkpt lat="45.17907" lon="5.91608">
        <ele>1574</ele>
        <time>2020-02-23T07:12:34.849Z</time>
      </trkpt>
      <trkpt lat="45.17903" lon="5.9161">
        <ele>1577</ele>
        <time>2020-02-23T07:12:51.400Z</time>
      </trkpt>
      <trkpt lat="45.17898" lon="5.91611">
        <ele>1579</ele>
        <time>2020-02-23T07:13:01.757Z</time>
      </trkpt>
      <trkpt lat="45.17892" lon="5.91612">
        <ele>1579</ele>
        <time>2020-02-23T07:13:11.441Z</time>
      </trkpt>
      <trkpt lat="45.17886" lon="5.91613">
        <ele>1580</ele>
        <time>2020-02-23T07:13:21.734Z</time>
      </trkpt>
      <trkpt lat="45.17882" lon="5.91619">
        <ele>1582</ele>
        <time>2020-02-23T07:13:34.538Z</time>
      </trkpt>
      <trkpt lat="45.17877" lon="5.91623">
        <ele>1586</ele>
        <time>2020-02-23T07:13:45.000Z</time>
      </trkpt>
      <trkpt lat="45.17872" lon="5.91628">
        <ele>1586</ele>
        <time>2020-02-23T07:13:54.637Z</time>
      </trkpt>
      <trkpt lat="45.17867" lon="5.91631">
        <ele>1588</ele>
        <time>2020-02-23T07:14:02.355Z</time>
      </trkpt>
      <trkpt lat="45.17861" lon="5.91633">
        <ele>1589</ele>
        <time>2020-02-23T07:14:09.698Z</time>
      </trkpt>
      <trkpt lat="45.17855" lon="5.91636">
        <ele>1590</ele>
        <time>2020-02-23T07:14:19.796Z</time>
      </trkpt>
      <trkpt lat="45.1785" lon="5.91641">
        <ele>1595</ele>
        <time>2020-02-23T07:14:29.475Z</time>
      </trkpt>
      <trkpt lat="45.17845" lon="5.91647">
        <ele>1594</ele>
        <time>2020-02-23T07:14:42.499Z</time>
      </trkpt>
      <trkpt lat="45.17841" lon="5.91651">
        <ele>1594</ele>
        <time>2020-02-23T07:14:54.000Z</time>
      </trkpt>
      <trkpt lat="45.17836" lon="5.91654">
        <ele>1593</ele>
        <time>2020-02-23T07:15:02.724Z</time>
      </trkpt>
      <trkpt lat="45.1783" lon="5.91657">
        <ele>1594</ele>
        <time>2020-02-23T07:15:12.643Z</time>
      </trkpt>
      <trkpt lat="45.17823" lon="5.91661">
        <ele>1596</ele>
        <time>2020-02-23T07:15:24.000Z</time>
      </trkpt>
      <trkpt lat="45.17817" lon="5.91665">
        <ele>1598</ele>
        <time>2020-02-23T07:15:32.700Z</time>
      </trkpt>
      <trkpt lat="45.17812" lon="5.91667">
        <ele>1598</ele>
        <time>2020-02-23T07:15:42.855Z</time>
      </trkpt>
      <trkpt lat="45.17806" lon="5.91667">
        <ele>1601</ele>
        <time>2020-02-23T07:15:54.000Z</time>
      </trkpt>
      <trkpt lat="45.17802" lon="5.91669">
        <ele>1602</ele>
        <time>2020-02-23T07:16:03.800Z</time>
      </trkpt>
      <trkpt lat="45.17797" lon="5.91673">
        <ele>1603</ele>
        <time>2020-02-23T07:16:15.000Z</time>
      </trkpt>
      <trkpt lat="45.17803" lon="5.91675">
        <ele>1604</ele>
        <time>2020-02-23T07:16:24.800Z</time>
      </trkpt>
      <trkpt lat="45.17807" lon="5.91675">
        <ele>1606</ele>
        <time>2020-02-23T07:16:35.000Z</time>
      </trkpt>
      <trkpt lat="45.17809" lon="5.91681">
        <ele>1608</ele>
        <time>2020-02-23T07:16:50.000Z</time>
      </trkpt>
      <trkpt lat="45.17814" lon="5.91683">
        <ele>1610</ele>
        <time>2020-02-23T07:17:04.000Z</time>
      </trkpt>
      <trkpt lat="45.1782" lon="5.91683">
        <ele>1611</ele>
        <time>2020-02-23T07:17:14.613Z</time>
      </trkpt>
      <trkpt lat="45.17825" lon="5.91688">
        <ele>1614</ele>
        <time>2020-02-23T07:17:25.515Z</time>
      </trkpt>
      <trkpt lat="45.1783" lon="5.91692">
        <ele>1614</ele>
        <time>2020-02-23T07:17:31.635Z</time>
      </trkpt>
      <trkpt lat="45.17835" lon="5.91695">
        <ele>1614</ele>
        <time>2020-02-23T07:17:39.000Z</time>
      </trkpt>
      <trkpt lat="45.17841" lon="5.91698">
        <ele>1614</ele>
        <time>2020-02-23T07:17:46.000Z</time>
      </trkpt>
      <trkpt lat="45.17838" lon="5.91704">
        <ele>1616</ele>
        <time>2020-02-23T07:17:58.827Z</time>
      </trkpt>
      <trkpt lat="45.17837" lon="5.9171">
        <ele>1617</ele>
        <time>2020-02-23T07:18:08.813Z</time>
      </trkpt>
      <trkpt lat="45.17832" lon="5.91713">
        <ele>1620</ele>
        <time>2020-02-23T07:18:15.961Z</time>
      </trkpt>
      <trkpt lat="45.17825" lon="5.91714">
        <ele>1621</ele>
        <time>2020-02-23T07:18:22.732Z</time>
      </trkpt>
      <trkpt lat="45.1782" lon="5.91717">
        <ele>1619</ele>
        <time>2020-02-23T07:18:32.954Z</time>
      </trkpt>
      <trkpt lat="45.17816" lon="5.91721">
        <ele>1620</ele>
        <time>2020-02-23T07:18:41.000Z</time>
      </trkpt>
      <trkpt lat="45.17811" lon="5.91722">
        <ele>1622</ele>
        <time>2020-02-23T07:18:48.000Z</time>
      </trkpt>
      <trkpt lat="45.17806" lon="5.91723">
        <ele>1622</ele>
        <time>2020-02-23T07:18:55.000Z</time>
      </trkpt>
      <trkpt lat="45.17801" lon="5.91725">
        <ele>1622</ele>
        <time>2020-02-23T07:19:04.459Z</time>
      </trkpt>
      <trkpt lat="45.17796" lon="5.91729">
        <ele>1622</ele>
        <time>2020-02-23T07:19:17.000Z</time>
      </trkpt>
      <trkpt lat="45.17792" lon="5.91732">
        <ele>1624</ele>
        <time>2020-02-23T07:19:25.000Z</time>
      </trkpt>
      <trkpt lat="45.17788" lon="5.91734">
        <ele>1627</ele>
        <time>2020-02-23T07:19:32.000Z</time>
      </trkpt>
      <trkpt lat="45.17783" lon="5.91736">
        <ele>1627</ele>
        <time>2020-02-23T07:19:39.000Z</time>
      </trkpt>
      <trkpt lat="45.17778" lon="5.91737">
        <ele>1625</ele>
        <time>2020-02-23T07:19:47.887Z</time>
      </trkpt>
      <trkpt lat="45.17773" lon="5.91737">
        <ele>1628</ele>
        <time>2020-02-23T07:19:57.730Z</time>
      </trkpt>
      <trkpt lat="45.17767" lon="5.91737">
        <ele>1628</ele>
        <time>2020-02-23T07:20:07.756Z</time>
      </trkpt>
      <trkpt lat="45.17762" lon="5.91738">
        <ele>1630</ele>
        <time>2020-02-23T07:20:15.012Z</time>
      </trkpt>
      <trkpt lat="45.17758" lon="5.9174">
        <ele>1631</ele>
        <time>2020-02-23T07:20:21.077Z</time>
      </trkpt>
      <trkpt lat="45.17752" lon="5.91743">
        <ele>1631</ele>
        <time>2020-02-23T07:20:28.399Z</time>
      </trkpt>
      <trkpt lat="45.17754" lon="5.9175">
        <ele>1633</ele>
        <time>2020-02-23T07:20:37.000Z</time>
      </trkpt>
      <trkpt lat="45.17758" lon="5.91755">
        <ele>1637</ele>
        <time>2020-02-23T07:20:47.000Z</time>
      </trkpt>
      <trkpt lat="45.17763" lon="5.91756">
        <ele>1640</ele>
        <time>2020-02-23T07:20:57.000Z</time>
      </trkpt>
      <trkpt lat="45.17768" lon="5.9176">
        <ele>1642</ele>
        <time>2020-02-23T07:21:14.000Z</time>
      </trkpt>
      <trkpt lat="45.17773" lon="5.91765">
        <ele>1641</ele>
        <time>2020-02-23T07:21:23.602Z</time>
      </trkpt>
      <trkpt lat="45.1778" lon="5.91768">
        <ele>1643</ele>
        <time>2020-02-23T07:21:34.395Z</time>
      </trkpt>
      <trkpt lat="45.17785" lon="5.91772">
        <ele>1644</ele>
        <time>2020-02-23T07:21:41.049Z</time>
      </trkpt>
      <trkpt lat="45.17789" lon="5.91776">
        <ele>1647</ele>
        <time>2020-02-23T07:21:48.314Z</time>
      </trkpt>
      <trkpt lat="45.17794" lon="5.9178">
        <ele>1650</ele>
        <time>2020-02-23T07:21:57.000Z</time>
      </trkpt>
      <trkpt lat="45.178" lon="5.91782">
        <ele>1653</ele>
        <time>2020-02-23T07:22:03.275Z</time>
      </trkpt>
      <trkpt lat="45.17804" lon="5.91788">
        <ele>1655</ele>
        <time>2020-02-23T07:22:15.000Z</time>
      </trkpt>
      <trkpt lat="45.17805" lon="5.91795">
        <ele>1659</ele>
        <time>2020-02-23T07:22:33.000Z</time>
      </trkpt>
      <trkpt lat="45.17802" lon="5.918">
        <ele>1659</ele>
        <time>2020-02-23T07:22:46.000Z</time>
      </trkpt>
      <trkpt lat="45.17798" lon="5.91796">
        <ele>1662</ele>
        <time>2020-02-23T07:22:59.637Z</time>
      </trkpt>
      <trkpt lat="45.17791" lon="5.918">
        <ele>1662</ele>
        <time>2020-02-23T07:23:11.000Z</time>
      </trkpt>
      <trkpt lat="45.17784" lon="5.91801">
        <ele>1662</ele>
        <time>2020-02-23T07:23:19.848Z</time>
      </trkpt>
      <trkpt lat="45.17778" lon="5.91802">
        <ele>1665</ele>
        <time>2020-02-23T07:23:28.000Z</time>
      </trkpt>
      <trkpt lat="45.17772" lon="5.91802">
        <ele>1664</ele>
        <time>2020-02-23T07:23:33.132Z</time>
      </trkpt>
      <trkpt lat="45.17768" lon="5.91807">
        <ele>1666</ele>
        <time>2020-02-23T07:23:43.717Z</time>
      </trkpt>
      <trkpt lat="45.17773" lon="5.9181">
        <ele>1668</ele>
        <time>2020-02-23T07:24:00.901Z</time>
      </trkpt>
      <trkpt lat="45.17777" lon="5.91811">
        <ele>1671</ele>
        <time>2020-02-23T07:24:07.567Z</time>
      </trkpt>
      <trkpt lat="45.17782" lon="5.91816">
        <ele>1675</ele>
        <time>2020-02-23T07:24:18.000Z</time>
      </trkpt>
      <trkpt lat="45.17785" lon="5.91822">
        <ele>1675</ele>
        <time>2020-02-23T07:24:22.000Z</time>
      </trkpt>
      <trkpt lat="45.17789" lon="5.91829">
        <ele>1676</ele>
        <time>2020-02-23T07:24:32.594Z</time>
      </trkpt>
      <trkpt lat="45.17784" lon="5.9183">
        <ele>1677</ele>
        <time>2020-02-23T07:24:42.996Z</time>
      </trkpt>
      <trkpt lat="45.17779" lon="5.91827">
        <ele>1678</ele>
        <time>2020-02-23T07:24:52.837Z</time>
      </trkpt>
      <trkpt lat="45.17772" lon="5.91828">
        <ele>1679</ele>
        <time>2020-02-23T07:25:02.125Z</time>
      </trkpt>
      <trkpt lat="45.17766" lon="5.91829">
        <ele>1679</ele>
        <time>2020-02-23T07:25:10.000Z</time>
      </trkpt>
      <trkpt lat="45.17762" lon="5.9183">
        <ele>1683</ele>
        <time>2020-02-23T07:25:17.000Z</time>
      </trkpt>
      <trkpt lat="45.17756" lon="5.91828">
        <ele>1683</ele>
        <time>2020-02-23T07:25:24.000Z</time>
      </trkpt>
      <trkpt lat="45.17751" lon="5.91831">
        <ele>1684</ele>
        <time>2020-02-23T07:25:32.595Z</time>
      </trkpt>
      <trkpt lat="45.17754" lon="5.91837">
        <ele>1683</ele>
        <time>2020-02-23T07:25:42.545Z</time>
      </trkpt>
      <trkpt lat="45.1776" lon="5.91841">
        <ele>1681</ele>
        <time>2020-02-23T07:25:53.000Z</time>
      </trkpt>
      <trkpt lat="45.17764" lon="5.91844">
        <ele>1682</ele>
        <time>2020-02-23T07:26:00.000Z</time>
      </trkpt>
      <trkpt lat="45.17767" lon="5.91849">
        <ele>1685</ele>
        <time>2020-02-23T07:26:07.000Z</time>
      </trkpt>
      <trkpt lat="45.17766" lon="5.91856">
        <ele>1687</ele>
        <time>2020-02-23T07:26:15.933Z</time>
      </trkpt>
      <trkpt lat="45.1776" lon="5.91856">
        <ele>1689</ele>
        <time>2020-02-23T07:26:26.546Z</time>
      </trkpt>
      <trkpt lat="45.17754" lon="5.91854">
        <ele>1692</ele>
        <time>2020-02-23T07:26:34.000Z</time>
      </trkpt>
      <trkpt lat="45.17747" lon="5.91855">
        <ele>1693</ele>
        <time>2020-02-23T07:26:43.618Z</time>
      </trkpt>
      <trkpt lat="45.17741" lon="5.91856">
        <ele>1694</ele>
        <time>2020-02-23T07:26:51.000Z</time>
      </trkpt>
      <trkpt lat="45.17735" lon="5.91856">
        <ele>1694</ele>
        <time>2020-02-23T07:26:56.572Z</time>
      </trkpt>
      <trkpt lat="45.1773" lon="5.91858">
        <ele>1694</ele>
        <time>2020-02-23T07:27:02.850Z</time>
      </trkpt>
      <trkpt lat="45.17724" lon="5.9186">
        <ele>1695</ele>
        <time>2020-02-23T07:27:10.077Z</time>
      </trkpt>
      <trkpt lat="45.17719" lon="5.91862">
        <ele>1697</ele>
        <time>2020-02-23T07:27:19.000Z</time>
      </trkpt>
      <trkpt lat="45.17715" lon="5.91864">
        <ele>1698</ele>
        <time>2020-02-23T07:27:26.000Z</time>
      </trkpt>
      <trkpt lat="45.17713" lon="5.9187">
        <ele>1698</ele>
        <time>2020-02-23T07:27:33.000Z</time>
      </trkpt>
      <trkpt lat="45.17717" lon="5.91876">
        <ele>1700</ele>
        <time>2020-02-23T07:27:44.000Z</time>
      </trkpt>
      <trkpt lat="45.17722" lon="5.91879">
        <ele>1700</ele>
        <time>2020-02-23T07:27:53.560Z</time>
      </trkpt>
      <trkpt lat="45.17725" lon="5.91886">
        <ele>1703</ele>
        <time>2020-02-23T07:28:03.816Z</time>
      </trkpt>
      <trkpt lat="45.17725" lon="5.91894">
        <ele>1706</ele>
        <time>2020-02-23T07:28:15.000Z</time>
      </trkpt>
      <trkpt lat="45.17723" lon="5.91901">
        <ele>1709</ele>
        <time>2020-02-23T07:28:26.000Z</time>
      </trkpt>
      <trkpt lat="45.17718" lon="5.91902">
        <ele>1709</ele>
        <time>2020-02-23T07:28:32.000Z</time>
      </trkpt>
      <trkpt lat="45.17712" lon="5.919">
        <ele>1708</ele>
        <time>2020-02-23T07:28:37.802Z</time>
      </trkpt>
      <trkpt lat="45.17705" lon="5.91902">
        <ele>1710</ele>
        <time>2020-02-23T07:28:48.000Z</time>
      </trkpt>
      <trkpt lat="45.177" lon="5.919">
        <ele>1710</ele>
        <time>2020-02-23T07:28:54.363Z</time>
      </trkpt>
      <trkpt lat="45.17695" lon="5.91901">
        <ele>1712</ele>
        <time>2020-02-23T07:29:05.000Z</time>
      </trkpt>
      <trkpt lat="45.17699" lon="5.91908">
        <ele>1710</ele>
        <time>2020-02-23T07:29:22.000Z</time>
      </trkpt>
      <trkpt lat="45.17703" lon="5.91915">
        <ele>1710</ele>
        <time>2020-02-23T07:29:32.000Z</time>
      </trkpt>
      <trkpt lat="45.17706" lon="5.91922">
        <ele>1711</ele>
        <time>2020-02-23T07:29:49.000Z</time>
      </trkpt>
      <trkpt lat="45.17706" lon="5.9193">
        <ele>1713</ele>
        <time>2020-02-23T07:29:59.000Z</time>
      </trkpt>
      <trkpt lat="45.17706" lon="5.91939">
        <ele>1716</ele>
        <time>2020-02-23T07:30:13.000Z</time>
      </trkpt>
      <trkpt lat="45.17708" lon="5.91947">
        <ele>1717</ele>
        <time>2020-02-23T07:30:19.375Z</time>
      </trkpt>
      <trkpt lat="45.17711" lon="5.91956">
        <ele>1720</ele>
        <time>2020-02-23T07:30:29.853Z</time>
      </trkpt>
      <trkpt lat="45.17712" lon="5.91963">
        <ele>1722</ele>
        <time>2020-02-23T07:30:36.709Z</time>
      </trkpt>
      <trkpt lat="45.17711" lon="5.91969">
        <ele>1725</ele>
        <time>2020-02-23T07:30:44.000Z</time>
      </trkpt>
      <trkpt lat="45.17707" lon="5.91977">
        <ele>1725</ele>
        <time>2020-02-23T07:30:52.768Z</time>
      </trkpt>
      <trkpt lat="45.177" lon="5.9198">
        <ele>1723</ele>
        <time>2020-02-23T07:31:01.000Z</time>
      </trkpt>
      <trkpt lat="45.17694" lon="5.91984">
        <ele>1723</ele>
        <time>2020-02-23T07:31:07.672Z</time>
      </trkpt>
      <trkpt lat="45.17689" lon="5.91987">
        <ele>1726</ele>
        <time>2020-02-23T07:31:14.723Z</time>
      </trkpt>
      <trkpt lat="45.17685" lon="5.91992">
        <ele>1728</ele>
        <time>2020-02-23T07:31:22.000Z</time>
      </trkpt>
      <trkpt lat="45.17682" lon="5.91997">
        <ele>1730</ele>
        <time>2020-02-23T07:31:27.630Z</time>
      </trkpt>
      <trkpt lat="45.17679" lon="5.92005">
        <ele>1729</ele>
        <time>2020-02-23T07:31:34.879Z</time>
      </trkpt>
      <trkpt lat="45.17678" lon="5.92012">
        <ele>1730</ele>
        <time>2020-02-23T07:31:41.991Z</time>
      </trkpt>
      <trkpt lat="45.17676" lon="5.92021">
        <ele>1730</ele>
        <time>2020-02-23T07:31:48.716Z</time>
      </trkpt>
      <trkpt lat="45.17675" lon="5.92027">
        <ele>1733</ele>
        <time>2020-02-23T07:31:58.000Z</time>
      </trkpt>
      <trkpt lat="45.17674" lon="5.92035">
        <ele>1734</ele>
        <time>2020-02-23T07:32:03.740Z</time>
      </trkpt>
      <trkpt lat="45.17672" lon="5.92044">
        <ele>1735</ele>
        <time>2020-02-23T07:32:11.258Z</time>
      </trkpt>
      <trkpt lat="45.17671" lon="5.9205">
        <ele>1737</ele>
        <time>2020-02-23T07:32:18.362Z</time>
      </trkpt>
      <trkpt lat="45.17668" lon="5.92057">
        <ele>1737</ele>
        <time>2020-02-23T07:32:27.684Z</time>
      </trkpt>
      <trkpt lat="45.17666" lon="5.92063">
        <ele>1735</ele>
        <time>2020-02-23T07:32:36.344Z</time>
      </trkpt>
      <trkpt lat="45.17665" lon="5.9207">
        <ele>1736</ele>
        <time>2020-02-23T07:32:43.858Z</time>
      </trkpt>
      <trkpt lat="45.17659" lon="5.92075">
        <ele>1734</ele>
        <time>2020-02-23T07:32:53.659Z</time>
      </trkpt>
      <trkpt lat="45.17653" lon="5.92077">
        <ele>1733</ele>
        <time>2020-02-23T07:32:58.000Z</time>
      </trkpt>
      <trkpt lat="45.17646" lon="5.92079">
        <ele>1735</ele>
        <time>2020-02-23T07:33:04.000Z</time>
      </trkpt>
      <trkpt lat="45.1764" lon="5.92081">
        <ele>1735</ele>
        <time>2020-02-23T07:33:11.000Z</time>
      </trkpt>
      <trkpt lat="45.17635" lon="5.92082">
        <ele>1735</ele>
        <time>2020-02-23T07:33:17.000Z</time>
      </trkpt>
      <trkpt lat="45.17631" lon="5.92086">
        <ele>1736</ele>
        <time>2020-02-23T07:33:23.397Z</time>
      </trkpt>
      <trkpt lat="45.17626" lon="5.92091">
        <ele>1737</ele>
        <time>2020-02-23T07:33:31.000Z</time>
      </trkpt>
      <trkpt lat="45.17622" lon="5.92096">
        <ele>1738</ele>
        <time>2020-02-23T07:33:38.000Z</time>
      </trkpt>
      <trkpt lat="45.17619" lon="5.92104">
        <ele>1737</ele>
        <time>2020-02-23T07:33:48.000Z</time>
      </trkpt>
      <trkpt lat="45.17616" lon="5.92113">
        <ele>1736</ele>
        <time>2020-02-23T07:33:57.826Z</time>
      </trkpt>
      <trkpt lat="45.17612" lon="5.9212">
        <ele>1737</ele>
        <time>2020-02-23T07:34:04.622Z</time>
      </trkpt>
      <trkpt lat="45.17608" lon="5.92127">
        <ele>1738</ele>
        <time>2020-02-23T07:34:11.764Z</time>
      </trkpt>
      <trkpt lat="45.17605" lon="5.92133">
        <ele>1736</ele>
        <time>2020-02-23T07:34:19.000Z</time>
      </trkpt>
      <trkpt lat="45.176" lon="5.92139">
        <ele>1740</ele>
        <time>2020-02-23T07:34:27.740Z</time>
      </trkpt>
      <trkpt lat="45.17597" lon="5.92146">
        <ele>1742</ele>
        <time>2020-02-23T07:34:38.076Z</time>
      </trkpt>
      <trkpt lat="45.17596" lon="5.92152">
        <ele>1742</ele>
        <time>2020-02-23T07:34:49.000Z</time>
      </trkpt>
      <trkpt lat="45.17592" lon="5.92156">
        <ele>1743</ele>
        <time>2020-02-23T07:34:58.959Z</time>
      </trkpt>
      <trkpt lat="45.17589" lon="5.9216">
        <ele>1746</ele>
        <time>2020-02-23T07:35:07.000Z</time>
      </trkpt>
      <trkpt lat="45.17583" lon="5.92162">
        <ele>1747</ele>
        <time>2020-02-23T07:35:17.000Z</time>
      </trkpt>
      <trkpt lat="45.17579" lon="5.92167">
        <ele>1746</ele>
        <time>2020-02-23T07:35:29.759Z</time>
      </trkpt>
      <trkpt lat="45.17575" lon="5.92175">
        <ele>1743</ele>
        <time>2020-02-23T07:35:39.788Z</time>
      </trkpt>
      <trkpt lat="45.17574" lon="5.92181">
        <ele>1744</ele>
        <time>2020-02-23T07:35:47.000Z</time>
      </trkpt>
      <trkpt lat="45.17572" lon="5.9219">
        <ele>1746</ele>
        <time>2020-02-23T07:35:56.023Z</time>
      </trkpt>
      <trkpt lat="45.17567" lon="5.92196">
        <ele>1745</ele>
        <time>2020-02-23T07:36:05.703Z</time>
      </trkpt>
      <trkpt lat="45.17562" lon="5.92201">
        <ele>1744</ele>
        <time>2020-02-23T07:36:12.577Z</time>
      </trkpt>
      <trkpt lat="45.17557" lon="5.92207">
        <ele>1745</ele>
        <time>2020-02-23T07:36:20.000Z</time>
      </trkpt>
      <trkpt lat="45.17553" lon="5.92212">
        <ele>1747</ele>
        <time>2020-02-23T07:36:25.915Z</time>
      </trkpt>
      <trkpt lat="45.17549" lon="5.9222">
        <ele>1746</ele>
        <time>2020-02-23T07:36:32.659Z</time>
      </trkpt>
      <trkpt lat="45.17546" lon="5.92227">
        <ele>1748</ele>
        <time>2020-02-23T07:36:40.000Z</time>
      </trkpt>
      <trkpt lat="45.17544" lon="5.92235">
        <ele>1749</ele>
        <time>2020-02-23T07:36:47.000Z</time>
      </trkpt>
      <trkpt lat="45.17542" lon="5.92245">
        <ele>1748</ele>
        <time>2020-02-23T07:36:52.931Z</time>
      </trkpt>
      <trkpt lat="45.17541" lon="5.92253">
        <ele>1750</ele>
        <time>2020-02-23T07:36:59.933Z</time>
      </trkpt>
      <trkpt lat="45.17539" lon="5.9226">
        <ele>1751</ele>
        <time>2020-02-23T07:37:07.000Z</time>
      </trkpt>
      <trkpt lat="45.17536" lon="5.92268">
        <ele>1750</ele>
        <time>2020-02-23T07:37:12.646Z</time>
      </trkpt>
      <trkpt lat="45.17533" lon="5.92274">
        <ele>1750</ele>
        <time>2020-02-23T07:37:19.758Z</time>
      </trkpt>
      <trkpt lat="45.17529" lon="5.92281">
        <ele>1748</ele>
        <time>2020-02-23T07:37:28.000Z</time>
      </trkpt>
      <trkpt lat="45.17526" lon="5.92289">
        <ele>1748</ele>
        <time>2020-02-23T07:37:35.000Z</time>
      </trkpt>
      <trkpt lat="45.17524" lon="5.92297">
        <ele>1748</ele>
        <time>2020-02-23T07:37:40.978Z</time>
      </trkpt>
      <trkpt lat="45.17522" lon="5.92304">
        <ele>1747</ele>
        <time>2020-02-23T07:37:47.332Z</time>
      </trkpt>
      <trkpt lat="45.17523" lon="5.92311">
        <ele>1747</ele>
        <time>2020-02-23T07:37:53.734Z</time>
      </trkpt>
      <trkpt lat="45.17525" lon="5.92318">
        <ele>1746</ele>
        <time>2020-02-23T07:38:01.000Z</time>
      </trkpt>
      <trkpt lat="45.17528" lon="5.92325">
        <ele>1746</ele>
        <time>2020-02-23T07:38:08.000Z</time>
      </trkpt>
      <trkpt lat="45.17534" lon="5.92332">
        <ele>1746</ele>
        <time>2020-02-23T07:38:16.666Z</time>
      </trkpt>
      <trkpt lat="45.17538" lon="5.92338">
        <ele>1748</ele>
        <time>2020-02-23T07:38:23.841Z</time>
      </trkpt>
      <trkpt lat="45.1754" lon="5.92348">
        <ele>1749</ele>
        <time>2020-02-23T07:38:30.995Z</time>
      </trkpt>
      <trkpt lat="45.1754" lon="5.92357">
        <ele>1745</ele>
        <time>2020-02-23T07:38:37.896Z</time>
      </trkpt>
      <trkpt lat="45.17538" lon="5.92364">
        <ele>1744</ele>
        <time>2020-02-23T07:38:45.000Z</time>
      </trkpt>
      <trkpt lat="45.17533" lon="5.92371">
        <ele>1743</ele>
        <time>2020-02-23T07:38:54.143Z</time>
      </trkpt>
      <trkpt lat="45.17529" lon="5.92376">
        <ele>1744</ele>
        <time>2020-02-23T07:39:03.000Z</time>
      </trkpt>
      <trkpt lat="45.17522" lon="5.92378">
        <ele>1741</ele>
        <time>2020-02-23T07:39:12.587Z</time>
      </trkpt>
      <trkpt lat="45.17516" lon="5.92382">
        <ele>1738</ele>
        <time>2020-02-23T07:39:24.000Z</time>
      </trkpt>
      <trkpt lat="45.17511" lon="5.92385">
        <ele>1738</ele>
        <time>2020-02-23T07:39:33.731Z</time>
      </trkpt>
      <trkpt lat="45.17505" lon="5.92388">
        <ele>1738</ele>
        <time>2020-02-23T07:39:42.000Z</time>
      </trkpt>
      <trkpt lat="45.17499" lon="5.92391">
        <ele>1736</ele>
        <time>2020-02-23T07:39:48.000Z</time>
      </trkpt>
      <trkpt lat="45.17493" lon="5.92394">
        <ele>1736</ele>
        <time>2020-02-23T07:39:54.465Z</time>
      </trkpt>
      <trkpt lat="45.17489" lon="5.92399">
        <ele>1736</ele>
        <time>2020-02-23T07:40:01.077Z</time>
      </trkpt>
      <trkpt lat="45.17489" lon="5.92406">
        <ele>1742</ele>
        <time>2020-02-23T07:40:10.000Z</time>
      </trkpt>
      <trkpt lat="45.17484" lon="5.92412">
        <ele>1745</ele>
        <time>2020-02-23T07:40:15.404Z</time>
      </trkpt>
      <trkpt lat="45.17481" lon="5.92417">
        <ele>1745</ele>
        <time>2020-02-23T07:40:24.000Z</time>
      </trkpt>
      <trkpt lat="45.17476" lon="5.92418">
        <ele>1744</ele>
        <time>2020-02-23T07:40:39.639Z</time>
      </trkpt>
      <trkpt lat="45.17471" lon="5.92416">
        <ele>1744</ele>
        <time>2020-02-23T07:40:54.000Z</time>
      </trkpt>
      <trkpt lat="45.17466" lon="5.92418">
        <ele>1743</ele>
        <time>2020-02-23T07:41:15.464Z</time>
      </trkpt>
      <trkpt lat="45.17462" lon="5.92422">
        <ele>1758</ele>
        <time>2020-02-23T07:42:55.000Z</time>
      </trkpt>
      <trkpt lat="45.17458" lon="5.92418">
        <ele>1763</ele>
        <time>2020-02-23T07:44:10.000Z</time>
      </trkpt>
      <trkpt lat="45.17453" lon="5.92414">
        <ele>1751</ele>
        <time>2020-02-23T07:44:55.000Z</time>
      </trkpt>
      <trkpt lat="45.17461" lon="5.92417">
        <ele>1747</ele>
        <time>2020-02-23T07:46:18.000Z</time>
      </trkpt>
      <trkpt lat="45.17455" lon="5.9241">
        <ele>1749</ele>
        <time>2020-02-23T07:46:22.000Z</time>
      </trkpt>
      <trkpt lat="45.1746" lon="5.92411">
        <ele>1750</ele>
        <time>2020-02-23T07:47:26.000Z</time>
      </trkpt>
      <trkpt lat="45.17458" lon="5.92418">
        <ele>1744</ele>
        <time>2020-02-23T07:47:57.000Z</time>
      </trkpt>
      <trkpt lat="45.17455" lon="5.92427">
        <ele>1742</ele>
        <time>2020-02-23T07:48:05.701Z</time>
      </trkpt>
      <trkpt lat="45.17455" lon="5.92436">
        <ele>1742</ele>
        <time>2020-02-23T07:48:12.968Z</time>
      </trkpt>
      <trkpt lat="45.17453" lon="5.92443">
        <ele>1741</ele>
        <time>2020-02-23T07:48:20.000Z</time>
      </trkpt>
      <trkpt lat="45.17451" lon="5.92449">
        <ele>1740</ele>
        <time>2020-02-23T07:48:25.795Z</time>
      </trkpt>
      <trkpt lat="45.17452" lon="5.92457">
        <ele>1742</ele>
        <time>2020-02-23T07:48:36.000Z</time>
      </trkpt>
      <trkpt lat="45.1746" lon="5.92463">
        <ele>1744</ele>
        <time>2020-02-23T07:48:41.673Z</time>
      </trkpt>
      <trkpt lat="45.17465" lon="5.92472">
        <ele>1743</ele>
        <time>2020-02-23T07:48:54.000Z</time>
      </trkpt>
      <trkpt lat="45.1747" lon="5.92478">
        <ele>1743</ele>
        <time>2020-02-23T07:49:04.000Z</time>
      </trkpt>
      <trkpt lat="45.17473" lon="5.92483">
        <ele>1742</ele>
        <time>2020-02-23T07:49:11.000Z</time>
      </trkpt>
      <trkpt lat="45.17475" lon="5.92488">
        <ele>1741</ele>
        <time>2020-02-23T07:49:16.729Z</time>
      </trkpt>
      <trkpt lat="45.17477" lon="5.92496">
        <ele>1740</ele>
        <time>2020-02-23T07:49:24.000Z</time>
      </trkpt>
      <trkpt lat="45.17478" lon="5.92503">
        <ele>1739</ele>
        <time>2020-02-23T07:49:31.000Z</time>
      </trkpt>
      <trkpt lat="45.17483" lon="5.92509">
        <ele>1738</ele>
        <time>2020-02-23T07:49:40.627Z</time>
      </trkpt>
      <trkpt lat="45.17487" lon="5.92513">
        <ele>1740</ele>
        <time>2020-02-23T07:49:52.000Z</time>
      </trkpt>
      <trkpt lat="45.17492" lon="5.92518">
        <ele>1740</ele>
        <time>2020-02-23T07:50:11.000Z</time>
      </trkpt>
      <trkpt lat="45.17495" lon="5.92523">
        <ele>1743</ele>
        <time>2020-02-23T07:50:21.000Z</time>
      </trkpt>
      <trkpt lat="45.17497" lon="5.92529">
        <ele>1745</ele>
        <time>2020-02-23T07:50:34.000Z</time>
      </trkpt>
      <trkpt lat="45.17496" lon="5.92536">
        <ele>1745</ele>
        <time>2020-02-23T07:50:44.000Z</time>
      </trkpt>
      <trkpt lat="45.17492" lon="5.92532">
        <ele>1748</ele>
        <time>2020-02-23T07:50:53.830Z</time>
      </trkpt>
      <trkpt lat="45.17486" lon="5.9253">
        <ele>1754</ele>
        <time>2020-02-23T07:51:04.872Z</time>
      </trkpt>
      <trkpt lat="45.1748" lon="5.92532">
        <ele>1756</ele>
        <time>2020-02-23T07:51:14.573Z</time>
      </trkpt>
      <trkpt lat="45.17475" lon="5.92535">
        <ele>1758</ele>
        <time>2020-02-23T07:51:33.000Z</time>
      </trkpt>
      <trkpt lat="45.17471" lon="5.92539">
        <ele>1759</ele>
        <time>2020-02-23T07:51:44.000Z</time>
      </trkpt>
      <trkpt lat="45.17465" lon="5.92539">
        <ele>1760</ele>
        <time>2020-02-23T07:51:52.844Z</time>
      </trkpt>
      <trkpt lat="45.1746" lon="5.92539">
        <ele>1760</ele>
        <time>2020-02-23T07:52:02.662Z</time>
      </trkpt>
      <trkpt lat="45.17455" lon="5.9254">
        <ele>1761</ele>
        <time>2020-02-23T07:52:17.000Z</time>
      </trkpt>
      <trkpt lat="45.1745" lon="5.92542">
        <ele>1759</ele>
        <time>2020-02-23T07:52:27.705Z</time>
      </trkpt>
      <trkpt lat="45.17444" lon="5.92542">
        <ele>1760</ele>
        <time>2020-02-23T07:52:39.000Z</time>
      </trkpt>
      <trkpt lat="45.1744" lon="5.92542">
        <ele>1766</ele>
        <time>2020-02-23T07:52:51.501Z</time>
      </trkpt>
      <trkpt lat="45.17435" lon="5.92546">
        <ele>1766</ele>
        <time>2020-02-23T07:53:02.436Z</time>
      </trkpt>
      <trkpt lat="45.1743" lon="5.92549">
        <ele>1766</ele>
        <time>2020-02-23T07:53:30.361Z</time>
      </trkpt>
      <trkpt lat="45.17425" lon="5.92552">
        <ele>1765</ele>
        <time>2020-02-23T07:53:40.240Z</time>
      </trkpt>
      <trkpt lat="45.1742" lon="5.92554">
        <ele>1763</ele>
        <time>2020-02-23T07:53:52.000Z</time>
      </trkpt>
      <trkpt lat="45.17416" lon="5.92557">
        <ele>1764</ele>
        <time>2020-02-23T07:54:02.000Z</time>
      </trkpt>
      <trkpt lat="45.17421" lon="5.92558">
        <ele>1759</ele>
        <time>2020-02-23T07:54:42.000Z</time>
      </trkpt>
      <trkpt lat="45.17416" lon="5.92559">
        <ele>1766</ele>
        <time>2020-02-23T07:55:38.000Z</time>
      </trkpt>
      <trkpt lat="45.17422" lon="5.92562">
        <ele>1768</ele>
        <time>2020-02-23T07:56:54.000Z</time>
      </trkpt>
      <trkpt lat="45.17427" lon="5.92561">
        <ele>1766</ele>
        <time>2020-02-23T07:57:04.000Z</time>
      </trkpt>
      <trkpt lat="45.17423" lon="5.92566">
        <ele>1766</ele>
        <time>2020-02-23T07:57:18.000Z</time>
      </trkpt>
      <trkpt lat="45.17417" lon="5.92557">
        <ele>1765</ele>
        <time>2020-02-23T07:57:36.000Z</time>
      </trkpt>
      <trkpt lat="45.17412" lon="5.92559">
        <ele>1766</ele>
        <time>2020-02-23T07:58:39.000Z</time>
      </trkpt>
      <trkpt lat="45.17407" lon="5.92561">
        <ele>1773</ele>
        <time>2020-02-23T07:59:20.000Z</time>
      </trkpt>
      <trkpt lat="45.17403" lon="5.92566">
        <ele>1775</ele>
        <time>2020-02-23T07:59:30.315Z</time>
      </trkpt>
      <trkpt lat="45.17398" lon="5.9257">
        <ele>1772</ele>
        <time>2020-02-23T07:59:41.000Z</time>
      </trkpt>
      <trkpt lat="45.17393" lon="5.92576">
        <ele>1771</ele>
        <time>2020-02-23T07:59:48.000Z</time>
      </trkpt>
      <trkpt lat="45.17389" lon="5.92581">
        <ele>1771</ele>
        <time>2020-02-23T07:59:56.877Z</time>
      </trkpt>
      <trkpt lat="45.17386" lon="5.92586">
        <ele>1770</ele>
        <time>2020-02-23T08:00:04.000Z</time>
      </trkpt>
      <trkpt lat="45.17382" lon="5.9259">
        <ele>1767</ele>
        <time>2020-02-23T08:00:10.113Z</time>
      </trkpt>
      <trkpt lat="45.17377" lon="5.92596">
        <ele>1766</ele>
        <time>2020-02-23T08:00:21.000Z</time>
      </trkpt>
      <trkpt lat="45.17373" lon="5.926">
        <ele>1767</ele>
        <time>2020-02-23T08:00:26.941Z</time>
      </trkpt>
      <trkpt lat="45.1737" lon="5.92606">
        <ele>1763</ele>
        <time>2020-02-23T08:00:35.000Z</time>
      </trkpt>
      <trkpt lat="45.17366" lon="5.92614">
        <ele>1761</ele>
        <time>2020-02-23T08:00:43.771Z</time>
      </trkpt>
      <trkpt lat="45.17362" lon="5.9262">
        <ele>1768</ele>
        <time>2020-02-23T08:00:53.580Z</time>
      </trkpt>
      <trkpt lat="45.17356" lon="5.92625">
        <ele>1767</ele>
        <time>2020-02-23T08:01:05.000Z</time>
      </trkpt>
      <trkpt lat="45.17352" lon="5.92629">
        <ele>1766</ele>
        <time>2020-02-23T08:01:19.000Z</time>
      </trkpt>
      <trkpt lat="45.17349" lon="5.92634">
        <ele>1771</ele>
        <time>2020-02-23T08:01:29.000Z</time>
      </trkpt>
      <trkpt lat="45.17345" lon="5.92641">
        <ele>1769</ele>
        <time>2020-02-23T08:01:39.000Z</time>
      </trkpt>
      <trkpt lat="45.17339" lon="5.92646">
        <ele>1766</ele>
        <time>2020-02-23T08:01:51.000Z</time>
      </trkpt>
      <trkpt lat="45.17335" lon="5.92649">
        <ele>1767</ele>
        <time>2020-02-23T08:01:58.000Z</time>
      </trkpt>
      <trkpt lat="45.17331" lon="5.92654">
        <ele>1772</ele>
        <time>2020-02-23T08:02:11.000Z</time>
      </trkpt>
      <trkpt lat="45.17326" lon="5.9266">
        <ele>1779</ele>
        <time>2020-02-23T08:02:46.000Z</time>
      </trkpt>
      <trkpt lat="45.17323" lon="5.92665">
        <ele>1783</ele>
        <time>2020-02-23T08:02:58.876Z</time>
      </trkpt>
      <trkpt lat="45.17319" lon="5.92668">
        <ele>1785</ele>
        <time>2020-02-23T08:03:26.330Z</time>
      </trkpt>
      <trkpt lat="45.17315" lon="5.92673">
        <ele>1782</ele>
        <time>2020-02-23T08:03:44.000Z</time>
      </trkpt>
      <trkpt lat="45.17314" lon="5.9268">
        <ele>1783</ele>
        <time>2020-02-23T08:04:11.000Z</time>
      </trkpt>
      <trkpt lat="45.17319" lon="5.9268">
        <ele>1793</ele>
        <time>2020-02-23T08:04:46.000Z</time>
      </trkpt>
      <trkpt lat="45.17316" lon="5.92685">
        <ele>1795</ele>
        <time>2020-02-23T08:05:03.000Z</time>
      </trkpt>
      <trkpt lat="45.17309" lon="5.92696">
        <ele>1803</ele>
        <time>2020-02-23T08:05:21.000Z</time>
      </trkpt>
      <trkpt lat="45.17306" lon="5.927">
        <ele>1806</ele>
        <time>2020-02-23T08:05:30.000Z</time>
      </trkpt>
      <trkpt lat="45.17301" lon="5.92701">
        <ele>1807</ele>
        <time>2020-02-23T08:06:03.000Z</time>
      </trkpt>
      <trkpt lat="45.17304" lon="5.92707">
        <ele>1808</ele>
        <time>2020-02-23T08:06:12.000Z</time>
      </trkpt>
      <trkpt lat="45.1731" lon="5.92709">
        <ele>1807</ele>
        <time>2020-02-23T08:06:23.000Z</time>
      </trkpt>
      <trkpt lat="45.17315" lon="5.9271">
        <ele>1812</ele>
        <time>2020-02-23T08:06:30.000Z</time>
      </trkpt>
      <trkpt lat="45.17318" lon="5.92716">
        <ele>1815</ele>
        <time>2020-02-23T08:06:49.739Z</time>
      </trkpt>
      <trkpt lat="45.17316" lon="5.92723">
        <ele>1821</ele>
        <time>2020-02-23T08:07:01.000Z</time>
      </trkpt>
      <trkpt lat="45.17314" lon="5.92731">
        <ele>1824</ele>
        <time>2020-02-23T08:07:09.000Z</time>
      </trkpt>
      <trkpt lat="45.17314" lon="5.9274">
        <ele>1826</ele>
        <time>2020-02-23T08:07:19.895Z</time>
      </trkpt>
      <trkpt lat="45.17313" lon="5.92748">
        <ele>1824</ele>
        <time>2020-02-23T08:07:31.000Z</time>
      </trkpt>
      <trkpt lat="45.17313" lon="5.92754">
        <ele>1825</ele>
        <time>2020-02-23T08:07:39.000Z</time>
      </trkpt>
      <trkpt lat="45.17314" lon="5.92761">
        <ele>1825</ele>
        <time>2020-02-23T08:07:44.696Z</time>
      </trkpt>
      <trkpt lat="45.17315" lon="5.92769">
        <ele>1825</ele>
        <time>2020-02-23T08:07:51.353Z</time>
      </trkpt>
      <trkpt lat="45.17318" lon="5.92777">
        <ele>1826</ele>
        <time>2020-02-23T08:07:59.000Z</time>
      </trkpt>
      <trkpt lat="45.17321" lon="5.92782">
        <ele>1826</ele>
        <time>2020-02-23T08:08:05.761Z</time>
      </trkpt>
      <trkpt lat="45.17325" lon="5.92787">
        <ele>1824</ele>
        <time>2020-02-23T08:08:13.000Z</time>
      </trkpt>
      <trkpt lat="45.17329" lon="5.92792">
        <ele>1822</ele>
        <time>2020-02-23T08:08:24.000Z</time>
      </trkpt>
      <trkpt lat="45.17335" lon="5.92799">
        <ele>1820</ele>
        <time>2020-02-23T08:08:33.861Z</time>
      </trkpt>
      <trkpt lat="45.17339" lon="5.92803">
        <ele>1819</ele>
        <time>2020-02-23T08:08:41.000Z</time>
      </trkpt>
      <trkpt lat="45.17342" lon="5.92808">
        <ele>1819</ele>
        <time>2020-02-23T08:08:51.000Z</time>
      </trkpt>
      <trkpt lat="45.17346" lon="5.92813">
        <ele>1820</ele>
        <time>2020-02-23T08:08:59.000Z</time>
      </trkpt>
      <trkpt lat="45.1735" lon="5.92819">
        <ele>1822</ele>
        <time>2020-02-23T08:09:09.030Z</time>
      </trkpt>
      <trkpt lat="45.17354" lon="5.92825">
        <ele>1822</ele>
        <time>2020-02-23T08:09:19.000Z</time>
      </trkpt>
      <trkpt lat="45.1736" lon="5.92828">
        <ele>1825</ele>
        <time>2020-02-23T08:09:31.874Z</time>
      </trkpt>
      <trkpt lat="45.17365" lon="5.9283">
        <ele>1832</ele>
        <time>2020-02-23T08:09:45.000Z</time>
      </trkpt>
      <trkpt lat="45.17364" lon="5.92837">
        <ele>1830</ele>
        <time>2020-02-23T08:10:10.000Z</time>
      </trkpt>
      <trkpt lat="45.17361" lon="5.92844">
        <ele>1831</ele>
        <time>2020-02-23T08:10:19.454Z</time>
      </trkpt>
      <trkpt lat="45.17362" lon="5.92851">
        <ele>1833</ele>
        <time>2020-02-23T08:10:26.303Z</time>
      </trkpt>
      <trkpt lat="45.17363" lon="5.92858">
        <ele>1834</ele>
        <time>2020-02-23T08:10:40.327Z</time>
      </trkpt>
      <trkpt lat="45.17366" lon="5.92864">
        <ele>1835</ele>
        <time>2020-02-23T08:10:51.000Z</time>
      </trkpt>
      <trkpt lat="45.17369" lon="5.9287">
        <ele>1835</ele>
        <time>2020-02-23T08:11:01.000Z</time>
      </trkpt>
      <trkpt lat="45.17372" lon="5.92875">
        <ele>1839</ele>
        <time>2020-02-23T08:11:06.800Z</time>
      </trkpt>
      <trkpt lat="45.17375" lon="5.92879">
        <ele>1838</ele>
        <time>2020-02-23T08:11:19.000Z</time>
      </trkpt>
      <trkpt lat="45.17379" lon="5.92884">
        <ele>1836</ele>
        <time>2020-02-23T08:11:28.025Z</time>
      </trkpt>
      <trkpt lat="45.17383" lon="5.92889">
        <ele>1836</ele>
        <time>2020-02-23T08:11:38.000Z</time>
      </trkpt>
      <trkpt lat="45.17386" lon="5.92895">
        <ele>1835</ele>
        <time>2020-02-23T08:11:47.895Z</time>
      </trkpt>
      <trkpt lat="45.17389" lon="5.92903">
        <ele>1838</ele>
        <time>2020-02-23T08:12:01.815Z</time>
      </trkpt>
      <trkpt lat="45.17391" lon="5.92911">
        <ele>1837</ele>
        <time>2020-02-23T08:12:16.075Z</time>
      </trkpt>
      <trkpt lat="45.17393" lon="5.92917">
        <ele>1836</ele>
        <time>2020-02-23T08:12:30.000Z</time>
      </trkpt>
      <trkpt lat="45.17396" lon="5.92923">
        <ele>1834</ele>
        <time>2020-02-23T08:12:41.000Z</time>
      </trkpt>
      <trkpt lat="45.174" lon="5.92927">
        <ele>1831</ele>
        <time>2020-02-23T08:12:55.000Z</time>
      </trkpt>
      <trkpt lat="45.17402" lon="5.92933">
        <ele>1831</ele>
        <time>2020-02-23T08:13:05.000Z</time>
      </trkpt>
      <trkpt lat="45.17403" lon="5.9294">
        <ele>1830</ele>
        <time>2020-02-23T08:13:11.083Z</time>
      </trkpt>
      <trkpt lat="45.17401" lon="5.92946">
        <ele>1830</ele>
        <time>2020-02-23T08:13:26.000Z</time>
      </trkpt>
      <trkpt lat="45.17404" lon="5.92951">
        <ele>1830</ele>
        <time>2020-02-23T08:13:42.076Z</time>
      </trkpt>
      <trkpt lat="45.1741" lon="5.92954">
        <ele>1831</ele>
        <time>2020-02-23T08:13:55.000Z</time>
      </trkpt>
      <trkpt lat="45.17414" lon="5.92958">
        <ele>1835</ele>
        <time>2020-02-23T08:14:05.297Z</time>
      </trkpt>
      <trkpt lat="45.17415" lon="5.92964">
        <ele>1834</ele>
        <time>2020-02-23T08:14:26.049Z</time>
      </trkpt>
      <trkpt lat="45.17418" lon="5.92972">
        <ele>1835</ele>
        <time>2020-02-23T08:14:38.000Z</time>
      </trkpt>
      <trkpt lat="45.17419" lon="5.92979">
        <ele>1836</ele>
        <time>2020-02-23T08:14:46.419Z</time>
      </trkpt>
      <trkpt lat="45.1742" lon="5.92987">
        <ele>1836</ele>
        <time>2020-02-23T08:14:56.984Z</time>
      </trkpt>
      <trkpt lat="45.1742" lon="5.92993">
        <ele>1840</ele>
        <time>2020-02-23T08:15:12.000Z</time>
      </trkpt>
      <trkpt lat="45.17422" lon="5.93003">
        <ele>1839</ele>
        <time>2020-02-23T08:15:24.886Z</time>
      </trkpt>
      <trkpt lat="45.17424" lon="5.93009">
        <ele>1840</ele>
        <time>2020-02-23T08:15:31.721Z</time>
      </trkpt>
      <trkpt lat="45.17426" lon="5.93016">
        <ele>1841</ele>
        <time>2020-02-23T08:15:39.000Z</time>
      </trkpt>
      <trkpt lat="45.17426" lon="5.93023">
        <ele>1842</ele>
        <time>2020-02-23T08:15:47.000Z</time>
      </trkpt>
      <trkpt lat="45.17429" lon="5.9303">
        <ele>1844</ele>
        <time>2020-02-23T08:15:57.000Z</time>
      </trkpt>
      <trkpt lat="45.17431" lon="5.93036">
        <ele>1847</ele>
        <time>2020-02-23T08:16:07.000Z</time>
      </trkpt>
      <trkpt lat="45.17427" lon="5.93041">
        <ele>1854</ele>
        <time>2020-02-23T08:16:39.000Z</time>
      </trkpt>
      <trkpt lat="45.17428" lon="5.93049">
        <ele>1855</ele>
        <time>2020-02-23T08:16:57.000Z</time>
      </trkpt>
      <trkpt lat="45.17425" lon="5.93055">
        <ele>1852</ele>
        <time>2020-02-23T08:20:01.000Z</time>
      </trkpt>
      <trkpt lat="45.17426" lon="5.93063">
        <ele>1856</ele>
        <time>2020-02-23T08:20:45.000Z</time>
      </trkpt>
      <trkpt lat="45.17427" lon="5.93069">
        <ele>1862</ele>
        <time>2020-02-23T08:21:15.167Z</time>
      </trkpt>
      <trkpt lat="45.17429" lon="5.93076">
        <ele>1868</ele>
        <time>2020-02-23T08:21:35.000Z</time>
      </trkpt>
      <trkpt lat="45.17426" lon="5.93081">
        <ele>1873</ele>
        <time>2020-02-23T08:22:01.426Z</time>
      </trkpt>
      <trkpt lat="45.17422" lon="5.93087">
        <ele>1879</ele>
        <time>2020-02-23T08:22:13.000Z</time>
      </trkpt>
      <trkpt lat="45.17423" lon="5.93093">
        <ele>1880</ele>
        <time>2020-02-23T08:22:18.438Z</time>
      </trkpt>
      <trkpt lat="45.17424" lon="5.931">
        <ele>1883</ele>
        <time>2020-02-23T08:22:28.421Z</time>
      </trkpt>
      <trkpt lat="45.17423" lon="5.93107">
        <ele>1883</ele>
        <time>2020-02-23T08:22:46.000Z</time>
      </trkpt>
      <trkpt lat="45.17424" lon="5.93115">
        <ele>1893</ele>
        <time>2020-02-23T08:23:41.000Z</time>
      </trkpt>
      <trkpt lat="45.17427" lon="5.93123">
        <ele>1898</ele>
        <time>2020-02-23T08:23:52.000Z</time>
      </trkpt>
      <trkpt lat="45.17426" lon="5.9313">
        <ele>1903</ele>
        <time>2020-02-23T08:24:05.015Z</time>
      </trkpt>
      <trkpt lat="45.17428" lon="5.93136">
        <ele>1906</ele>
        <time>2020-02-23T08:24:18.525Z</time>
      </trkpt>
      <trkpt lat="45.17428" lon="5.93144">
        <ele>1914</ele>
        <time>2020-02-23T08:24:54.850Z</time>
      </trkpt>
      <trkpt lat="45.17429" lon="5.93153">
        <ele>1915</ele>
        <time>2020-02-23T08:25:08.679Z</time>
      </trkpt>
      <trkpt lat="45.1743" lon="5.93162">
        <ele>1918</ele>
        <time>2020-02-23T08:25:29.000Z</time>
      </trkpt>
      <trkpt lat="45.17429" lon="5.9317">
        <ele>1918</ele>
        <time>2020-02-23T08:25:40.000Z</time>
      </trkpt>
      <trkpt lat="45.17427" lon="5.93176">
        <ele>1919</ele>
        <time>2020-02-23T08:25:53.000Z</time>
      </trkpt>
      <trkpt lat="45.17431" lon="5.9318">
        <ele>1924</ele>
        <time>2020-02-23T08:26:38.000Z</time>
      </trkpt>
      <trkpt lat="45.17435" lon="5.93183">
        <ele>1926</ele>
        <time>2020-02-23T08:27:06.000Z</time>
      </trkpt>
      <trkpt lat="45.17432" lon="5.93191">
        <ele>1922</ele>
        <time>2020-02-23T08:27:42.000Z</time>
      </trkpt>
      <trkpt lat="45.17431" lon="5.93197">
        <ele>1928</ele>
        <time>2020-02-23T08:33:08.000Z</time>
      </trkpt>
      <trkpt lat="45.1743" lon="5.93207">
        <ele>1930</ele>
        <time>2020-02-23T08:33:21.000Z</time>
      </trkpt>
      <trkpt lat="45.17433" lon="5.93215">
        <ele>1931</ele>
        <time>2020-02-23T08:33:30.970Z</time>
      </trkpt>
      <trkpt lat="45.17434" lon="5.93224">
        <ele>1933</ele>
        <time>2020-02-23T08:33:41.654Z</time>
      </trkpt>
      <trkpt lat="45.17436" lon="5.93232">
        <ele>1936</ele>
        <time>2020-02-23T08:33:51.681Z</time>
      </trkpt>
      <trkpt lat="45.17439" lon="5.93241">
        <ele>1938</ele>
        <time>2020-02-23T08:34:01.344Z</time>
      </trkpt>
      <trkpt lat="45.17441" lon="5.9325">
        <ele>1942</ele>
        <time>2020-02-23T08:34:13.000Z</time>
      </trkpt>
      <trkpt lat="45.17441" lon="5.93258">
        <ele>1944</ele>
        <time>2020-02-23T08:34:23.000Z</time>
      </trkpt>
      <trkpt lat="45.17442" lon="5.93265">
        <ele>1945</ele>
        <time>2020-02-23T08:34:27.380Z</time>
      </trkpt>
      <trkpt lat="45.17441" lon="5.93275">
        <ele>1944</ele>
        <time>2020-02-23T08:34:36.790Z</time>
      </trkpt>
      <trkpt lat="45.17438" lon="5.9328">
        <ele>1944</ele>
        <time>2020-02-23T08:34:43.464Z</time>
      </trkpt>
      <trkpt lat="45.17435" lon="5.93285">
        <ele>1944</ele>
        <time>2020-02-23T08:34:52.000Z</time>
      </trkpt>
      <trkpt lat="45.17431" lon="5.93291">
        <ele>1942</ele>
        <time>2020-02-23T08:35:00.818Z</time>
      </trkpt>
      <trkpt lat="45.17425" lon="5.93294">
        <ele>1944</ele>
        <time>2020-02-23T08:35:13.000Z</time>
      </trkpt>
      <trkpt lat="45.17419" lon="5.93294">
        <ele>1943</ele>
        <time>2020-02-23T08:35:23.000Z</time>
      </trkpt>
      <trkpt lat="45.17413" lon="5.93294">
        <ele>1945</ele>
        <time>2020-02-23T08:35:33.000Z</time>
      </trkpt>
      <trkpt lat="45.17408" lon="5.93299">
        <ele>1944</ele>
        <time>2020-02-23T08:35:41.863Z</time>
      </trkpt>
      <trkpt lat="45.17404" lon="5.93305">
        <ele>1948</ele>
        <time>2020-02-23T08:35:53.000Z</time>
      </trkpt>
      <trkpt lat="45.17403" lon="5.93313">
        <ele>1950</ele>
        <time>2020-02-23T08:35:59.117Z</time>
      </trkpt>
      <trkpt lat="45.17401" lon="5.93321">
        <ele>1953</ele>
        <time>2020-02-23T08:36:08.000Z</time>
      </trkpt>
      <trkpt lat="45.174" lon="5.93328">
        <ele>1954</ele>
        <time>2020-02-23T08:36:15.000Z</time>
      </trkpt>
      <trkpt lat="45.17398" lon="5.93335">
        <ele>1957</ele>
        <time>2020-02-23T08:36:22.000Z</time>
      </trkpt>
      <trkpt lat="45.17399" lon="5.93342">
        <ele>1959</ele>
        <time>2020-02-23T08:36:30.514Z</time>
      </trkpt>
      <trkpt lat="45.17405" lon="5.93343">
        <ele>1960</ele>
        <time>2020-02-23T08:36:37.935Z</time>
      </trkpt>
      <trkpt lat="45.17408" lon="5.93347">
        <ele>1961</ele>
        <time>2020-02-23T08:36:45.255Z</time>
      </trkpt>
      <trkpt lat="45.17409" lon="5.93355">
        <ele>1960</ele>
        <time>2020-02-23T08:36:54.000Z</time>
      </trkpt>
      <trkpt lat="45.17409" lon="5.93363">
        <ele>1960</ele>
        <time>2020-02-23T08:37:00.000Z</time>
      </trkpt>
      <trkpt lat="45.17409" lon="5.93371">
        <ele>1961</ele>
        <time>2020-02-23T08:37:07.000Z</time>
      </trkpt>
      <trkpt lat="45.1741" lon="5.93379">
        <ele>1961</ele>
        <time>2020-02-23T08:37:14.000Z</time>
      </trkpt>
      <trkpt lat="45.1741" lon="5.93388">
        <ele>1962</ele>
        <time>2020-02-23T08:37:22.777Z</time>
      </trkpt>
      <trkpt lat="45.1741" lon="5.93397">
        <ele>1964</ele>
        <time>2020-02-23T08:37:29.739Z</time>
      </trkpt>
      <trkpt lat="45.17408" lon="5.93407">
        <ele>1963</ele>
        <time>2020-02-23T08:37:37.173Z</time>
      </trkpt>
      <trkpt lat="45.17404" lon="5.93414">
        <ele>1962</ele>
        <time>2020-02-23T08:37:46.735Z</time>
      </trkpt>
      <trkpt lat="45.17402" lon="5.93423">
        <ele>1961</ele>
        <time>2020-02-23T08:37:53.861Z</time>
      </trkpt>
      <trkpt lat="45.174" lon="5.93431">
        <ele>1960</ele>
        <time>2020-02-23T08:38:01.088Z</time>
      </trkpt>
      <trkpt lat="45.17396" lon="5.93437">
        <ele>1957</ele>
        <time>2020-02-23T08:38:09.000Z</time>
      </trkpt>
      <trkpt lat="45.17393" lon="5.93443">
        <ele>1957</ele>
        <time>2020-02-23T08:38:15.000Z</time>
      </trkpt>
      <trkpt lat="45.1739" lon="5.93449">
        <ele>1958</ele>
        <time>2020-02-23T08:38:22.000Z</time>
      </trkpt>
      <trkpt lat="45.17388" lon="5.93454">
        <ele>1956</ele>
        <time>2020-02-23T08:38:27.077Z</time>
      </trkpt>
      <trkpt lat="45.17385" lon="5.93463">
        <ele>1959</ele>
        <time>2020-02-23T08:38:37.219Z</time>
      </trkpt>
      <trkpt lat="45.17384" lon="5.93472">
        <ele>1961</ele>
        <time>2020-02-23T08:38:49.000Z</time>
      </trkpt>
      <trkpt lat="45.17383" lon="5.93479">
        <ele>1961</ele>
        <time>2020-02-23T08:38:53.304Z</time>
      </trkpt>
      <trkpt lat="45.17378" lon="5.93489">
        <ele>1961</ele>
        <time>2020-02-23T08:38:59.999Z</time>
      </trkpt>
      <trkpt lat="45.17374" lon="5.93495">
        <ele>1960</ele>
        <time>2020-02-23T08:39:06.671Z</time>
      </trkpt>
      <trkpt lat="45.17372" lon="5.93503">
        <ele>1962</ele>
        <time>2020-02-23T08:39:15.000Z</time>
      </trkpt>
      <trkpt lat="45.17369" lon="5.93509">
        <ele>1963</ele>
        <time>2020-02-23T08:39:22.000Z</time>
      </trkpt>
      <trkpt lat="45.1737" lon="5.93519">
        <ele>1965</ele>
        <time>2020-02-23T08:39:29.000Z</time>
      </trkpt>
      <trkpt lat="45.17372" lon="5.93526">
        <ele>1966</ele>
        <time>2020-02-23T08:39:36.000Z</time>
      </trkpt>
      <trkpt lat="45.17374" lon="5.93533">
        <ele>1969</ele>
        <time>2020-02-23T08:39:41.377Z</time>
      </trkpt>
      <trkpt lat="45.17376" lon="5.9354">
        <ele>1969</ele>
        <time>2020-02-23T08:39:53.000Z</time>
      </trkpt>
      <trkpt lat="45.17377" lon="5.93548">
        <ele>1970</ele>
        <time>2020-02-23T08:40:01.360Z</time>
      </trkpt>
      <trkpt lat="45.17375" lon="5.93554">
        <ele>1973</ele>
        <time>2020-02-23T08:40:14.000Z</time>
      </trkpt>
      <trkpt lat="45.17373" lon="5.9356">
        <ele>1974</ele>
        <time>2020-02-23T08:40:19.000Z</time>
      </trkpt>
      <trkpt lat="45.17367" lon="5.93565">
        <ele>1973</ele>
        <time>2020-02-23T08:40:31.000Z</time>
      </trkpt>
      <trkpt lat="45.17362" lon="5.93566">
        <ele>1974</ele>
        <time>2020-02-23T08:40:38.000Z</time>
      </trkpt>
      <trkpt lat="45.17356" lon="5.93566">
        <ele>1977</ele>
        <time>2020-02-23T08:40:48.000Z</time>
      </trkpt>
      <trkpt lat="45.17351" lon="5.93565">
        <ele>1977</ele>
        <time>2020-02-23T08:40:57.115Z</time>
      </trkpt>
      <trkpt lat="45.17349" lon="5.93559">
        <ele>1979</ele>
        <time>2020-02-23T08:41:04.438Z</time>
      </trkpt>
      <trkpt lat="45.17345" lon="5.93553">
        <ele>1980</ele>
        <time>2020-02-23T08:41:13.000Z</time>
      </trkpt>
      <trkpt lat="45.17343" lon="5.93547">
        <ele>1982</ele>
        <time>2020-02-23T08:41:21.000Z</time>
      </trkpt>
      <trkpt lat="45.17339" lon="5.9354">
        <ele>1983</ele>
        <time>2020-02-23T08:41:26.425Z</time>
      </trkpt>
      <trkpt lat="45.17334" lon="5.93535">
        <ele>1985</ele>
        <time>2020-02-23T08:41:34.388Z</time>
      </trkpt>
      <trkpt lat="45.17329" lon="5.9353">
        <ele>1988</ele>
        <time>2020-02-23T08:41:46.980Z</time>
      </trkpt>
      <trkpt lat="45.17324" lon="5.93525">
        <ele>1989</ele>
        <time>2020-02-23T08:42:00.000Z</time>
      </trkpt>
      <trkpt lat="45.17321" lon="5.93521">
        <ele>1990</ele>
        <time>2020-02-23T08:42:04.995Z</time>
      </trkpt>
      <trkpt lat="45.17315" lon="5.93519">
        <ele>1990</ele>
        <time>2020-02-23T08:42:14.000Z</time>
      </trkpt>
      <trkpt lat="45.1731" lon="5.93517">
        <ele>1992</ele>
        <time>2020-02-23T08:42:21.000Z</time>
      </trkpt>
      <trkpt lat="45.17306" lon="5.93518">
        <ele>1991</ele>
        <time>2020-02-23T08:42:27.078Z</time>
      </trkpt>
      <trkpt lat="45.17301" lon="5.93516">
        <ele>1992</ele>
        <time>2020-02-23T08:42:33.563Z</time>
      </trkpt>
      <trkpt lat="45.17297" lon="5.93511">
        <ele>1993</ele>
        <time>2020-02-23T08:42:43.847Z</time>
      </trkpt>
      <trkpt lat="45.17293" lon="5.93506">
        <ele>1997</ele>
        <time>2020-02-23T08:42:58.000Z</time>
      </trkpt>
      <trkpt lat="45.17286" lon="5.93508">
        <ele>1996</ele>
        <time>2020-02-23T08:43:06.987Z</time>
      </trkpt>
      <trkpt lat="45.17283" lon="5.93514">
        <ele>1996</ele>
        <time>2020-02-23T08:43:15.000Z</time>
      </trkpt>
      <trkpt lat="45.1728" lon="5.93522">
        <ele>1998</ele>
        <time>2020-02-23T08:43:21.043Z</time>
      </trkpt>
      <trkpt lat="45.17278" lon="5.93528">
        <ele>2001</ele>
        <time>2020-02-23T08:43:28.097Z</time>
      </trkpt>
      <trkpt lat="45.17277" lon="5.93539">
        <ele>2001</ele>
        <time>2020-02-23T08:43:38.161Z</time>
      </trkpt>
      <trkpt lat="45.17278" lon="5.93546">
        <ele>2006</ele>
        <time>2020-02-23T08:43:47.000Z</time>
      </trkpt>
      <trkpt lat="45.17279" lon="5.93553">
        <ele>2008</ele>
        <time>2020-02-23T08:43:53.000Z</time>
      </trkpt>
      <trkpt lat="45.17282" lon="5.93559">
        <ele>2009</ele>
        <time>2020-02-23T08:44:00.000Z</time>
      </trkpt>
      <trkpt lat="45.17286" lon="5.93563">
        <ele>2010</ele>
        <time>2020-02-23T08:44:10.000Z</time>
      </trkpt>
      <trkpt lat="45.1729" lon="5.93569">
        <ele>2009</ele>
        <time>2020-02-23T08:44:14.806Z</time>
      </trkpt>
      <trkpt lat="45.17291" lon="5.93576">
        <ele>2008</ele>
        <time>2020-02-23T08:44:22.100Z</time>
      </trkpt>
      <trkpt lat="45.17293" lon="5.93583">
        <ele>2010</ele>
        <time>2020-02-23T08:44:31.000Z</time>
      </trkpt>
      <trkpt lat="45.17296" lon="5.93591">
        <ele>2013</ele>
        <time>2020-02-23T08:44:41.000Z</time>
      </trkpt>
      <trkpt lat="45.17296" lon="5.93597">
        <ele>2015</ele>
        <time>2020-02-23T08:44:51.000Z</time>
      </trkpt>
      <trkpt lat="45.17291" lon="5.93601">
        <ele>2016</ele>
        <time>2020-02-23T08:45:07.099Z</time>
      </trkpt>
      <trkpt lat="45.17289" lon="5.93608">
        <ele>2014</ele>
        <time>2020-02-23T08:45:17.735Z</time>
      </trkpt>
      <trkpt lat="45.17291" lon="5.93614">
        <ele>2019</ele>
        <time>2020-02-23T08:45:26.000Z</time>
      </trkpt>
      <trkpt lat="45.17294" lon="5.93619">
        <ele>2020</ele>
        <time>2020-02-23T08:45:31.602Z</time>
      </trkpt>
      <trkpt lat="45.17296" lon="5.93626">
        <ele>2021</ele>
        <time>2020-02-23T08:45:38.838Z</time>
      </trkpt>
      <trkpt lat="45.17292" lon="5.9363">
        <ele>2021</ele>
        <time>2020-02-23T08:45:47.000Z</time>
      </trkpt>
      <trkpt lat="45.17287" lon="5.93631">
        <ele>2021</ele>
        <time>2020-02-23T08:45:51.858Z</time>
      </trkpt>
      <trkpt lat="45.17282" lon="5.93633">
        <ele>2024</ele>
        <time>2020-02-23T08:46:00.000Z</time>
      </trkpt>
      <trkpt lat="45.17277" lon="5.93636">
        <ele>2024</ele>
        <time>2020-02-23T08:46:05.322Z</time>
      </trkpt>
      <trkpt lat="45.17272" lon="5.93638">
        <ele>2024</ele>
        <time>2020-02-23T08:46:12.084Z</time>
      </trkpt>
      <trkpt lat="45.17266" lon="5.93638">
        <ele>2023</ele>
        <time>2020-02-23T08:46:20.000Z</time>
      </trkpt>
      <trkpt lat="45.17262" lon="5.93639">
        <ele>2022</ele>
        <time>2020-02-23T08:46:25.326Z</time>
      </trkpt>
      <trkpt lat="45.17257" lon="5.93641">
        <ele>2023</ele>
        <time>2020-02-23T08:46:32.192Z</time>
      </trkpt>
      <trkpt lat="45.17253" lon="5.93638">
        <ele>2025</ele>
        <time>2020-02-23T08:47:32.000Z</time>
      </trkpt>
      <trkpt lat="45.17248" lon="5.93635">
        <ele>2024</ele>
        <time>2020-02-23T08:50:46.000Z</time>
      </trkpt>
      <trkpt lat="45.17243" lon="5.93635">
        <ele>2023</ele>
        <time>2020-02-23T08:50:57.712Z</time>
      </trkpt>
      <trkpt lat="45.17238" lon="5.93638">
        <ele>2023</ele>
        <time>2020-02-23T08:51:05.964Z</time>
      </trkpt>
      <trkpt lat="45.17232" lon="5.93641">
        <ele>2025</ele>
        <time>2020-02-23T08:51:12.950Z</time>
      </trkpt>
      <trkpt lat="45.17226" lon="5.93642">
        <ele>2025</ele>
        <time>2020-02-23T08:51:20.165Z</time>
      </trkpt>
      <trkpt lat="45.17221" lon="5.93643">
        <ele>2025</ele>
        <time>2020-02-23T08:51:27.000Z</time>
      </trkpt>
      <trkpt lat="45.17215" lon="5.93645">
        <ele>2027</ele>
        <time>2020-02-23T08:51:34.229Z</time>
      </trkpt>
      <trkpt lat="45.1721" lon="5.93645">
        <ele>2026</ele>
        <time>2020-02-23T08:51:42.000Z</time>
      </trkpt>
      <trkpt lat="45.17205" lon="5.93646">
        <ele>2026</ele>
        <time>2020-02-23T08:51:49.000Z</time>
      </trkpt>
      <trkpt lat="45.17199" lon="5.93646">
        <ele>2025</ele>
        <time>2020-02-23T08:51:56.000Z</time>
      </trkpt>
      <trkpt lat="45.17195" lon="5.93645">
        <ele>2025</ele>
        <time>2020-02-23T08:52:07.000Z</time>
      </trkpt>
      <trkpt lat="45.1719" lon="5.93645">
        <ele>2025</ele>
        <time>2020-02-23T08:52:15.000Z</time>
      </trkpt>
      <trkpt lat="45.17184" lon="5.93641">
        <ele>2026</ele>
        <time>2020-02-23T08:52:24.790Z</time>
      </trkpt>
      <trkpt lat="45.17178" lon="5.93639">
        <ele>2027</ele>
        <time>2020-02-23T08:52:34.507Z</time>
      </trkpt>
      <trkpt lat="45.17173" lon="5.9364">
        <ele>2027</ele>
        <time>2020-02-23T08:52:41.868Z</time>
      </trkpt>
      <trkpt lat="45.17168" lon="5.93639">
        <ele>2028</ele>
        <time>2020-02-23T08:52:48.984Z</time>
      </trkpt>
      <trkpt lat="45.17164" lon="5.93635">
        <ele>2028</ele>
        <time>2020-02-23T08:52:56.227Z</time>
      </trkpt>
      <trkpt lat="45.17161" lon="5.93629">
        <ele>2030</ele>
        <time>2020-02-23T08:53:06.105Z</time>
      </trkpt>
      <trkpt lat="45.17156" lon="5.93625">
        <ele>2031</ele>
        <time>2020-02-23T08:53:16.888Z</time>
      </trkpt>
      <trkpt lat="45.17152" lon="5.93622">
        <ele>2031</ele>
        <time>2020-02-23T08:53:26.000Z</time>
      </trkpt>
      <trkpt lat="45.17148" lon="5.93616">
        <ele>2031</ele>
        <time>2020-02-23T08:53:38.000Z</time>
      </trkpt>
      <trkpt lat="45.17143" lon="5.93617">
        <ele>2035</ele>
        <time>2020-02-23T08:54:04.000Z</time>
      </trkpt>
      <trkpt lat="45.17139" lon="5.93615">
        <ele>2036</ele>
        <time>2020-02-23T08:54:42.000Z</time>
      </trkpt>
      <trkpt lat="45.17138" lon="5.93625">
        <ele>2032</ele>
        <time>2020-02-23T08:57:20.129Z</time>
      </trkpt>
      <trkpt lat="45.17137" lon="5.93635">
        <ele>2031</ele>
        <time>2020-02-23T08:57:27.179Z</time>
      </trkpt>
      <trkpt lat="45.17136" lon="5.93643">
        <ele>2030</ele>
        <time>2020-02-23T08:57:33.683Z</time>
      </trkpt>
      <trkpt lat="45.17135" lon="5.93651">
        <ele>2031</ele>
        <time>2020-02-23T08:57:40.179Z</time>
      </trkpt>
      <trkpt lat="45.17133" lon="5.93661">
        <ele>2033</ele>
        <time>2020-02-23T08:57:50.078Z</time>
      </trkpt>
      <trkpt lat="45.1713" lon="5.93669">
        <ele>2035</ele>
        <time>2020-02-23T08:57:59.958Z</time>
      </trkpt>
      <trkpt lat="45.17126" lon="5.93677">
        <ele>2036</ele>
        <time>2020-02-23T08:58:13.000Z</time>
      </trkpt>
      <trkpt lat="45.17122" lon="5.93682">
        <ele>2037</ele>
        <time>2020-02-23T08:58:19.000Z</time>
      </trkpt>
      <trkpt lat="45.17117" lon="5.9369">
        <ele>2039</ele>
        <time>2020-02-23T08:58:27.000Z</time>
      </trkpt>
      <trkpt lat="45.17113" lon="5.93693">
        <ele>2039</ele>
        <time>2020-02-23T08:58:31.585Z</time>
      </trkpt>
      <trkpt lat="45.17109" lon="5.93698">
        <ele>2041</ele>
        <time>2020-02-23T08:58:40.000Z</time>
      </trkpt>
      <trkpt lat="45.17105" lon="5.93702">
        <ele>2043</ele>
        <time>2020-02-23T08:58:48.997Z</time>
      </trkpt>
      <trkpt lat="45.171" lon="5.93708">
        <ele>2045</ele>
        <time>2020-02-23T08:59:38.438Z</time>
      </trkpt>
      <trkpt lat="45.17095" lon="5.93708">
        <ele>2045</ele>
        <time>2020-02-23T08:59:48.099Z</time>
      </trkpt>
      <trkpt lat="45.17091" lon="5.9371">
        <ele>2048</ele>
        <time>2020-02-23T08:59:54.725Z</time>
      </trkpt>
      <trkpt lat="45.17086" lon="5.93711">
        <ele>2046</ele>
        <time>2020-02-23T09:00:05.059Z</time>
      </trkpt>
      <trkpt lat="45.1708" lon="5.93714">
        <ele>2046</ele>
        <time>2020-02-23T09:00:24.182Z</time>
      </trkpt>
      <trkpt lat="45.17075" lon="5.93712">
        <ele>2049</ele>
        <time>2020-02-23T09:00:58.942Z</time>
      </trkpt>
      <trkpt lat="45.17073" lon="5.93718">
        <ele>2041</ele>
        <time>2020-02-23T09:01:40.000Z</time>
      </trkpt>
      <trkpt lat="45.17068" lon="5.93719">
        <ele>2041</ele>
        <time>2020-02-23T09:01:57.534Z</time>
      </trkpt>
      <trkpt lat="45.17064" lon="5.93723">
        <ele>2041</ele>
        <time>2020-02-23T09:02:12.000Z</time>
      </trkpt>
      <trkpt lat="45.17061" lon="5.93727">
        <ele>2041</ele>
        <time>2020-02-23T09:02:22.920Z</time>
      </trkpt>
      <trkpt lat="45.17056" lon="5.93728">
        <ele>2042</ele>
        <time>2020-02-23T09:02:37.000Z</time>
      </trkpt>
      <trkpt lat="45.17051" lon="5.93729">
        <ele>2038</ele>
        <time>2020-02-23T09:02:48.000Z</time>
      </trkpt>
      <trkpt lat="45.17046" lon="5.93728">
        <ele>2036</ele>
        <time>2020-02-23T09:03:14.414Z</time>
      </trkpt>
      <trkpt lat="45.1704" lon="5.93727">
        <ele>2037</ele>
        <time>2020-02-23T09:03:26.000Z</time>
      </trkpt>
      <trkpt lat="45.17034" lon="5.93729">
        <ele>2038</ele>
        <time>2020-02-23T09:03:34.000Z</time>
      </trkpt>
      <trkpt lat="45.1703" lon="5.93732">
        <ele>2041</ele>
        <time>2020-02-23T09:03:39.606Z</time>
      </trkpt>
      <trkpt lat="45.17026" lon="5.93735">
        <ele>2044</ele>
        <time>2020-02-23T09:03:47.066Z</time>
      </trkpt>
      <trkpt lat="45.1702" lon="5.93737">
        <ele>2044</ele>
        <time>2020-02-23T09:04:02.000Z</time>
      </trkpt>
      <trkpt lat="45.17016" lon="5.93739">
        <ele>2044</ele>
        <time>2020-02-23T09:04:09.079Z</time>
      </trkpt>
      <trkpt lat="45.17011" lon="5.9374">
        <ele>2046</ele>
        <time>2020-02-23T09:04:15.706Z</time>
      </trkpt>
      <trkpt lat="45.17005" lon="5.9374">
        <ele>2047</ele>
        <time>2020-02-23T09:04:31.000Z</time>
      </trkpt>
      <trkpt lat="45.17" lon="5.93742">
        <ele>2050</ele>
        <time>2020-02-23T09:04:40.755Z</time>
      </trkpt>
      <trkpt lat="45.16994" lon="5.93746">
        <ele>2049</ele>
        <time>2020-02-23T09:04:53.000Z</time>
      </trkpt>
      <trkpt lat="45.1699" lon="5.93747">
        <ele>2048</ele>
        <time>2020-02-23T09:05:03.000Z</time>
      </trkpt>
      <trkpt lat="45.16985" lon="5.93749">
        <ele>2049</ele>
        <time>2020-02-23T09:05:10.000Z</time>
      </trkpt>
      <trkpt lat="45.1698" lon="5.93751">
        <ele>2050</ele>
        <time>2020-02-23T09:05:17.000Z</time>
      </trkpt>
      <trkpt lat="45.16974" lon="5.93755">
        <ele>2049</ele>
        <time>2020-02-23T09:05:23.145Z</time>
      </trkpt>
      <trkpt lat="45.1697" lon="5.93758">
        <ele>2050</ele>
        <time>2020-02-23T09:05:30.085Z</time>
      </trkpt>
      <trkpt lat="45.16966" lon="5.93763">
        <ele>2052</ele>
        <time>2020-02-23T09:05:38.000Z</time>
      </trkpt>
      <trkpt lat="45.16961" lon="5.93766">
        <ele>2051</ele>
        <time>2020-02-23T09:05:46.456Z</time>
      </trkpt>
      <trkpt lat="45.16956" lon="5.93769">
        <ele>2053</ele>
        <time>2020-02-23T09:05:54.000Z</time>
      </trkpt>
      <trkpt lat="45.16951" lon="5.93772">
        <ele>2053</ele>
        <time>2020-02-23T09:06:01.059Z</time>
      </trkpt>
      <trkpt lat="45.16947" lon="5.93777">
        <ele>2053</ele>
        <time>2020-02-23T09:06:11.460Z</time>
      </trkpt>
      <trkpt lat="45.16944" lon="5.93781">
        <ele>2055</ele>
        <time>2020-02-23T09:06:18.294Z</time>
      </trkpt>
      <trkpt lat="45.1694" lon="5.93787">
        <ele>2057</ele>
        <time>2020-02-23T09:06:31.242Z</time>
      </trkpt>
      <trkpt lat="45.16937" lon="5.93793">
        <ele>2058</ele>
        <time>2020-02-23T09:06:42.000Z</time>
      </trkpt>
      <trkpt lat="45.16934" lon="5.93799">
        <ele>2058</ele>
        <time>2020-02-23T09:06:52.000Z</time>
      </trkpt>
      <trkpt lat="45.1693" lon="5.93804">
        <ele>2058</ele>
        <time>2020-02-23T09:07:03.000Z</time>
      </trkpt>
      <trkpt lat="45.16928" lon="5.93811">
        <ele>2061</ele>
        <time>2020-02-23T09:07:14.000Z</time>
      </trkpt>
      <trkpt lat="45.16925" lon="5.93819">
        <ele>2063</ele>
        <time>2020-02-23T09:07:24.000Z</time>
      </trkpt>
      <trkpt lat="45.16921" lon="5.93825">
        <ele>2063</ele>
        <time>2020-02-23T09:07:34.000Z</time>
      </trkpt>
      <trkpt lat="45.16919" lon="5.9383">
        <ele>2063</ele>
        <time>2020-02-23T09:07:41.000Z</time>
      </trkpt>
      <trkpt lat="45.16916" lon="5.93838">
        <ele>2064</ele>
        <time>2020-02-23T09:07:47.984Z</time>
      </trkpt>
      <trkpt lat="45.16913" lon="5.93843">
        <ele>2063</ele>
        <time>2020-02-23T09:07:55.000Z</time>
      </trkpt>
      <trkpt lat="45.16908" lon="5.93847">
        <ele>2065</ele>
        <time>2020-02-23T09:08:01.842Z</time>
      </trkpt>
      <trkpt lat="45.16903" lon="5.93853">
        <ele>2066</ele>
        <time>2020-02-23T09:08:13.000Z</time>
      </trkpt>
      <trkpt lat="45.16898" lon="5.9386">
        <ele>2067</ele>
        <time>2020-02-23T09:08:23.266Z</time>
      </trkpt>
      <trkpt lat="45.16894" lon="5.93864">
        <ele>2068</ele>
        <time>2020-02-23T09:08:31.000Z</time>
      </trkpt>
      <trkpt lat="45.16891" lon="5.93869">
        <ele>2068</ele>
        <time>2020-02-23T09:08:36.797Z</time>
      </trkpt>
      <trkpt lat="45.16886" lon="5.93875">
        <ele>2069</ele>
        <time>2020-02-23T09:08:43.994Z</time>
      </trkpt>
      <trkpt lat="45.16881" lon="5.9388">
        <ele>2070</ele>
        <time>2020-02-23T09:08:51.000Z</time>
      </trkpt>
      <trkpt lat="45.16877" lon="5.93883">
        <ele>2072</ele>
        <time>2020-02-23T09:08:58.000Z</time>
      </trkpt>
      <trkpt lat="45.16873" lon="5.93887">
        <ele>2073</ele>
        <time>2020-02-23T09:09:05.000Z</time>
      </trkpt>
      <trkpt lat="45.16868" lon="5.93894">
        <ele>2075</ele>
        <time>2020-02-23T09:09:11.603Z</time>
      </trkpt>
      <trkpt lat="45.16863" lon="5.93899">
        <ele>2075</ele>
        <time>2020-02-23T09:09:19.063Z</time>
      </trkpt>
      <trkpt lat="45.16858" lon="5.93903">
        <ele>2075</ele>
        <time>2020-02-23T09:09:25.629Z</time>
      </trkpt>
      <trkpt lat="45.16854" lon="5.93904">
        <ele>2074</ele>
        <time>2020-02-23T09:09:34.000Z</time>
      </trkpt>
      <trkpt lat="45.16849" lon="5.93905">
        <ele>2073</ele>
        <time>2020-02-23T09:09:40.671Z</time>
      </trkpt>
      <trkpt lat="45.16843" lon="5.93909">
        <ele>2075</ele>
        <time>2020-02-23T09:09:50.698Z</time>
      </trkpt>
      <trkpt lat="45.16837" lon="5.93912">
        <ele>2076</ele>
        <time>2020-02-23T09:10:01.462Z</time>
      </trkpt>
      <trkpt lat="45.16831" lon="5.93912">
        <ele>2075</ele>
        <time>2020-02-23T09:10:13.000Z</time>
      </trkpt>
      <trkpt lat="45.16825" lon="5.93913">
        <ele>2077</ele>
        <time>2020-02-23T09:10:23.000Z</time>
      </trkpt>
      <trkpt lat="45.16818" lon="5.93913">
        <ele>2076</ele>
        <time>2020-02-23T09:10:32.941Z</time>
      </trkpt>
      <trkpt lat="45.16813" lon="5.93909">
        <ele>2076</ele>
        <time>2020-02-23T09:10:42.778Z</time>
      </trkpt>
      <trkpt lat="45.16807" lon="5.93905">
        <ele>2077</ele>
        <time>2020-02-23T09:10:49.442Z</time>
      </trkpt>
      <trkpt lat="45.16803" lon="5.939">
        <ele>2079</ele>
        <time>2020-02-23T09:10:56.667Z</time>
      </trkpt>
      <trkpt lat="45.16797" lon="5.93894">
        <ele>2080</ele>
        <time>2020-02-23T09:11:07.319Z</time>
      </trkpt>
      <trkpt lat="45.16793" lon="5.93891">
        <ele>2083</ele>
        <time>2020-02-23T09:11:15.000Z</time>
      </trkpt>
      <trkpt lat="45.16788" lon="5.93884">
        <ele>2084</ele>
        <time>2020-02-23T09:11:21.297Z</time>
      </trkpt>
      <trkpt lat="45.16784" lon="5.9388">
        <ele>2084</ele>
        <time>2020-02-23T09:11:28.557Z</time>
      </trkpt>
      <trkpt lat="45.16779" lon="5.93885">
        <ele>2082</ele>
        <time>2020-02-23T09:11:38.678Z</time>
      </trkpt>
      <trkpt lat="45.16776" lon="5.93891">
        <ele>2086</ele>
        <time>2020-02-23T09:11:49.000Z</time>
      </trkpt>
      <trkpt lat="45.16773" lon="5.93896">
        <ele>2088</ele>
        <time>2020-02-23T09:12:34.000Z</time>
      </trkpt>
      <trkpt lat="45.16769" lon="5.93902">
        <ele>2095</ele>
        <time>2020-02-23T09:12:48.000Z</time>
      </trkpt>
      <trkpt lat="45.16765" lon="5.93906">
        <ele>2097</ele>
        <time>2020-02-23T09:12:55.054Z</time>
      </trkpt>
      <trkpt lat="45.16761" lon="5.93914">
        <ele>2099</ele>
        <time>2020-02-23T09:13:05.954Z</time>
      </trkpt>
      <trkpt lat="45.16759" lon="5.93921">
        <ele>2099</ele>
        <time>2020-02-23T09:13:18.000Z</time>
      </trkpt>
      <trkpt lat="45.16757" lon="5.93929">
        <ele>2106</ele>
        <time>2020-02-23T09:20:04.000Z</time>
      </trkpt>
      <trkpt lat="45.16755" lon="5.93936">
        <ele>2103</ele>
        <time>2020-02-23T09:20:12.470Z</time>
      </trkpt>
      <trkpt lat="45.16753" lon="5.93945">
        <ele>2105</ele>
        <time>2020-02-23T09:20:21.000Z</time>
      </trkpt>
      <trkpt lat="45.16752" lon="5.93954">
        <ele>2105</ele>
        <time>2020-02-23T09:20:26.189Z</time>
      </trkpt>
      <trkpt lat="45.16748" lon="5.93966">
        <ele>2104</ele>
        <time>2020-02-23T09:20:34.000Z</time>
      </trkpt>
      <trkpt lat="45.16746" lon="5.93974">
        <ele>2107</ele>
        <time>2020-02-23T09:20:41.000Z</time>
      </trkpt>
      <trkpt lat="45.16743" lon="5.93981">
        <ele>2108</ele>
        <time>2020-02-23T09:20:48.000Z</time>
      </trkpt>
      <trkpt lat="45.1674" lon="5.93986">
        <ele>2109</ele>
        <time>2020-02-23T09:20:55.000Z</time>
      </trkpt>
      <trkpt lat="45.16737" lon="5.93993">
        <ele>2108</ele>
        <time>2020-02-23T09:20:59.699Z</time>
      </trkpt>
      <trkpt lat="45.16734" lon="5.93998">
        <ele>2108</ele>
        <time>2020-02-23T09:21:08.000Z</time>
      </trkpt>
      <trkpt lat="45.16732" lon="5.94005">
        <ele>2108</ele>
        <time>2020-02-23T09:21:15.000Z</time>
      </trkpt>
      <trkpt lat="45.16729" lon="5.9401">
        <ele>2111</ele>
        <time>2020-02-23T09:21:50.000Z</time>
      </trkpt>
      <trkpt lat="45.16726" lon="5.94015">
        <ele>2113</ele>
        <time>2020-02-23T09:21:54.277Z</time>
      </trkpt>
      <trkpt lat="45.16723" lon="5.94021">
        <ele>2115</ele>
        <time>2020-02-23T09:22:03.000Z</time>
      </trkpt>
      <trkpt lat="45.16718" lon="5.9403">
        <ele>2116</ele>
        <time>2020-02-23T09:22:10.000Z</time>
      </trkpt>
      <trkpt lat="45.16714" lon="5.94037">
        <ele>2117</ele>
        <time>2020-02-23T09:22:15.276Z</time>
      </trkpt>
      <trkpt lat="45.1671" lon="5.94043">
        <ele>2118</ele>
        <time>2020-02-23T09:22:21.925Z</time>
      </trkpt>
      <trkpt lat="45.16708" lon="5.94048">
        <ele>2117</ele>
        <time>2020-02-23T09:22:31.000Z</time>
      </trkpt>
      <trkpt lat="45.16705" lon="5.94057">
        <ele>2115</ele>
        <time>2020-02-23T09:22:40.920Z</time>
      </trkpt>
      <trkpt lat="45.16703" lon="5.94064">
        <ele>2115</ele>
        <time>2020-02-23T09:22:52.000Z</time>
      </trkpt>
      <trkpt lat="45.167" lon="5.94072">
        <ele>2113</ele>
        <time>2020-02-23T09:23:02.000Z</time>
      </trkpt>
      <trkpt lat="45.16697" lon="5.94081">
        <ele>2110</ele>
        <time>2020-02-23T09:23:09.000Z</time>
      </trkpt>
      <trkpt lat="45.16692" lon="5.94089">
        <ele>2109</ele>
        <time>2020-02-23T09:23:16.000Z</time>
      </trkpt>
      <trkpt lat="45.16687" lon="5.94097">
        <ele>2109</ele>
        <time>2020-02-23T09:23:23.000Z</time>
      </trkpt>
      <trkpt lat="45.16684" lon="5.94102">
        <ele>2110</ele>
        <time>2020-02-23T09:23:25.295Z</time>
      </trkpt>
      <trkpt lat="45.16679" lon="5.94108">
        <ele>2110</ele>
        <time>2020-02-23T09:23:31.802Z</time>
      </trkpt>
      <trkpt lat="45.16675" lon="5.94115">
        <ele>2111</ele>
        <time>2020-02-23T09:23:40.000Z</time>
      </trkpt>
      <trkpt lat="45.16671" lon="5.94122">
        <ele>2112</ele>
        <time>2020-02-23T09:23:51.000Z</time>
      </trkpt>
      <trkpt lat="45.16664" lon="5.94126">
        <ele>2111</ele>
        <time>2020-02-23T09:23:58.000Z</time>
      </trkpt>
      <trkpt lat="45.16658" lon="5.94129">
        <ele>2112</ele>
        <time>2020-02-23T09:24:05.000Z</time>
      </trkpt>
      <trkpt lat="45.16651" lon="5.94133">
        <ele>2112</ele>
        <time>2020-02-23T09:24:12.000Z</time>
      </trkpt>
      <trkpt lat="45.16645" lon="5.94135">
        <ele>2112</ele>
        <time>2020-02-23T09:24:17.900Z</time>
      </trkpt>
      <trkpt lat="45.1664" lon="5.94138">
        <ele>2112</ele>
        <time>2020-02-23T09:24:26.000Z</time>
      </trkpt>
      <trkpt lat="45.16636" lon="5.9414">
        <ele>2112</ele>
        <time>2020-02-23T09:24:31.117Z</time>
      </trkpt>
      <trkpt lat="45.16631" lon="5.9414">
        <ele>2114</ele>
        <time>2020-02-23T09:24:39.000Z</time>
      </trkpt>
      <trkpt lat="45.16626" lon="5.9414">
        <ele>2116</ele>
        <time>2020-02-23T09:24:43.760Z</time>
      </trkpt>
      <trkpt lat="45.16621" lon="5.9414">
        <ele>2116</ele>
        <time>2020-02-23T09:24:52.000Z</time>
      </trkpt>
      <trkpt lat="45.16616" lon="5.9414">
        <ele>2117</ele>
        <time>2020-02-23T09:24:56.610Z</time>
      </trkpt>
      <trkpt lat="45.16611" lon="5.9414">
        <ele>2116</ele>
        <time>2020-02-23T09:25:08.000Z</time>
      </trkpt>
      <trkpt lat="45.16605" lon="5.94144">
        <ele>2116</ele>
        <time>2020-02-23T09:25:18.000Z</time>
      </trkpt>
      <trkpt lat="45.16599" lon="5.94147">
        <ele>2118</ele>
        <time>2020-02-23T09:25:29.000Z</time>
      </trkpt>
      <trkpt lat="45.16593" lon="5.94147">
        <ele>2118</ele>
        <time>2020-02-23T09:25:36.000Z</time>
      </trkpt>
      <trkpt lat="45.16588" lon="5.94147">
        <ele>2120</ele>
        <time>2020-02-23T09:25:41.439Z</time>
      </trkpt>
      <trkpt lat="45.16583" lon="5.94147">
        <ele>2122</ele>
        <time>2020-02-23T09:25:50.000Z</time>
      </trkpt>
      <trkpt lat="45.16578" lon="5.94148">
        <ele>2122</ele>
        <time>2020-02-23T09:25:58.274Z</time>
      </trkpt>
      <trkpt lat="45.16573" lon="5.94155">
        <ele>2128</ele>
        <time>2020-02-23T09:26:10.000Z</time>
      </trkpt>
      <trkpt lat="45.1657" lon="5.9416">
        <ele>2135</ele>
        <time>2020-02-23T09:26:17.000Z</time>
      </trkpt>
      <trkpt lat="45.16565" lon="5.94165">
        <ele>2141</ele>
        <time>2020-02-23T09:26:27.000Z</time>
      </trkpt>
      <trkpt lat="45.16561" lon="5.9417">
        <ele>2143</ele>
        <time>2020-02-23T09:26:36.090Z</time>
      </trkpt>
      <trkpt lat="45.16558" lon="5.94176">
        <ele>2146</ele>
        <time>2020-02-23T09:26:43.074Z</time>
      </trkpt>
      <trkpt lat="45.16554" lon="5.94185">
        <ele>2146</ele>
        <time>2020-02-23T09:26:49.774Z</time>
      </trkpt>
      <trkpt lat="45.1655" lon="5.94192">
        <ele>2146</ele>
        <time>2020-02-23T09:26:56.982Z</time>
      </trkpt>
      <trkpt lat="45.16547" lon="5.94197">
        <ele>2146</ele>
        <time>2020-02-23T09:27:03.677Z</time>
      </trkpt>
      <trkpt lat="45.16543" lon="5.94203">
        <ele>2146</ele>
        <time>2020-02-23T09:27:13.000Z</time>
      </trkpt>
      <trkpt lat="45.16541" lon="5.94211">
        <ele>2145</ele>
        <time>2020-02-23T09:27:17.979Z</time>
      </trkpt>
      <trkpt lat="45.16539" lon="5.94217">
        <ele>2146</ele>
        <time>2020-02-23T09:27:24.120Z</time>
      </trkpt>
      <trkpt lat="45.16536" lon="5.94225">
        <ele>2148</ele>
        <time>2020-02-23T09:27:32.000Z</time>
      </trkpt>
      <trkpt lat="45.16533" lon="5.94233">
        <ele>2151</ele>
        <time>2020-02-23T09:27:38.039Z</time>
      </trkpt>
      <trkpt lat="45.16531" lon="5.9424">
        <ele>2151</ele>
        <time>2020-02-23T09:27:46.000Z</time>
      </trkpt>
      <trkpt lat="45.1653" lon="5.94248">
        <ele>2152</ele>
        <time>2020-02-23T09:27:56.000Z</time>
      </trkpt>
      <trkpt lat="45.16531" lon="5.94255">
        <ele>2153</ele>
        <time>2020-02-23T09:28:00.741Z</time>
      </trkpt>
      <trkpt lat="45.16529" lon="5.94263">
        <ele>2155</ele>
        <time>2020-02-23T09:28:11.102Z</time>
      </trkpt>
      <trkpt lat="45.16525" lon="5.94262">
        <ele>2154</ele>
        <time>2020-02-23T09:28:21.809Z</time>
      </trkpt>
      <trkpt lat="45.1652" lon="5.94263">
        <ele>2150</ele>
        <time>2020-02-23T09:28:43.039Z</time>
      </trkpt>
      <trkpt lat="45.16516" lon="5.94267">
        <ele>2150</ele>
        <time>2020-02-23T09:28:55.000Z</time>
      </trkpt>
      <trkpt lat="45.16513" lon="5.94272">
        <ele>2147</ele>
        <time>2020-02-23T09:29:30.000Z</time>
      </trkpt>
      <trkpt lat="45.16507" lon="5.94276">
        <ele>2146</ele>
        <time>2020-02-23T09:29:35.857Z</time>
      </trkpt>
      <trkpt lat="45.16502" lon="5.9428">
        <ele>2149</ele>
        <time>2020-02-23T09:29:46.000Z</time>
      </trkpt>
      <trkpt lat="45.16498" lon="5.94284">
        <ele>2148</ele>
        <time>2020-02-23T09:29:51.894Z</time>
      </trkpt>
      <trkpt lat="45.16493" lon="5.94291">
        <ele>2144</ele>
        <time>2020-02-23T09:30:01.941Z</time>
      </trkpt>
      <trkpt lat="45.16489" lon="5.94299">
        <ele>2147</ele>
        <time>2020-02-23T09:30:13.000Z</time>
      </trkpt>
      <trkpt lat="45.16486" lon="5.94304">
        <ele>2149</ele>
        <time>2020-02-23T09:30:20.000Z</time>
      </trkpt>
      <trkpt lat="45.16484" lon="5.9431">
        <ele>2149</ele>
        <time>2020-02-23T09:30:27.000Z</time>
      </trkpt>
      <trkpt lat="45.16483" lon="5.94317">
        <ele>2147</ele>
        <time>2020-02-23T09:30:33.000Z</time>
      </trkpt>
      <trkpt lat="45.16481" lon="5.94323">
        <ele>2147</ele>
        <time>2020-02-23T09:30:40.000Z</time>
      </trkpt>
      <trkpt lat="45.16479" lon="5.94329">
        <ele>2151</ele>
        <time>2020-02-23T09:30:49.575Z</time>
      </trkpt>
      <trkpt lat="45.16475" lon="5.94334">
        <ele>2151</ele>
        <time>2020-02-23T09:30:58.000Z</time>
      </trkpt>
      <trkpt lat="45.16469" lon="5.94338">
        <ele>2151</ele>
        <time>2020-02-23T09:31:04.895Z</time>
      </trkpt>
      <trkpt lat="45.16463" lon="5.94338">
        <ele>2149</ele>
        <time>2020-02-23T09:31:11.698Z</time>
      </trkpt>
      <trkpt lat="45.16456" lon="5.94335">
        <ele>2145</ele>
        <time>2020-02-23T09:31:24.000Z</time>
      </trkpt>
      <trkpt lat="45.16452" lon="5.9433">
        <ele>2146</ele>
        <time>2020-02-23T09:31:29.313Z</time>
      </trkpt>
      <trkpt lat="45.16448" lon="5.94325">
        <ele>2146</ele>
        <time>2020-02-23T09:31:58.156Z</time>
      </trkpt>
      <trkpt lat="45.16443" lon="5.9432">
        <ele>2148</ele>
        <time>2020-02-23T09:32:13.000Z</time>
      </trkpt>
      <trkpt lat="45.16439" lon="5.94314">
        <ele>2145</ele>
        <time>2020-02-23T09:32:22.523Z</time>
      </trkpt>
      <trkpt lat="45.16435" lon="5.9431">
        <ele>2141</ele>
        <time>2020-02-23T09:32:32.897Z</time>
      </trkpt>
      <trkpt lat="45.16432" lon="5.94305">
        <ele>2146</ele>
        <time>2020-02-23T09:32:46.981Z</time>
      </trkpt>
      <trkpt lat="45.1643" lon="5.94298">
        <ele>2147</ele>
        <time>2020-02-23T09:32:57.119Z</time>
      </trkpt>
      <trkpt lat="45.16428" lon="5.94292">
        <ele>2151</ele>
        <time>2020-02-23T09:33:08.070Z</time>
      </trkpt>
      <trkpt lat="45.16425" lon="5.94287">
        <ele>2151</ele>
        <time>2020-02-23T09:33:23.000Z</time>
      </trkpt>
      <trkpt lat="45.1642" lon="5.94291">
        <ele>2157</ele>
        <time>2020-02-23T09:33:38.000Z</time>
      </trkpt>
      <trkpt lat="45.16417" lon="5.94296">
        <ele>2164</ele>
        <time>2020-02-23T09:33:52.000Z</time>
      </trkpt>
      <trkpt lat="45.16413" lon="5.94303">
        <ele>2168</ele>
        <time>2020-02-23T09:34:01.184Z</time>
      </trkpt>
      <trkpt lat="45.16412" lon="5.94313">
        <ele>2172</ele>
        <time>2020-02-23T09:34:13.000Z</time>
      </trkpt>
      <trkpt lat="45.16411" lon="5.94319">
        <ele>2173</ele>
        <time>2020-02-23T09:34:18.065Z</time>
      </trkpt>
      <trkpt lat="45.1641" lon="5.94325">
        <ele>2173</ele>
        <time>2020-02-23T09:34:32.060Z</time>
      </trkpt>
      <trkpt lat="45.16409" lon="5.94333">
        <ele>2176</ele>
        <time>2020-02-23T09:34:44.000Z</time>
      </trkpt>
      <trkpt lat="45.16411" lon="5.94339">
        <ele>2175</ele>
        <time>2020-02-23T09:34:54.000Z</time>
      </trkpt>
      <trkpt lat="45.16414" lon="5.94344">
        <ele>2178</ele>
        <time>2020-02-23T09:35:12.821Z</time>
      </trkpt>
      <trkpt lat="45.16416" lon="5.9435">
        <ele>2179</ele>
        <time>2020-02-23T09:35:24.000Z</time>
      </trkpt>
      <trkpt lat="45.16415" lon="5.94357">
        <ele>2177</ele>
        <time>2020-02-23T09:35:44.000Z</time>
      </trkpt>
      <trkpt lat="45.16416" lon="5.9435">
        <ele>2175</ele>
        <time>2020-02-23T09:36:00.254Z</time>
      </trkpt>
      <trkpt lat="45.16412" lon="5.94346">
        <ele>2174</ele>
        <time>2020-02-23T09:36:13.390Z</time>
      </trkpt>
      <trkpt lat="45.16412" lon="5.94353">
        <ele>2181</ele>
        <time>2020-02-23T09:36:27.397Z</time>
      </trkpt>
      <trkpt lat="45.16413" lon="5.94362">
        <ele>2187</ele>
        <time>2020-02-23T09:36:40.000Z</time>
      </trkpt>
      <trkpt lat="45.16413" lon="5.94369">
        <ele>2186</ele>
        <time>2020-02-23T09:36:44.797Z</time>
      </trkpt>
      <trkpt lat="45.16411" lon="5.94378">
        <ele>2187</ele>
        <time>2020-02-23T09:37:01.254Z</time>
      </trkpt>
      <trkpt lat="45.16414" lon="5.94374">
        <ele>2187</ele>
        <time>2020-02-23T09:37:41.000Z</time>
      </trkpt>
      <trkpt lat="45.16408" lon="5.94371">
        <ele>2182</ele>
        <time>2020-02-23T09:44:13.655Z</time>
      </trkpt>
      <trkpt lat="45.16403" lon="5.94369">
        <ele>2181</ele>
        <time>2020-02-23T09:44:25.000Z</time>
      </trkpt>
      <trkpt lat="45.16398" lon="5.94369">
        <ele>2179</ele>
        <time>2020-02-23T09:44:37.018Z</time>
      </trkpt>
      <trkpt lat="45.16396" lon="5.94376">
        <ele>2183</ele>
        <time>2020-02-23T09:44:46.915Z</time>
      </trkpt>
      <trkpt lat="45.16397" lon="5.94383">
        <ele>2188</ele>
        <time>2020-02-23T09:44:56.279Z</time>
      </trkpt>
      <trkpt lat="45.16397" lon="5.9439">
        <ele>2192</ele>
        <time>2020-02-23T09:45:04.133Z</time>
      </trkpt>
      <trkpt lat="45.16396" lon="5.944">
        <ele>2193</ele>
        <time>2020-02-23T09:45:14.456Z</time>
      </trkpt>
      <trkpt lat="45.16397" lon="5.94408">
        <ele>2195</ele>
        <time>2020-02-23T09:45:27.661Z</time>
      </trkpt>
      <trkpt lat="45.16399" lon="5.94414">
        <ele>2197</ele>
        <time>2020-02-23T09:45:44.000Z</time>
      </trkpt>
      <trkpt lat="45.16396" lon="5.94418">
        <ele>2196</ele>
        <time>2020-02-23T09:46:01.000Z</time>
      </trkpt>
      <trkpt lat="45.16391" lon="5.94417">
        <ele>2194</ele>
        <time>2020-02-23T09:46:08.000Z</time>
      </trkpt>
      <trkpt lat="45.16387" lon="5.94415">
        <ele>2194</ele>
        <time>2020-02-23T09:46:12.823Z</time>
      </trkpt>
      <trkpt lat="45.16386" lon="5.94422">
        <ele>2197</ele>
        <time>2020-02-23T09:46:25.000Z</time>
      </trkpt>
      <trkpt lat="45.16385" lon="5.9443">
        <ele>2199</ele>
        <time>2020-02-23T09:46:36.000Z</time>
      </trkpt>
      <trkpt lat="45.16384" lon="5.94437">
        <ele>2200</ele>
        <time>2020-02-23T09:46:42.000Z</time>
      </trkpt>
      <trkpt lat="45.16384" lon="5.94444">
        <ele>2203</ele>
        <time>2020-02-23T09:46:47.479Z</time>
      </trkpt>
      <trkpt lat="45.16386" lon="5.94452">
        <ele>2208</ele>
        <time>2020-02-23T09:47:03.000Z</time>
      </trkpt>
      <trkpt lat="45.16388" lon="5.94459">
        <ele>2210</ele>
        <time>2020-02-23T09:47:11.877Z</time>
      </trkpt>
      <trkpt lat="45.16387" lon="5.94468">
        <ele>2208</ele>
        <time>2020-02-23T09:47:22.144Z</time>
      </trkpt>
      <trkpt lat="45.16389" lon="5.94475">
        <ele>2209</ele>
        <time>2020-02-23T09:47:34.000Z</time>
      </trkpt>
      <trkpt lat="45.16389" lon="5.94482">
        <ele>2210</ele>
        <time>2020-02-23T09:47:39.973Z</time>
      </trkpt>
      <trkpt lat="45.16389" lon="5.94491">
        <ele>2212</ele>
        <time>2020-02-23T09:47:50.221Z</time>
      </trkpt>
      <trkpt lat="45.16393" lon="5.94498">
        <ele>2213</ele>
        <time>2020-02-23T09:48:00.000Z</time>
      </trkpt>
      <trkpt lat="45.16396" lon="5.94503">
        <ele>2214</ele>
        <time>2020-02-23T09:48:08.388Z</time>
      </trkpt>
      <trkpt lat="45.164" lon="5.94509">
        <ele>2216</ele>
        <time>2020-02-23T09:48:15.005Z</time>
      </trkpt>
      <trkpt lat="45.16403" lon="5.94515">
        <ele>2215</ele>
        <time>2020-02-23T09:48:22.088Z</time>
      </trkpt>
      <trkpt lat="45.16406" lon="5.9452">
        <ele>2214</ele>
        <time>2020-02-23T09:48:29.088Z</time>
      </trkpt>
      <trkpt lat="45.16408" lon="5.94525">
        <ele>2211</ele>
        <time>2020-02-23T09:48:37.000Z</time>
      </trkpt>
      <trkpt lat="45.16414" lon="5.9453">
        <ele>2209</ele>
        <time>2020-02-23T09:48:44.000Z</time>
      </trkpt>
      <trkpt lat="45.16419" lon="5.94534">
        <ele>2208</ele>
        <time>2020-02-23T09:48:51.000Z</time>
      </trkpt>
      <trkpt lat="45.16423" lon="5.94536">
        <ele>2207</ele>
        <time>2020-02-23T09:48:57.000Z</time>
      </trkpt>
      <trkpt lat="45.16429" lon="5.94537">
        <ele>2205</ele>
        <time>2020-02-23T09:49:02.479Z</time>
      </trkpt>
      <trkpt lat="45.16436" lon="5.94536">
        <ele>2205</ele>
        <time>2020-02-23T09:49:15.000Z</time>
      </trkpt>
      <trkpt lat="45.16441" lon="5.94536">
        <ele>2204</ele>
        <time>2020-02-23T09:49:21.000Z</time>
      </trkpt>
      <trkpt lat="45.16447" lon="5.94537">
        <ele>2206</ele>
        <time>2020-02-23T09:49:28.000Z</time>
      </trkpt>
      <trkpt lat="45.16453" lon="5.94538">
        <ele>2208</ele>
        <time>2020-02-23T09:49:33.279Z</time>
      </trkpt>
      <trkpt lat="45.16458" lon="5.94536">
        <ele>2207</ele>
        <time>2020-02-23T09:49:42.000Z</time>
      </trkpt>
      <trkpt lat="45.16464" lon="5.94534">
        <ele>2208</ele>
        <time>2020-02-23T09:49:50.482Z</time>
      </trkpt>
      <trkpt lat="45.16469" lon="5.94535">
        <ele>2211</ele>
        <time>2020-02-23T09:49:57.427Z</time>
      </trkpt>
      <trkpt lat="45.16474" lon="5.94539">
        <ele>2215</ele>
        <time>2020-02-23T09:50:09.000Z</time>
      </trkpt>
      <trkpt lat="45.16477" lon="5.94544">
        <ele>2217</ele>
        <time>2020-02-23T09:50:16.000Z</time>
      </trkpt>
      <trkpt lat="45.16481" lon="5.94548">
        <ele>2219</ele>
        <time>2020-02-23T09:50:27.000Z</time>
      </trkpt>
      <trkpt lat="45.16486" lon="5.94552">
        <ele>2224</ele>
        <time>2020-02-23T09:50:36.265Z</time>
      </trkpt>
      <trkpt lat="45.16491" lon="5.94556">
        <ele>2227</ele>
        <time>2020-02-23T09:50:52.000Z</time>
      </trkpt>
      <trkpt lat="45.16496" lon="5.94555">
        <ele>2228</ele>
        <time>2020-02-23T09:51:03.406Z</time>
      </trkpt>
      <trkpt lat="45.16501" lon="5.94557">
        <ele>2228</ele>
        <time>2020-02-23T09:51:15.859Z</time>
      </trkpt>
      <trkpt lat="45.165" lon="5.94564">
        <ele>2229</ele>
        <time>2020-02-23T09:51:36.259Z</time>
      </trkpt>
      <trkpt lat="45.16495" lon="5.94568">
        <ele>2228</ele>
        <time>2020-02-23T09:51:46.989Z</time>
      </trkpt>
      <trkpt lat="45.165" lon="5.94571">
        <ele>2232</ele>
        <time>2020-02-23T09:52:03.000Z</time>
      </trkpt>
      <trkpt lat="45.16507" lon="5.94569">
        <ele>2233</ele>
        <time>2020-02-23T09:52:10.000Z</time>
      </trkpt>
      <trkpt lat="45.16512" lon="5.94567">
        <ele>2235</ele>
        <time>2020-02-23T09:52:23.000Z</time>
      </trkpt>
      <trkpt lat="45.16511" lon="5.94576">
        <ele>2238</ele>
        <time>2020-02-23T09:52:44.000Z</time>
      </trkpt>
      <trkpt lat="45.16511" lon="5.94583">
        <ele>2240</ele>
        <time>2020-02-23T09:52:52.913Z</time>
      </trkpt>
      <trkpt lat="45.16518" lon="5.94586">
        <ele>2240</ele>
        <time>2020-02-23T09:53:02.552Z</time>
      </trkpt>
      <trkpt lat="45.16521" lon="5.94591">
        <ele>2242</ele>
        <time>2020-02-23T09:53:24.000Z</time>
      </trkpt>
      <trkpt lat="45.16523" lon="5.94599">
        <ele>2243</ele>
        <time>2020-02-23T09:53:34.000Z</time>
      </trkpt>
      <trkpt lat="45.16522" lon="5.94606">
        <ele>2246</ele>
        <time>2020-02-23T09:53:42.154Z</time>
      </trkpt>
      <trkpt lat="45.1652" lon="5.94613">
        <ele>2247</ele>
        <time>2020-02-23T09:53:56.000Z</time>
      </trkpt>
      <trkpt lat="45.16521" lon="5.9462">
        <ele>2247</ele>
        <time>2020-02-23T09:54:01.455Z</time>
      </trkpt>
      <trkpt lat="45.16523" lon="5.94627">
        <ele>2248</ele>
        <time>2020-02-23T09:54:08.003Z</time>
      </trkpt>
      <trkpt lat="45.16524" lon="5.94633">
        <ele>2247</ele>
        <time>2020-02-23T09:54:16.000Z</time>
      </trkpt>
      <trkpt lat="45.16527" lon="5.94641">
        <ele>2247</ele>
        <time>2020-02-23T09:54:21.278Z</time>
      </trkpt>
      <trkpt lat="45.16529" lon="5.94647">
        <ele>2246</ele>
        <time>2020-02-23T09:54:30.000Z</time>
      </trkpt>
      <trkpt lat="45.16531" lon="5.94654">
        <ele>2247</ele>
        <time>2020-02-23T09:54:37.000Z</time>
      </trkpt>
      <trkpt lat="45.16533" lon="5.94661">
        <ele>2247</ele>
        <time>2020-02-23T09:54:42.222Z</time>
      </trkpt>
      <trkpt lat="45.16533" lon="5.94671">
        <ele>2249</ele>
        <time>2020-02-23T09:56:38.000Z</time>
      </trkpt>
      <trkpt lat="45.16536" lon="5.94676">
        <ele>2252</ele>
        <time>2020-02-23T09:56:46.806Z</time>
      </trkpt>
      <trkpt lat="45.16539" lon="5.94683">
        <ele>2251</ele>
        <time>2020-02-23T09:56:55.000Z</time>
      </trkpt>
      <trkpt lat="45.16542" lon="5.94692">
        <ele>2252</ele>
        <time>2020-02-23T09:57:02.000Z</time>
      </trkpt>
      <trkpt lat="45.16544" lon="5.94698">
        <ele>2249</ele>
        <time>2020-02-23T09:57:13.000Z</time>
      </trkpt>
      <trkpt lat="45.16547" lon="5.94706">
        <ele>2249</ele>
        <time>2020-02-23T09:57:22.356Z</time>
      </trkpt>
      <trkpt lat="45.16549" lon="5.94715">
        <ele>2249</ele>
        <time>2020-02-23T09:57:32.931Z</time>
      </trkpt>
      <trkpt lat="45.16551" lon="5.94721">
        <ele>2253</ele>
        <time>2020-02-23T09:57:43.000Z</time>
      </trkpt>
      <trkpt lat="45.16552" lon="5.94729">
        <ele>2253</ele>
        <time>2020-02-23T09:57:51.000Z</time>
      </trkpt>
      <trkpt lat="45.16554" lon="5.94736">
        <ele>2255</ele>
        <time>2020-02-23T09:57:59.000Z</time>
      </trkpt>
      <trkpt lat="45.16559" lon="5.94745">
        <ele>2259</ele>
        <time>2020-02-23T09:58:09.000Z</time>
      </trkpt>
      <trkpt lat="45.16561" lon="5.94751">
        <ele>2260</ele>
        <time>2020-02-23T09:58:15.072Z</time>
      </trkpt>
      <trkpt lat="45.16566" lon="5.94757">
        <ele>2265</ele>
        <time>2020-02-23T09:58:27.000Z</time>
      </trkpt>
      <trkpt lat="45.1657" lon="5.94761">
        <ele>2266</ele>
        <time>2020-02-23T09:58:36.733Z</time>
      </trkpt>
      <trkpt lat="45.16576" lon="5.94766">
        <ele>2267</ele>
        <time>2020-02-23T09:58:48.000Z</time>
      </trkpt>
      <trkpt lat="45.1658" lon="5.94769">
        <ele>2269</ele>
        <time>2020-02-23T09:58:55.000Z</time>
      </trkpt>
      <trkpt lat="45.16582" lon="5.94775">
        <ele>2270</ele>
        <time>2020-02-23T09:59:02.000Z</time>
      </trkpt>
      <trkpt lat="45.16586" lon="5.94781">
        <ele>2272</ele>
        <time>2020-02-23T09:59:12.000Z</time>
      </trkpt>
      <trkpt lat="45.16589" lon="5.94789">
        <ele>2275</ele>
        <time>2020-02-23T09:59:21.000Z</time>
      </trkpt>
      <trkpt lat="45.16592" lon="5.94796">
        <ele>2276</ele>
        <time>2020-02-23T09:59:34.000Z</time>
      </trkpt>
      <trkpt lat="45.16596" lon="5.948">
        <ele>2279</ele>
        <time>2020-02-23T09:59:44.000Z</time>
      </trkpt>
      <trkpt lat="45.16596" lon="5.94808">
        <ele>2281</ele>
        <time>2020-02-23T09:59:56.890Z</time>
      </trkpt>
      <trkpt lat="45.16595" lon="5.94815">
        <ele>2280</ele>
        <time>2020-02-23T10:00:07.000Z</time>
      </trkpt>
      <trkpt lat="45.16593" lon="5.94822">
        <ele>2281</ele>
        <time>2020-02-23T10:00:12.974Z</time>
      </trkpt>
      <trkpt lat="45.16591" lon="5.94828">
        <ele>2282</ele>
        <time>2020-02-23T10:00:19.520Z</time>
      </trkpt>
      <trkpt lat="45.16588" lon="5.94836">
        <ele>2284</ele>
        <time>2020-02-23T10:00:31.000Z</time>
      </trkpt>
      <trkpt lat="45.16583" lon="5.9484">
        <ele>2287</ele>
        <time>2020-02-23T10:00:40.699Z</time>
      </trkpt>
      <trkpt lat="45.1658" lon="5.94848">
        <ele>2288</ele>
        <time>2020-02-23T10:00:57.995Z</time>
      </trkpt>
      <trkpt lat="45.16585" lon="5.94849">
        <ele>2289</ele>
        <time>2020-02-23T10:01:07.489Z</time>
      </trkpt>
      <trkpt lat="45.16591" lon="5.9485">
        <ele>2292</ele>
        <time>2020-02-23T10:01:14.124Z</time>
      </trkpt>
      <trkpt lat="45.16596" lon="5.94852">
        <ele>2291</ele>
        <time>2020-02-23T10:01:25.000Z</time>
      </trkpt>
      <trkpt lat="45.16595" lon="5.94858">
        <ele>2291</ele>
        <time>2020-02-23T10:01:36.000Z</time>
      </trkpt>
      <trkpt lat="45.16595" lon="5.94852">
        <ele>2291</ele>
        <time>2020-02-23T10:01:39.115Z</time>
      </trkpt>
      <trkpt lat="45.16591" lon="5.94851">
        <ele>2292</ele>
        <time>2020-02-23T10:01:52.555Z</time>
      </trkpt>
      <trkpt lat="45.16586" lon="5.94852">
        <ele>2295</ele>
        <time>2020-02-23T10:02:09.598Z</time>
      </trkpt>
      <trkpt lat="45.16581" lon="5.94853">
        <ele>2299</ele>
        <time>2020-02-23T10:02:20.183Z</time>
      </trkpt>
      <trkpt lat="45.16575" lon="5.94856">
        <ele>2301</ele>
        <time>2020-02-23T10:02:38.000Z</time>
      </trkpt>
      <trkpt lat="45.16571" lon="5.9486">
        <ele>2301</ele>
        <time>2020-02-23T10:02:47.214Z</time>
      </trkpt>
      <trkpt lat="45.16577" lon="5.94865">
        <ele>2300</ele>
        <time>2020-02-23T10:02:57.081Z</time>
      </trkpt>
      <trkpt lat="45.16583" lon="5.94863">
        <ele>2299</ele>
        <time>2020-02-23T10:03:00.941Z</time>
      </trkpt>
      <trkpt lat="45.16589" lon="5.94865">
        <ele>2299</ele>
        <time>2020-02-23T10:03:10.584Z</time>
      </trkpt>
      <trkpt lat="45.16594" lon="5.94864">
        <ele>2300</ele>
        <time>2020-02-23T10:03:22.000Z</time>
      </trkpt>
      <trkpt lat="45.16598" lon="5.94861">
        <ele>2301</ele>
        <time>2020-02-23T10:03:27.981Z</time>
      </trkpt>
      <trkpt lat="45.16602" lon="5.94859">
        <ele>2304</ele>
        <time>2020-02-23T10:03:38.000Z</time>
      </trkpt>
      <trkpt lat="45.16606" lon="5.94853">
        <ele>2307</ele>
        <time>2020-02-23T10:03:48.853Z</time>
      </trkpt>
      <trkpt lat="45.16611" lon="5.94854">
        <ele>2307</ele>
        <time>2020-02-23T10:03:59.061Z</time>
      </trkpt>
      <trkpt lat="45.16608" lon="5.94861">
        <ele>2306</ele>
        <time>2020-02-23T10:04:10.000Z</time>
      </trkpt>
      <trkpt lat="45.16602" lon="5.94865">
        <ele>2306</ele>
        <time>2020-02-23T10:04:12.711Z</time>
      </trkpt>
      <trkpt lat="45.16598" lon="5.94869">
        <ele>2307</ele>
        <time>2020-02-23T10:04:19.209Z</time>
      </trkpt>
      <trkpt lat="45.16594" lon="5.94873">
        <ele>2307</ele>
        <time>2020-02-23T10:04:29.100Z</time>
      </trkpt>
      <trkpt lat="45.1659" lon="5.94877">
        <ele>2312</ele>
        <time>2020-02-23T10:04:42.816Z</time>
      </trkpt>
      <trkpt lat="45.16586" lon="5.94882">
        <ele>2312</ele>
        <time>2020-02-23T10:05:01.000Z</time>
      </trkpt>
      <trkpt lat="45.16593" lon="5.94883">
        <ele>2311</ele>
        <time>2020-02-23T10:05:15.000Z</time>
      </trkpt>
      <trkpt lat="45.16599" lon="5.94882">
        <ele>2312</ele>
        <time>2020-02-23T10:05:25.010Z</time>
      </trkpt>
      <trkpt lat="45.16603" lon="5.94881">
        <ele>2312</ele>
        <time>2020-02-23T10:05:35.000Z</time>
      </trkpt>
      <trkpt lat="45.16601" lon="5.94887">
        <ele>2311</ele>
        <time>2020-02-23T10:05:45.670Z</time>
      </trkpt>
      <trkpt lat="45.16604" lon="5.94893">
        <ele>2312</ele>
        <time>2020-02-23T10:05:59.752Z</time>
      </trkpt>
      <trkpt lat="45.16605" lon="5.94899">
        <ele>2314</ele>
        <time>2020-02-23T10:06:20.749Z</time>
      </trkpt>
      <trkpt lat="45.16605" lon="5.94906">
        <ele>2315</ele>
        <time>2020-02-23T10:06:28.000Z</time>
      </trkpt>
      <trkpt lat="45.16606" lon="5.94914">
        <ele>2315</ele>
        <time>2020-02-23T10:06:33.664Z</time>
      </trkpt>
      <trkpt lat="45.16607" lon="5.9492">
        <ele>2318</ele>
        <time>2020-02-23T10:06:40.719Z</time>
      </trkpt>
      <trkpt lat="45.16613" lon="5.9492">
        <ele>2317</ele>
        <time>2020-02-23T10:06:50.275Z</time>
      </trkpt>
      <trkpt lat="45.16616" lon="5.94925">
        <ele>2318</ele>
        <time>2020-02-23T10:07:01.000Z</time>
      </trkpt>
      <trkpt lat="45.1662" lon="5.94929">
        <ele>2320</ele>
        <time>2020-02-23T10:12:44.000Z</time>
      </trkpt>
      <trkpt lat="45.16622" lon="5.94935">
        <ele>2317</ele>
        <time>2020-02-23T10:12:50.170Z</time>
      </trkpt>
      <trkpt lat="45.16627" lon="5.94941">
        <ele>2318</ele>
        <time>2020-02-23T10:12:57.654Z</time>
      </trkpt>
      <trkpt lat="45.16631" lon="5.94946">
        <ele>2317</ele>
        <time>2020-02-23T10:13:05.065Z</time>
      </trkpt>
      <trkpt lat="45.16636" lon="5.94951">
        <ele>2317</ele>
        <time>2020-02-23T10:13:12.000Z</time>
      </trkpt>
      <trkpt lat="45.1664" lon="5.94966">
        <ele>2318</ele>
        <time>2020-02-23T10:13:52.000Z</time>
      </trkpt>
      <trkpt lat="45.16641" lon="5.94975">
        <ele>2315</ele>
        <time>2020-02-23T10:13:55.000Z</time>
      </trkpt>
      <trkpt lat="45.16637" lon="5.94996">
        <ele>2313</ele>
        <time>2020-02-23T10:13:59.000Z</time>
      </trkpt>
      <trkpt lat="45.16635" lon="5.95003">
        <ele>2312</ele>
        <time>2020-02-23T10:14:03.000Z</time>
      </trkpt>
      <trkpt lat="45.1663" lon="5.95007">
        <ele>2312</ele>
        <time>2020-02-23T10:14:10.000Z</time>
      </trkpt>
      <trkpt lat="45.1662" lon="5.95012">
        <ele>2311</ele>
        <time>2020-02-23T10:14:13.233Z</time>
      </trkpt>
      <trkpt lat="45.16613" lon="5.95013">
        <ele>2311</ele>
        <time>2020-02-23T10:14:16.314Z</time>
      </trkpt>
      <trkpt lat="45.16606" lon="5.95012">
        <ele>2312</ele>
        <time>2020-02-23T10:14:22.789Z</time>
      </trkpt>
      <trkpt lat="45.16599" lon="5.95011">
        <ele>2310</ele>
        <time>2020-02-23T10:14:38.000Z</time>
      </trkpt>
      <trkpt lat="45.16593" lon="5.95014">
        <ele>2311</ele>
        <time>2020-02-23T10:14:47.349Z</time>
      </trkpt>
      <trkpt lat="45.16588" lon="5.95016">
        <ele>2311</ele>
        <time>2020-02-23T10:14:53.726Z</time>
      </trkpt>
      <trkpt lat="45.16583" lon="5.9502">
        <ele>2309</ele>
        <time>2020-02-23T10:15:16.355Z</time>
      </trkpt>
      <trkpt lat="45.16579" lon="5.95026">
        <ele>2306</ele>
        <time>2020-02-23T10:15:38.745Z</time>
      </trkpt>
      <trkpt lat="45.16576" lon="5.95034">
        <ele>2304</ele>
        <time>2020-02-23T10:15:45.379Z</time>
      </trkpt>
      <trkpt lat="45.16573" lon="5.9504">
        <ele>2303</ele>
        <time>2020-02-23T10:15:49.000Z</time>
      </trkpt>
      <trkpt lat="45.16569" lon="5.95047">
        <ele>2300</ele>
        <time>2020-02-23T10:15:56.000Z</time>
      </trkpt>
      <trkpt lat="45.16566" lon="5.95058">
        <ele>2300</ele>
        <time>2020-02-23T10:16:01.636Z</time>
      </trkpt>
      <trkpt lat="45.16563" lon="5.95068">
        <ele>2296</ele>
        <time>2020-02-23T10:16:08.119Z</time>
      </trkpt>
      <trkpt lat="45.16563" lon="5.95077">
        <ele>2295</ele>
        <time>2020-02-23T10:16:14.678Z</time>
      </trkpt>
      <trkpt lat="45.16564" lon="5.95084">
        <ele>2294</ele>
        <time>2020-02-23T10:16:19.000Z</time>
      </trkpt>
      <trkpt lat="45.16566" lon="5.95094">
        <ele>2294</ele>
        <time>2020-02-23T10:16:24.669Z</time>
      </trkpt>
      <trkpt lat="45.16568" lon="5.95103">
        <ele>2295</ele>
        <time>2020-02-23T10:16:32.000Z</time>
      </trkpt>
      <trkpt lat="45.16569" lon="5.95113">
        <ele>2295</ele>
        <time>2020-02-23T10:16:39.000Z</time>
      </trkpt>
      <trkpt lat="45.16568" lon="5.95122">
        <ele>2295</ele>
        <time>2020-02-23T10:16:46.000Z</time>
      </trkpt>
      <trkpt lat="45.16565" lon="5.95132">
        <ele>2295</ele>
        <time>2020-02-23T10:16:52.000Z</time>
      </trkpt>
      <trkpt lat="45.16563" lon="5.9514">
        <ele>2296</ele>
        <time>2020-02-23T10:16:58.397Z</time>
      </trkpt>
      <trkpt lat="45.1656" lon="5.95152">
        <ele>2298</ele>
        <time>2020-02-23T10:17:05.812Z</time>
      </trkpt>
      <trkpt lat="45.16558" lon="5.95158">
        <ele>2298</ele>
        <time>2020-02-23T10:17:10.000Z</time>
      </trkpt>
      <trkpt lat="45.16555" lon="5.95165">
        <ele>2302</ele>
        <time>2020-02-23T10:17:17.000Z</time>
      </trkpt>
      <trkpt lat="45.16554" lon="5.95173">
        <ele>2302</ele>
        <time>2020-02-23T10:17:57.000Z</time>
      </trkpt>
      <trkpt lat="45.16552" lon="5.95179">
        <ele>2304</ele>
        <time>2020-02-23T10:18:55.579Z</time>
      </trkpt>
      <trkpt lat="45.16551" lon="5.95188">
        <ele>2306</ele>
        <time>2020-02-23T10:19:10.000Z</time>
      </trkpt>
      <trkpt lat="45.16552" lon="5.95194">
        <ele>2311</ele>
        <time>2020-02-23T10:19:27.000Z</time>
      </trkpt>
      <trkpt lat="45.16548" lon="5.95191">
        <ele>2318</ele>
        <time>2020-02-23T10:20:08.000Z</time>
      </trkpt>
      <trkpt lat="45.16547" lon="5.95198">
        <ele>2319</ele>
        <time>2020-02-23T10:20:27.298Z</time>
      </trkpt>
      <trkpt lat="45.16551" lon="5.95202">
        <ele>2321</ele>
        <time>2020-02-23T10:20:41.000Z</time>
      </trkpt>
      <trkpt lat="45.16549" lon="5.95196">
        <ele>2326</ele>
        <time>2020-02-23T10:21:19.155Z</time>
      </trkpt>
      <trkpt lat="45.16546" lon="5.95202">
        <ele>2327</ele>
        <time>2020-02-23T10:21:33.164Z</time>
      </trkpt>
      <trkpt lat="45.16549" lon="5.95208">
        <ele>2326</ele>
        <time>2020-02-23T10:22:02.000Z</time>
      </trkpt>
      <trkpt lat="45.16544" lon="5.95205">
        <ele>2329</ele>
        <time>2020-02-23T10:22:58.215Z</time>
      </trkpt>
      <trkpt lat="45.1654" lon="5.95206">
        <ele>2329</ele>
        <time>2020-02-23T10:23:13.000Z</time>
      </trkpt>
      <trkpt lat="45.16535" lon="5.95205">
        <ele>2329</ele>
        <time>2020-02-23T10:23:30.000Z</time>
      </trkpt>
      <trkpt lat="45.16547" lon="5.9521">
        <ele>2334</ele>
        <time>2020-02-23T10:23:45.971Z</time>
      </trkpt>
      <trkpt lat="45.16552" lon="5.95208">
        <ele>2336</ele>
        <time>2020-02-23T10:23:59.808Z</time>
      </trkpt>
      <trkpt lat="45.1655" lon="5.95216">
        <ele>2336</ele>
        <time>2020-02-23T10:24:58.000Z</time>
      </trkpt>
      <trkpt lat="45.1655" lon="5.95223">
        <ele>2336</ele>
        <time>2020-02-23T10:25:14.694Z</time>
      </trkpt>
      <trkpt lat="45.16552" lon="5.9523">
        <ele>2337</ele>
        <time>2020-02-23T10:25:26.000Z</time>
      </trkpt>
      <trkpt lat="45.16553" lon="5.95236">
        <ele>2338</ele>
        <time>2020-02-23T10:25:45.977Z</time>
      </trkpt>
      <trkpt lat="45.16556" lon="5.95242">
        <ele>2337</ele>
        <time>2020-02-23T10:26:08.000Z</time>
      </trkpt>
      <trkpt lat="45.16556" lon="5.95252">
        <ele>2332</ele>
        <time>2020-02-23T10:26:18.053Z</time>
      </trkpt>
      <trkpt lat="45.16554" lon="5.95258">
        <ele>2332</ele>
        <time>2020-02-23T10:26:50.000Z</time>
      </trkpt>
      <trkpt lat="45.16551" lon="5.95265">
        <ele>2337</ele>
        <time>2020-02-23T10:27:01.779Z</time>
      </trkpt>
      <trkpt lat="45.16553" lon="5.95273">
        <ele>2339</ele>
        <time>2020-02-23T10:27:23.000Z</time>
      </trkpt>
      <trkpt lat="45.16554" lon="5.9528">
        <ele>2350</ele>
        <time>2020-02-23T10:27:49.000Z</time>
      </trkpt>
      <trkpt lat="45.16548" lon="5.95281">
        <ele>2349</ele>
        <time>2020-02-23T10:27:54.773Z</time>
      </trkpt>
      <trkpt lat="45.16544" lon="5.95279">
        <ele>2350</ele>
        <time>2020-02-23T10:28:18.000Z</time>
      </trkpt>
      <trkpt lat="45.16539" lon="5.95281">
        <ele>2352</ele>
        <time>2020-02-23T10:28:30.324Z</time>
      </trkpt>
      <trkpt lat="45.16534" lon="5.95281">
        <ele>2353</ele>
        <time>2020-02-23T10:28:38.000Z</time>
      </trkpt>
      <trkpt lat="45.16529" lon="5.9528">
        <ele>2356</ele>
        <time>2020-02-23T10:28:45.000Z</time>
      </trkpt>
      <trkpt lat="45.16524" lon="5.95278">
        <ele>2359</ele>
        <time>2020-02-23T10:28:56.000Z</time>
      </trkpt>
      <trkpt lat="45.1652" lon="5.95281">
        <ele>2360</ele>
        <time>2020-02-23T10:29:09.293Z</time>
      </trkpt>
      <trkpt lat="45.16521" lon="5.95289">
        <ele>2360</ele>
        <time>2020-02-23T10:29:23.000Z</time>
      </trkpt>
      <trkpt lat="45.16524" lon="5.95298">
        <ele>2364</ele>
        <time>2020-02-23T10:29:36.306Z</time>
      </trkpt>
      <trkpt lat="45.16529" lon="5.95304">
        <ele>2363</ele>
        <time>2020-02-23T10:29:40.207Z</time>
      </trkpt>
      <trkpt lat="45.16533" lon="5.95311">
        <ele>2366</ele>
        <time>2020-02-23T10:29:46.426Z</time>
      </trkpt>
      <trkpt lat="45.16536" lon="5.95316">
        <ele>2368</ele>
        <time>2020-02-23T10:29:54.000Z</time>
      </trkpt>
      <trkpt lat="45.1654" lon="5.95323">
        <ele>2373</ele>
        <time>2020-02-23T10:30:05.000Z</time>
      </trkpt>
      <trkpt lat="45.16545" lon="5.95325">
        <ele>2375</ele>
        <time>2020-02-23T10:30:22.000Z</time>
      </trkpt>
      <trkpt lat="45.16548" lon="5.9533">
        <ele>2374</ele>
        <time>2020-02-23T10:30:37.736Z</time>
      </trkpt>
      <trkpt lat="45.16551" lon="5.95336">
        <ele>2376</ele>
        <time>2020-02-23T10:30:47.339Z</time>
      </trkpt>
      <trkpt lat="45.16553" lon="5.95344">
        <ele>2377</ele>
        <time>2020-02-23T10:30:57.074Z</time>
      </trkpt>
      <trkpt lat="45.16553" lon="5.95353">
        <ele>2379</ele>
        <time>2020-02-23T10:31:06.621Z</time>
      </trkpt>
      <trkpt lat="45.16555" lon="5.95362">
        <ele>2387</ele>
        <time>2020-02-23T10:31:17.762Z</time>
      </trkpt>
      <trkpt lat="45.16555" lon="5.95355">
        <ele>2398</ele>
        <time>2020-02-23T10:32:00.100Z</time>
      </trkpt>
      <trkpt lat="45.16551" lon="5.95351">
        <ele>2402</ele>
        <time>2020-02-23T10:32:18.000Z</time>
      </trkpt>
      <trkpt lat="45.16545" lon="5.95353">
        <ele>2404</ele>
        <time>2020-02-23T10:32:31.000Z</time>
      </trkpt>
      <trkpt lat="45.1654" lon="5.95348">
        <ele>2410</ele>
        <time>2020-02-23T10:32:50.000Z</time>
      </trkpt>
      <trkpt lat="45.16534" lon="5.95347">
        <ele>2409</ele>
        <time>2020-02-23T10:33:05.519Z</time>
      </trkpt>
      <trkpt lat="45.1653" lon="5.9535">
        <ele>2412</ele>
        <time>2020-02-23T10:33:21.000Z</time>
      </trkpt>
      <trkpt lat="45.16531" lon="5.95361">
        <ele>2411</ele>
        <time>2020-02-23T10:33:36.731Z</time>
      </trkpt>
      <trkpt lat="45.16529" lon="5.95368">
        <ele>2411</ele>
        <time>2020-02-23T10:33:40.330Z</time>
      </trkpt>
      <trkpt lat="45.16526" lon="5.95374">
        <ele>2411</ele>
        <time>2020-02-23T10:33:48.000Z</time>
      </trkpt>
      <trkpt lat="45.16524" lon="5.95383">
        <ele>2413</ele>
        <time>2020-02-23T10:47:03.038Z</time>
      </trkpt>
      <trkpt lat="45.16523" lon="5.95392">
        <ele>2414</ele>
        <time>2020-02-23T10:47:11.000Z</time>
      </trkpt>
      <trkpt lat="45.16522" lon="5.954">
        <ele>2414</ele>
        <time>2020-02-23T10:47:18.000Z</time>
      </trkpt>
      <trkpt lat="45.16524" lon="5.95408">
        <ele>2415</ele>
        <time>2020-02-23T10:47:28.000Z</time>
      </trkpt>
      <trkpt lat="45.16525" lon="5.95416">
        <ele>2418</ele>
        <time>2020-02-23T10:47:37.001Z</time>
      </trkpt>
      <trkpt lat="45.16525" lon="5.95425">
        <ele>2418</ele>
        <time>2020-02-23T10:47:49.536Z</time>
      </trkpt>
      <trkpt lat="45.16526" lon="5.95433">
        <ele>2417</ele>
        <time>2020-02-23T10:48:00.498Z</time>
      </trkpt>
      <trkpt lat="45.16525" lon="5.9544">
        <ele>2419</ele>
        <time>2020-02-23T10:48:14.277Z</time>
      </trkpt>
      <trkpt lat="45.16522" lon="5.95446">
        <ele>2419</ele>
        <time>2020-02-23T10:48:27.082Z</time>
      </trkpt>
      <trkpt lat="45.16528" lon="5.9545">
        <ele>2421</ele>
        <time>2020-02-23T10:48:36.980Z</time>
      </trkpt>
      <trkpt lat="45.16533" lon="5.95449">
        <ele>2425</ele>
        <time>2020-02-23T10:48:45.000Z</time>
      </trkpt>
      <trkpt lat="45.16538" lon="5.95448">
        <ele>2427</ele>
        <time>2020-02-23T10:48:50.402Z</time>
      </trkpt>
      <trkpt lat="45.16543" lon="5.95449">
        <ele>2427</ele>
        <time>2020-02-23T10:48:57.246Z</time>
      </trkpt>
      <trkpt lat="45.1655" lon="5.95452">
        <ele>2429</ele>
        <time>2020-02-23T10:49:10.162Z</time>
      </trkpt>
      <trkpt lat="45.16556" lon="5.9545">
        <ele>2431</ele>
        <time>2020-02-23T10:49:22.000Z</time>
      </trkpt>
      <trkpt lat="45.16561" lon="5.95447">
        <ele>2431</ele>
        <time>2020-02-23T10:49:30.049Z</time>
      </trkpt>
      <trkpt lat="45.16565" lon="5.95452">
        <ele>2433</ele>
        <time>2020-02-23T10:50:08.678Z</time>
      </trkpt>
      <trkpt lat="45.16564" lon="5.95458">
        <ele>2436</ele>
        <time>2020-02-23T10:50:19.012Z</time>
      </trkpt>
      <trkpt lat="45.16562" lon="5.95465">
        <ele>2437</ele>
        <time>2020-02-23T10:50:26.733Z</time>
      </trkpt>
      <trkpt lat="45.16563" lon="5.95471">
        <ele>2437</ele>
        <time>2020-02-23T10:50:33.078Z</time>
      </trkpt>
      <trkpt lat="45.16571" lon="5.95469">
        <ele>2440</ele>
        <time>2020-02-23T10:50:48.000Z</time>
      </trkpt>
      <trkpt lat="45.16575" lon="5.95464">
        <ele>2441</ele>
        <time>2020-02-23T10:50:57.130Z</time>
      </trkpt>
      <trkpt lat="45.16575" lon="5.95472">
        <ele>2437</ele>
        <time>2020-02-23T10:51:13.489Z</time>
      </trkpt>
      <trkpt lat="45.16576" lon="5.95478">
        <ele>2438</ele>
        <time>2020-02-23T10:51:20.387Z</time>
      </trkpt>
      <trkpt lat="45.16574" lon="5.95486">
        <ele>2442</ele>
        <time>2020-02-23T10:51:30.920Z</time>
      </trkpt>
      <trkpt lat="45.16572" lon="5.95493">
        <ele>2443</ele>
        <time>2020-02-23T10:51:46.000Z</time>
      </trkpt>
      <trkpt lat="45.16571" lon="5.95502">
        <ele>2446</ele>
        <time>2020-02-23T10:51:55.294Z</time>
      </trkpt>
      <trkpt lat="45.16571" lon="5.95509">
        <ele>2449</ele>
        <time>2020-02-23T10:52:14.000Z</time>
      </trkpt>
      <trkpt lat="45.1657" lon="5.95516">
        <ele>2448</ele>
        <time>2020-02-23T10:52:21.000Z</time>
      </trkpt>
      <trkpt lat="45.16571" lon="5.95524">
        <ele>2452</ele>
        <time>2020-02-23T10:52:32.000Z</time>
      </trkpt>
      <trkpt lat="45.16574" lon="5.95531">
        <ele>2454</ele>
        <time>2020-02-23T10:52:46.000Z</time>
      </trkpt>
      <trkpt lat="45.16579" lon="5.9553">
        <ele>2460</ele>
        <time>2020-02-23T10:53:09.279Z</time>
      </trkpt>
      <trkpt lat="45.16584" lon="5.95526">
        <ele>2462</ele>
        <time>2020-02-23T10:53:16.314Z</time>
      </trkpt>
      <trkpt lat="45.16587" lon="5.95522">
        <ele>2463</ele>
        <time>2020-02-23T10:53:19.447Z</time>
      </trkpt>
      <trkpt lat="45.16591" lon="5.95518">
        <ele>2464</ele>
        <time>2020-02-23T10:53:24.000Z</time>
      </trkpt>
      <trkpt lat="45.16597" lon="5.95514">
        <ele>2466</ele>
        <time>2020-02-23T10:53:30.385Z</time>
      </trkpt>
      <trkpt lat="45.16602" lon="5.9551">
        <ele>2468</ele>
        <time>2020-02-23T10:53:42.000Z</time>
      </trkpt>
      <trkpt lat="45.16606" lon="5.95506">
        <ele>2469</ele>
        <time>2020-02-23T10:53:52.000Z</time>
      </trkpt>
      <trkpt lat="45.16609" lon="5.95501">
        <ele>2472</ele>
        <time>2020-02-23T10:53:59.000Z</time>
      </trkpt>
      <trkpt lat="45.16612" lon="5.95495">
        <ele>2475</ele>
        <time>2020-02-23T10:54:17.550Z</time>
      </trkpt>
      <trkpt lat="45.16614" lon="5.9549">
        <ele>2476</ele>
        <time>2020-02-23T10:54:32.860Z</time>
      </trkpt>
      <trkpt lat="45.16615" lon="5.95484">
        <ele>2477</ele>
        <time>2020-02-23T10:54:53.000Z</time>
      </trkpt>
      <trkpt lat="45.16619" lon="5.95491">
        <ele>2471</ele>
        <time>2020-02-23T10:55:05.737Z</time>
      </trkpt>
      <trkpt lat="45.16622" lon="5.955">
        <ele>2468</ele>
        <time>2020-02-23T10:55:17.000Z</time>
      </trkpt>
      <trkpt lat="45.16623" lon="5.95508">
        <ele>2466</ele>
        <time>2020-02-23T10:55:23.776Z</time>
      </trkpt>
      <trkpt lat="45.16623" lon="5.95515">
        <ele>2467</ele>
        <time>2020-02-23T10:55:34.000Z</time>
      </trkpt>
      <trkpt lat="45.16622" lon="5.95522">
        <ele>2467</ele>
        <time>2020-02-23T10:55:43.942Z</time>
      </trkpt>
      <trkpt lat="45.16622" lon="5.95529">
        <ele>2469</ele>
        <time>2020-02-23T10:55:50.964Z</time>
      </trkpt>
      <trkpt lat="45.16622" lon="5.95536">
        <ele>2471</ele>
        <time>2020-02-23T10:56:00.585Z</time>
      </trkpt>
      <trkpt lat="45.16621" lon="5.95542">
        <ele>2473</ele>
        <time>2020-02-23T10:56:10.722Z</time>
      </trkpt>
      <trkpt lat="45.16626" lon="5.95546">
        <ele>2478</ele>
        <time>2020-02-23T10:56:38.000Z</time>
      </trkpt>
      <trkpt lat="45.1663" lon="5.95542">
        <ele>2480</ele>
        <time>2020-02-23T10:56:45.000Z</time>
      </trkpt>
      <trkpt lat="45.16631" lon="5.95535">
        <ele>2479</ele>
        <time>2020-02-23T10:56:59.000Z</time>
      </trkpt>
      <trkpt lat="45.1663" lon="5.95543">
        <ele>2481</ele>
        <time>2020-02-23T10:57:11.927Z</time>
      </trkpt>
      <trkpt lat="45.1663" lon="5.95551">
        <ele>2485</ele>
        <time>2020-02-23T10:57:21.785Z</time>
      </trkpt>
      <trkpt lat="45.16629" lon="5.95557">
        <ele>2491</ele>
        <time>2020-02-23T10:57:32.032Z</time>
      </trkpt>
      <trkpt lat="45.16634" lon="5.95562">
        <ele>2492</ele>
        <time>2020-02-23T10:57:42.536Z</time>
      </trkpt>
      <trkpt lat="45.16639" lon="5.95563">
        <ele>2495</ele>
        <time>2020-02-23T10:57:50.452Z</time>
      </trkpt>
      <trkpt lat="45.16644" lon="5.95559">
        <ele>2496</ele>
        <time>2020-02-23T10:58:00.375Z</time>
      </trkpt>
      <trkpt lat="45.16648" lon="5.95555">
        <ele>2498</ele>
        <time>2020-02-23T10:58:08.000Z</time>
      </trkpt>
      <trkpt lat="45.16652" lon="5.9555">
        <ele>2500</ele>
        <time>2020-02-23T10:58:18.000Z</time>
      </trkpt>
      <trkpt lat="45.16651" lon="5.95558">
        <ele>2496</ele>
        <time>2020-02-23T10:58:35.078Z</time>
      </trkpt>
      <trkpt lat="45.16651" lon="5.95566">
        <ele>2498</ele>
        <time>2020-02-23T10:58:47.000Z</time>
      </trkpt>
      <trkpt lat="45.1665" lon="5.95575">
        <ele>2503</ele>
        <time>2020-02-23T10:59:02.000Z</time>
      </trkpt>
      <trkpt lat="45.16656" lon="5.95579">
        <ele>2503</ele>
        <time>2020-02-23T10:59:12.000Z</time>
      </trkpt>
      <trkpt lat="45.1666" lon="5.95576">
        <ele>2507</ele>
        <time>2020-02-23T10:59:22.000Z</time>
      </trkpt>
      <trkpt lat="45.16664" lon="5.95573">
        <ele>2509</ele>
        <time>2020-02-23T10:59:36.000Z</time>
      </trkpt>
      <trkpt lat="45.16671" lon="5.95568">
        <ele>2511</ele>
        <time>2020-02-23T10:59:45.992Z</time>
      </trkpt>
      <trkpt lat="45.16674" lon="5.95563">
        <ele>2513</ele>
        <time>2020-02-23T10:59:54.000Z</time>
      </trkpt>
      <trkpt lat="45.16677" lon="5.95571">
        <ele>2510</ele>
        <time>2020-02-23T11:00:07.420Z</time>
      </trkpt>
      <trkpt lat="45.16678" lon="5.95577">
        <ele>2510</ele>
        <time>2020-02-23T11:00:15.000Z</time>
      </trkpt>
      <trkpt lat="45.16678" lon="5.95585">
        <ele>2510</ele>
        <time>2020-02-23T11:00:23.000Z</time>
      </trkpt>
      <trkpt lat="45.16677" lon="5.95592">
        <ele>2511</ele>
        <time>2020-02-23T11:00:38.000Z</time>
      </trkpt>
      <trkpt lat="45.16682" lon="5.95593">
        <ele>2510</ele>
        <time>2020-02-23T11:00:44.000Z</time>
      </trkpt>
      <trkpt lat="45.16687" lon="5.95592">
        <ele>2512</ele>
        <time>2020-02-23T11:01:04.196Z</time>
      </trkpt>
      <trkpt lat="45.16692" lon="5.95589">
        <ele>2514</ele>
        <time>2020-02-23T11:01:10.990Z</time>
      </trkpt>
      <trkpt lat="45.16697" lon="5.95587">
        <ele>2516</ele>
        <time>2020-02-23T11:01:17.397Z</time>
      </trkpt>
      <trkpt lat="45.16701" lon="5.95583">
        <ele>2520</ele>
        <time>2020-02-23T11:01:25.037Z</time>
      </trkpt>
      <trkpt lat="45.16703" lon="5.9559">
        <ele>2519</ele>
        <time>2020-02-23T11:01:42.150Z</time>
      </trkpt>
      <trkpt lat="45.16704" lon="5.95597">
        <ele>2524</ele>
        <time>2020-02-23T11:01:53.095Z</time>
      </trkpt>
      <trkpt lat="45.16703" lon="5.95604">
        <ele>2527</ele>
        <time>2020-02-23T11:02:03.452Z</time>
      </trkpt>
      <trkpt lat="45.16707" lon="5.95609">
        <ele>2527</ele>
        <time>2020-02-23T11:02:17.000Z</time>
      </trkpt>
      <trkpt lat="45.16714" lon="5.95607">
        <ele>2526</ele>
        <time>2020-02-23T11:02:27.000Z</time>
      </trkpt>
      <trkpt lat="45.16719" lon="5.95606">
        <ele>2528</ele>
        <time>2020-02-23T11:02:34.000Z</time>
      </trkpt>
      <trkpt lat="45.16725" lon="5.95604">
        <ele>2531</ele>
        <time>2020-02-23T11:02:43.137Z</time>
      </trkpt>
      <trkpt lat="45.16729" lon="5.956">
        <ele>2533</ele>
        <time>2020-02-23T11:02:51.000Z</time>
      </trkpt>
      <trkpt lat="45.16729" lon="5.95608">
        <ele>2530</ele>
        <time>2020-02-23T11:03:22.000Z</time>
      </trkpt>
      <trkpt lat="45.1673" lon="5.95616">
        <ele>2531</ele>
        <time>2020-02-23T11:03:26.633Z</time>
      </trkpt>
      <trkpt lat="45.16727" lon="5.95621">
        <ele>2531</ele>
        <time>2020-02-23T11:03:39.000Z</time>
      </trkpt>
      <trkpt lat="45.16724" lon="5.95628">
        <ele>2535</ele>
        <time>2020-02-23T11:03:55.000Z</time>
      </trkpt>
      <trkpt lat="45.16729" lon="5.95629">
        <ele>2534</ele>
        <time>2020-02-23T11:04:02.000Z</time>
      </trkpt>
      <trkpt lat="45.16735" lon="5.95624">
        <ele>2540</ele>
        <time>2020-02-23T11:04:13.089Z</time>
      </trkpt>
      <trkpt lat="45.16739" lon="5.9562">
        <ele>2543</ele>
        <time>2020-02-23T11:04:36.828Z</time>
      </trkpt>
      <trkpt lat="45.16743" lon="5.95624">
        <ele>2545</ele>
        <time>2020-02-23T11:04:53.000Z</time>
      </trkpt>
      <trkpt lat="45.16743" lon="5.95636">
        <ele>2546</ele>
        <time>2020-02-23T11:05:03.000Z</time>
      </trkpt>
      <trkpt lat="45.16741" lon="5.95644">
        <ele>2549</ele>
        <time>2020-02-23T11:05:16.000Z</time>
      </trkpt>
      <trkpt lat="45.16747" lon="5.95645">
        <ele>2549</ele>
        <time>2020-02-23T11:05:33.000Z</time>
      </trkpt>
      <trkpt lat="45.16751" lon="5.95639">
        <ele>2553</ele>
        <time>2020-02-23T11:05:43.000Z</time>
      </trkpt>
      <trkpt lat="45.16754" lon="5.95633">
        <ele>2555</ele>
        <time>2020-02-23T11:05:50.000Z</time>
      </trkpt>
      <trkpt lat="45.16758" lon="5.95629">
        <ele>2557</ele>
        <time>2020-02-23T11:06:01.000Z</time>
      </trkpt>
      <trkpt lat="45.16757" lon="5.95637">
        <ele>2558</ele>
        <time>2020-02-23T11:06:26.561Z</time>
      </trkpt>
      <trkpt lat="45.16756" lon="5.95643">
        <ele>2559</ele>
        <time>2020-02-23T11:06:39.000Z</time>
      </trkpt>
      <trkpt lat="45.16761" lon="5.95645">
        <ele>2560</ele>
        <time>2020-02-23T11:06:53.000Z</time>
      </trkpt>
      <trkpt lat="45.16765" lon="5.95641">
        <ele>2563</ele>
        <time>2020-02-23T11:06:58.815Z</time>
      </trkpt>
      <trkpt lat="45.1677" lon="5.95639">
        <ele>2567</ele>
        <time>2020-02-23T11:07:11.105Z</time>
      </trkpt>
      <trkpt lat="45.16765" lon="5.95637">
        <ele>2563</ele>
        <time>2020-02-23T11:07:34.000Z</time>
      </trkpt>
      <trkpt lat="45.16761" lon="5.95639">
        <ele>2564</ele>
        <time>2020-02-23T11:07:58.000Z</time>
      </trkpt>
      <trkpt lat="45.16762" lon="5.95646">
        <ele>2568</ele>
        <time>2020-02-23T11:08:08.000Z</time>
      </trkpt>
      <trkpt lat="45.16768" lon="5.95646">
        <ele>2571</ele>
        <time>2020-02-23T11:08:16.844Z</time>
      </trkpt>
      <trkpt lat="45.16773" lon="5.95644">
        <ele>2573</ele>
        <time>2020-02-23T11:08:31.011Z</time>
      </trkpt>
      <trkpt lat="45.16776" lon="5.95648">
        <ele>2577</ele>
        <time>2020-02-23T11:09:16.000Z</time>
      </trkpt>
      <trkpt lat="45.1678" lon="5.95643">
        <ele>2581</ele>
        <time>2020-02-23T11:09:27.000Z</time>
      </trkpt>
      <trkpt lat="45.16782" lon="5.95649">
        <ele>2580</ele>
        <time>2020-02-23T11:10:23.000Z</time>
      </trkpt>
      <trkpt lat="45.16787" lon="5.95649">
        <ele>2583</ele>
        <time>2020-02-23T11:10:37.007Z</time>
      </trkpt>
      <trkpt lat="45.16792" lon="5.95645">
        <ele>2588</ele>
        <time>2020-02-23T11:11:28.000Z</time>
      </trkpt>
      <trkpt lat="45.16794" lon="5.95638">
        <ele>2591</ele>
        <time>2020-02-23T11:11:38.400Z</time>
      </trkpt>
      <trkpt lat="45.16793" lon="5.95646">
        <ele>2589</ele>
        <time>2020-02-23T11:11:58.644Z</time>
      </trkpt>
      <trkpt lat="45.16794" lon="5.95653">
        <ele>2591</ele>
        <time>2020-02-23T11:12:12.642Z</time>
      </trkpt>
      <trkpt lat="45.16799" lon="5.95659">
        <ele>2594</ele>
        <time>2020-02-23T11:12:32.618Z</time>
      </trkpt>
      <trkpt lat="45.16804" lon="5.95657">
        <ele>2597</ele>
        <time>2020-02-23T11:12:43.000Z</time>
      </trkpt>
      <trkpt lat="45.16805" lon="5.95664">
        <ele>2598</ele>
        <time>2020-02-23T11:13:29.000Z</time>
      </trkpt>
      <trkpt lat="45.16811" lon="5.95663">
        <ele>2598</ele>
        <time>2020-02-23T11:13:47.000Z</time>
      </trkpt>
      <trkpt lat="45.16815" lon="5.95656">
        <ele>2604</ele>
        <time>2020-02-23T11:14:12.000Z</time>
      </trkpt>
      <trkpt lat="45.16816" lon="5.9565">
        <ele>2606</ele>
        <time>2020-02-23T11:14:22.000Z</time>
      </trkpt>
      <trkpt lat="45.16817" lon="5.95643">
        <ele>2607</ele>
        <time>2020-02-23T11:14:31.268Z</time>
      </trkpt>
      <trkpt lat="45.16819" lon="5.95636">
        <ele>2610</ele>
        <time>2020-02-23T11:14:49.000Z</time>
      </trkpt>
      <trkpt lat="45.16821" lon="5.95627">
        <ele>2612</ele>
        <time>2020-02-23T11:15:03.000Z</time>
      </trkpt>
      <trkpt lat="45.16824" lon="5.95634">
        <ele>2610</ele>
        <time>2020-02-23T11:15:28.000Z</time>
      </trkpt>
      <trkpt lat="45.16828" lon="5.95641">
        <ele>2609</ele>
        <time>2020-02-23T11:15:37.086Z</time>
      </trkpt>
      <trkpt lat="45.16831" lon="5.95646">
        <ele>2607</ele>
        <time>2020-02-23T11:15:48.000Z</time>
      </trkpt>
      <trkpt lat="45.16835" lon="5.95652">
        <ele>2610</ele>
        <time>2020-02-23T11:15:58.000Z</time>
      </trkpt>
      <trkpt lat="45.16838" lon="5.95658">
        <ele>2610</ele>
        <time>2020-02-23T11:16:12.000Z</time>
      </trkpt>
      <trkpt lat="45.16841" lon="5.95665">
        <ele>2612</ele>
        <time>2020-02-23T11:16:22.000Z</time>
      </trkpt>
      <trkpt lat="45.16843" lon="5.9567">
        <ele>2616</ele>
        <time>2020-02-23T11:16:31.000Z</time>
      </trkpt>
      <trkpt lat="45.16846" lon="5.95675">
        <ele>2619</ele>
        <time>2020-02-23T11:16:41.135Z</time>
      </trkpt>
      <trkpt lat="45.16847" lon="5.95682">
        <ele>2623</ele>
        <time>2020-02-23T11:16:55.000Z</time>
      </trkpt>
      <trkpt lat="45.16853" lon="5.95681">
        <ele>2627</ele>
        <time>2020-02-23T11:17:09.000Z</time>
      </trkpt>
      <trkpt lat="45.16857" lon="5.95677">
        <ele>2629</ele>
        <time>2020-02-23T11:17:16.652Z</time>
      </trkpt>
      <trkpt lat="45.1686" lon="5.95672">
        <ele>2632</ele>
        <time>2020-02-23T11:17:24.000Z</time>
      </trkpt>
      <trkpt lat="45.16856" lon="5.95675">
        <ele>2629</ele>
        <time>2020-02-23T11:17:51.000Z</time>
      </trkpt>
      <trkpt lat="45.16855" lon="5.95682">
        <ele>2631</ele>
        <time>2020-02-23T11:18:08.534Z</time>
      </trkpt>
      <trkpt lat="45.16859" lon="5.95688">
        <ele>2632</ele>
        <time>2020-02-23T11:18:23.656Z</time>
      </trkpt>
      <trkpt lat="45.16864" lon="5.95687">
        <ele>2635</ele>
        <time>2020-02-23T11:18:31.000Z</time>
      </trkpt>
      <trkpt lat="45.16868" lon="5.95681">
        <ele>2637</ele>
        <time>2020-02-23T11:18:37.635Z</time>
      </trkpt>
      <trkpt lat="45.16872" lon="5.95676">
        <ele>2639</ele>
        <time>2020-02-23T11:18:45.000Z</time>
      </trkpt>
      <trkpt lat="45.16877" lon="5.9568">
        <ele>2642</ele>
        <time>2020-02-23T11:19:12.514Z</time>
      </trkpt>
      <trkpt lat="45.16883" lon="5.9568">
        <ele>2643</ele>
        <time>2020-02-23T11:19:23.000Z</time>
      </trkpt>
      <trkpt lat="45.16888" lon="5.95674">
        <ele>2644</ele>
        <time>2020-02-23T11:19:45.000Z</time>
      </trkpt>
      <trkpt lat="45.16891" lon="5.95678">
        <ele>2643</ele>
        <time>2020-02-23T11:28:40.841Z</time>
      </trkpt>
      <trkpt lat="45.16897" lon="5.95681">
        <ele>2646</ele>
        <time>2020-02-23T11:28:54.407Z</time>
      </trkpt>
      <trkpt lat="45.16903" lon="5.95682">
        <ele>2648</ele>
        <time>2020-02-23T11:29:00.807Z</time>
      </trkpt>
      <trkpt lat="45.16909" lon="5.95683">
        <ele>2650</ele>
        <time>2020-02-23T11:29:15.000Z</time>
      </trkpt>
      <trkpt lat="45.16915" lon="5.95686">
        <ele>2652</ele>
        <time>2020-02-23T11:29:27.657Z</time>
      </trkpt>
      <trkpt lat="45.16919" lon="5.9569">
        <ele>2654</ele>
        <time>2020-02-23T11:29:36.000Z</time>
      </trkpt>
      <trkpt lat="45.16922" lon="5.95694">
        <ele>2655</ele>
        <time>2020-02-23T11:29:42.762Z</time>
      </trkpt>
      <trkpt lat="45.16928" lon="5.95691">
        <ele>2657</ele>
        <time>2020-02-23T11:29:52.526Z</time>
      </trkpt>
      <trkpt lat="45.16934" lon="5.9569">
        <ele>2659</ele>
        <time>2020-02-23T11:30:03.000Z</time>
      </trkpt>
      <trkpt lat="45.16939" lon="5.95693">
        <ele>2661</ele>
        <time>2020-02-23T11:30:16.000Z</time>
      </trkpt>
      <trkpt lat="45.16945" lon="5.95697">
        <ele>2661</ele>
        <time>2020-02-23T11:30:29.000Z</time>
      </trkpt>
      <trkpt lat="45.1695" lon="5.957">
        <ele>2664</ele>
        <time>2020-02-23T11:30:40.737Z</time>
      </trkpt>
      <trkpt lat="45.16956" lon="5.957">
        <ele>2666</ele>
        <time>2020-02-23T11:30:52.000Z</time>
      </trkpt>
      <trkpt lat="45.16961" lon="5.95699">
        <ele>2667</ele>
        <time>2020-02-23T11:31:01.960Z</time>
      </trkpt>
      <trkpt lat="45.16966" lon="5.95696">
        <ele>2669</ele>
        <time>2020-02-23T11:31:12.106Z</time>
      </trkpt>
      <trkpt lat="45.16966" lon="5.95703">
        <ele>2671</ele>
        <time>2020-02-23T11:31:24.874Z</time>
      </trkpt>
      <trkpt lat="45.16965" lon="5.95711">
        <ele>2670</ele>
        <time>2020-02-23T11:31:38.000Z</time>
      </trkpt>
      <trkpt lat="45.16963" lon="5.95718">
        <ele>2672</ele>
        <time>2020-02-23T11:31:48.000Z</time>
      </trkpt>
      <trkpt lat="45.1696" lon="5.95724">
        <ele>2675</ele>
        <time>2020-02-23T11:32:02.000Z</time>
      </trkpt>
      <trkpt lat="45.16957" lon="5.95728">
        <ele>2679</ele>
        <time>2020-02-23T11:32:14.816Z</time>
      </trkpt>
      <trkpt lat="45.16953" lon="5.95734">
        <ele>2681</ele>
        <time>2020-02-23T11:32:25.130Z</time>
      </trkpt>
      <trkpt lat="45.16949" lon="5.9574">
        <ele>2680</ele>
        <time>2020-02-23T11:32:39.000Z</time>
      </trkpt>
      <trkpt lat="45.16946" lon="5.95748">
        <ele>2683</ele>
        <time>2020-02-23T11:32:50.000Z</time>
      </trkpt>
      <trkpt lat="45.16944" lon="5.95754">
        <ele>2687</ele>
        <time>2020-02-23T11:33:03.000Z</time>
      </trkpt>
      <trkpt lat="45.16943" lon="5.95761">
        <ele>2688</ele>
        <time>2020-02-23T11:33:13.000Z</time>
      </trkpt>
      <trkpt lat="45.16947" lon="5.95766">
        <ele>2688</ele>
        <time>2020-02-23T11:33:23.000Z</time>
      </trkpt>
      <trkpt lat="45.16951" lon="5.95767">
        <ele>2691</ele>
        <time>2020-02-23T11:33:39.861Z</time>
      </trkpt>
      <trkpt lat="45.16946" lon="5.95771">
        <ele>2694</ele>
        <time>2020-02-23T11:34:04.779Z</time>
      </trkpt>
      <trkpt lat="45.16943" lon="5.95777">
        <ele>2697</ele>
        <time>2020-02-23T11:34:15.027Z</time>
      </trkpt>
      <trkpt lat="45.16941" lon="5.95785">
        <ele>2697</ele>
        <time>2020-02-23T11:34:26.000Z</time>
      </trkpt>
      <trkpt lat="45.16942" lon="5.95794">
        <ele>2699</ele>
        <time>2020-02-23T11:34:35.682Z</time>
      </trkpt>
      <trkpt lat="45.16945" lon="5.95801">
        <ele>2699</ele>
        <time>2020-02-23T11:34:46.857Z</time>
      </trkpt>
      <trkpt lat="45.16949" lon="5.95799">
        <ele>2701</ele>
        <time>2020-02-23T11:35:17.000Z</time>
      </trkpt>
      <trkpt lat="45.16954" lon="5.95798">
        <ele>2703</ele>
        <time>2020-02-23T11:35:24.000Z</time>
      </trkpt>
      <trkpt lat="45.1696" lon="5.95802">
        <ele>2704</ele>
        <time>2020-02-23T11:35:38.000Z</time>
      </trkpt>
      <trkpt lat="45.16966" lon="5.95805">
        <ele>2705</ele>
        <time>2020-02-23T11:35:44.885Z</time>
      </trkpt>
      <trkpt lat="45.16971" lon="5.95807">
        <ele>2707</ele>
        <time>2020-02-23T11:35:53.000Z</time>
      </trkpt>
      <trkpt lat="45.16976" lon="5.95811">
        <ele>2708</ele>
        <time>2020-02-23T11:36:00.042Z</time>
      </trkpt>
      <trkpt lat="45.16981" lon="5.95813">
        <ele>2709</ele>
        <time>2020-02-23T11:36:08.012Z</time>
      </trkpt>
      <trkpt lat="45.16987" lon="5.95814">
        <ele>2715</ele>
        <time>2020-02-23T11:36:19.000Z</time>
      </trkpt>
      <trkpt lat="45.16993" lon="5.95812">
        <ele>2718</ele>
        <time>2020-02-23T11:36:28.836Z</time>
      </trkpt>
      <trkpt lat="45.16998" lon="5.9581">
        <ele>2719</ele>
        <time>2020-02-23T11:36:38.506Z</time>
      </trkpt>
      <trkpt lat="45.16999" lon="5.95817">
        <ele>2722</ele>
        <time>2020-02-23T11:36:52.958Z</time>
      </trkpt>
      <trkpt lat="45.17001" lon="5.95823">
        <ele>2724</ele>
        <time>2020-02-23T11:37:05.000Z</time>
      </trkpt>
      <trkpt lat="45.17007" lon="5.95826">
        <ele>2726</ele>
        <time>2020-02-23T11:37:25.000Z</time>
      </trkpt>
      <trkpt lat="45.17011" lon="5.95823">
        <ele>2728</ele>
        <time>2020-02-23T11:37:32.103Z</time>
      </trkpt>
      <trkpt lat="45.17017" lon="5.95819">
        <ele>2729</ele>
        <time>2020-02-23T11:37:43.000Z</time>
      </trkpt>
      <trkpt lat="45.17022" lon="5.95818">
        <ele>2730</ele>
        <time>2020-02-23T11:37:55.457Z</time>
      </trkpt>
      <trkpt lat="45.17025" lon="5.95812">
        <ele>2734</ele>
        <time>2020-02-23T11:38:10.000Z</time>
      </trkpt>
      <trkpt lat="45.17029" lon="5.95807">
        <ele>2735</ele>
        <time>2020-02-23T11:38:19.000Z</time>
      </trkpt>
      <trkpt lat="45.17033" lon="5.95802">
        <ele>2735</ele>
        <time>2020-02-23T11:38:29.000Z</time>
      </trkpt>
      <trkpt lat="45.17039" lon="5.95798">
        <ele>2735</ele>
        <time>2020-02-23T11:38:39.000Z</time>
      </trkpt>
      <trkpt lat="45.17044" lon="5.95796">
        <ele>2739</ele>
        <time>2020-02-23T11:38:49.173Z</time>
      </trkpt>
      <trkpt lat="45.17049" lon="5.95793">
        <ele>2743</ele>
        <time>2020-02-23T11:38:59.619Z</time>
      </trkpt>
      <trkpt lat="45.17051" lon="5.95787">
        <ele>2743</ele>
        <time>2020-02-23T11:39:21.000Z</time>
      </trkpt>
      <trkpt lat="45.17051" lon="5.95794">
        <ele>2742</ele>
        <time>2020-02-23T11:39:42.000Z</time>
      </trkpt>
      <trkpt lat="45.17052" lon="5.95802">
        <ele>2744</ele>
        <time>2020-02-23T11:39:53.155Z</time>
      </trkpt>
      <trkpt lat="45.17054" lon="5.9581">
        <ele>2747</ele>
        <time>2020-02-23T11:40:03.214Z</time>
      </trkpt>
      <trkpt lat="45.17056" lon="5.95816">
        <ele>2750</ele>
        <time>2020-02-23T11:40:22.000Z</time>
      </trkpt>
      <trkpt lat="45.17061" lon="5.95816">
        <ele>2751</ele>
        <time>2020-02-23T11:40:27.777Z</time>
      </trkpt>
      <trkpt lat="45.17067" lon="5.95812">
        <ele>2752</ele>
        <time>2020-02-23T11:40:35.000Z</time>
      </trkpt>
      <trkpt lat="45.17071" lon="5.95804">
        <ele>2753</ele>
        <time>2020-02-23T11:40:42.000Z</time>
      </trkpt>
      <trkpt lat="45.17072" lon="5.95798">
        <ele>2752</ele>
        <time>2020-02-23T11:40:49.000Z</time>
      </trkpt>
      <trkpt lat="45.17073" lon="5.9579">
        <ele>2754</ele>
        <time>2020-02-23T11:41:03.000Z</time>
      </trkpt>
      <trkpt lat="45.17076" lon="5.95784">
        <ele>2755</ele>
        <time>2020-02-23T11:41:15.104Z</time>
      </trkpt>
      <trkpt lat="45.17081" lon="5.95787">
        <ele>2758</ele>
        <time>2020-02-23T11:41:34.000Z</time>
      </trkpt>
      <trkpt lat="45.17082" lon="5.95793">
        <ele>2759</ele>
        <time>2020-02-23T11:41:46.173Z</time>
      </trkpt>
      <trkpt lat="45.17084" lon="5.958">
        <ele>2760</ele>
        <time>2020-02-23T11:42:03.000Z</time>
      </trkpt>
      <trkpt lat="45.17085" lon="5.95808">
        <ele>2766</ele>
        <time>2020-02-23T11:42:19.136Z</time>
      </trkpt>
      <trkpt lat="45.17086" lon="5.95815">
        <ele>2766</ele>
        <time>2020-02-23T11:42:33.000Z</time>
      </trkpt>
      <trkpt lat="45.17088" lon="5.95823">
        <ele>2767</ele>
        <time>2020-02-23T11:42:44.000Z</time>
      </trkpt>
      <trkpt lat="45.17088" lon="5.9583">
        <ele>2767</ele>
        <time>2020-02-23T11:42:53.751Z</time>
      </trkpt>
      <trkpt lat="45.17093" lon="5.95834">
        <ele>2767</ele>
        <time>2020-02-23T11:43:03.054Z</time>
      </trkpt>
      <trkpt lat="45.17095" lon="5.9584">
        <ele>2766</ele>
        <time>2020-02-23T11:43:12.000Z</time>
      </trkpt>
      <trkpt lat="45.17097" lon="5.95848">
        <ele>2768</ele>
        <time>2020-02-23T11:43:23.000Z</time>
      </trkpt>
      <trkpt lat="45.171" lon="5.95853">
        <ele>2768</ele>
        <time>2020-02-23T11:43:30.000Z</time>
      </trkpt>
      <trkpt lat="45.17103" lon="5.95859">
        <ele>2769</ele>
        <time>2020-02-23T11:43:40.000Z</time>
      </trkpt>
      <trkpt lat="45.17106" lon="5.95867">
        <ele>2769</ele>
        <time>2020-02-23T11:43:55.850Z</time>
      </trkpt>
      <trkpt lat="45.1711" lon="5.9587">
        <ele>2777</ele>
        <time>2020-02-23T11:44:08.000Z</time>
      </trkpt>
      <trkpt lat="45.17116" lon="5.95866">
        <ele>2781</ele>
        <time>2020-02-23T11:44:19.000Z</time>
      </trkpt>
      <trkpt lat="45.1712" lon="5.95861">
        <ele>2784</ele>
        <time>2020-02-23T11:44:27.993Z</time>
      </trkpt>
      <trkpt lat="45.17124" lon="5.95855">
        <ele>2786</ele>
        <time>2020-02-23T11:44:38.954Z</time>
      </trkpt>
      <trkpt lat="45.17128" lon="5.9585">
        <ele>2788</ele>
        <time>2020-02-23T11:44:49.265Z</time>
      </trkpt>
      <trkpt lat="45.17132" lon="5.95845">
        <ele>2790</ele>
        <time>2020-02-23T11:45:01.000Z</time>
      </trkpt>
      <trkpt lat="45.17133" lon="5.95853">
        <ele>2789</ele>
        <time>2020-02-23T11:45:37.000Z</time>
      </trkpt>
      <trkpt lat="45.17132" lon="5.95861">
        <ele>2791</ele>
        <time>2020-02-23T11:45:46.872Z</time>
      </trkpt>
      <trkpt lat="45.17134" lon="5.95869">
        <ele>2791</ele>
        <time>2020-02-23T11:45:59.000Z</time>
      </trkpt>
      <trkpt lat="45.17135" lon="5.95875">
        <ele>2792</ele>
        <time>2020-02-23T11:46:05.325Z</time>
      </trkpt>
      <trkpt lat="45.17135" lon="5.95883">
        <ele>2795</ele>
        <time>2020-02-23T11:46:15.879Z</time>
      </trkpt>
      <trkpt lat="45.17135" lon="5.95891">
        <ele>2794</ele>
        <time>2020-02-23T11:46:25.690Z</time>
      </trkpt>
      <trkpt lat="45.17135" lon="5.95899">
        <ele>2796</ele>
        <time>2020-02-23T11:46:36.166Z</time>
      </trkpt>
      <trkpt lat="45.17135" lon="5.95907">
        <ele>2795</ele>
        <time>2020-02-23T11:46:49.253Z</time>
      </trkpt>
      <trkpt lat="45.17134" lon="5.95915">
        <ele>2797</ele>
        <time>2020-02-23T11:47:00.000Z</time>
      </trkpt>
      <trkpt lat="45.17134" lon="5.95922">
        <ele>2798</ele>
        <time>2020-02-23T11:47:07.000Z</time>
      </trkpt>
      <trkpt lat="45.17133" lon="5.95928">
        <ele>2799</ele>
        <time>2020-02-23T11:47:15.000Z</time>
      </trkpt>
      <trkpt lat="45.1713" lon="5.95935">
        <ele>2799</ele>
        <time>2020-02-23T11:47:26.000Z</time>
      </trkpt>
      <trkpt lat="45.17127" lon="5.95941">
        <ele>2802</ele>
        <time>2020-02-23T11:47:34.979Z</time>
      </trkpt>
      <trkpt lat="45.17122" lon="5.95945">
        <ele>2805</ele>
        <time>2020-02-23T11:47:45.704Z</time>
      </trkpt>
      <trkpt lat="45.17117" lon="5.9595">
        <ele>2807</ele>
        <time>2020-02-23T11:47:55.981Z</time>
      </trkpt>
      <trkpt lat="45.17113" lon="5.95952">
        <ele>2809</ele>
        <time>2020-02-23T11:48:02.935Z</time>
      </trkpt>
      <trkpt lat="45.17109" lon="5.95957">
        <ele>2812</ele>
        <time>2020-02-23T11:48:17.626Z</time>
      </trkpt>
      <trkpt lat="45.17111" lon="5.95964">
        <ele>2815</ele>
        <time>2020-02-23T11:48:33.000Z</time>
      </trkpt>
      <trkpt lat="45.17114" lon="5.9597">
        <ele>2817</ele>
        <time>2020-02-23T11:48:51.959Z</time>
      </trkpt>
      <trkpt lat="45.1712" lon="5.95972">
        <ele>2819</ele>
        <time>2020-02-23T11:49:01.222Z</time>
      </trkpt>
      <trkpt lat="45.17126" lon="5.95975">
        <ele>2821</ele>
        <time>2020-02-23T11:49:11.112Z</time>
      </trkpt>
      <trkpt lat="45.17131" lon="5.95979">
        <ele>2821</ele>
        <time>2020-02-23T11:49:18.305Z</time>
      </trkpt>
      <trkpt lat="45.17137" lon="5.95979">
        <ele>2822</ele>
        <time>2020-02-23T11:49:27.646Z</time>
      </trkpt>
      <trkpt lat="45.17142" lon="5.95979">
        <ele>2824</ele>
        <time>2020-02-23T11:49:42.000Z</time>
      </trkpt>
      <trkpt lat="45.17147" lon="5.95978">
        <ele>2826</ele>
        <time>2020-02-23T11:50:23.000Z</time>
      </trkpt>
      <trkpt lat="45.17154" lon="5.95978">
        <ele>2828</ele>
        <time>2020-02-23T11:50:34.000Z</time>
      </trkpt>
      <trkpt lat="45.17158" lon="5.95978">
        <ele>2829</ele>
        <time>2020-02-23T11:50:40.000Z</time>
      </trkpt>
      <trkpt lat="45.17163" lon="5.95978">
        <ele>2829</ele>
        <time>2020-02-23T11:50:51.000Z</time>
      </trkpt>
      <trkpt lat="45.1716" lon="5.95973">
        <ele>2832</ele>
        <time>2020-02-23T11:51:11.000Z</time>
      </trkpt>
      <trkpt lat="45.17156" lon="5.95966">
        <ele>2833</ele>
        <time>2020-02-23T11:51:22.000Z</time>
      </trkpt>
      <trkpt lat="45.17158" lon="5.9596">
        <ele>2838</ele>
        <time>2020-02-23T11:51:58.392Z</time>
      </trkpt>
      <trkpt lat="45.17162" lon="5.95956">
        <ele>2844</ele>
        <time>2020-02-23T11:53:38.301Z</time>
      </trkpt>
      <trkpt lat="45.17164" lon="5.9595">
        <ele>2844</ele>
        <time>2020-02-23T11:54:08.000Z</time>
      </trkpt>
      <trkpt lat="45.17167" lon="5.95943">
        <ele>2844</ele>
        <time>2020-02-23T11:54:17.856Z</time>
      </trkpt>
      <trkpt lat="45.17165" lon="5.95937">
        <ele>2846</ele>
        <time>2020-02-23T12:03:15.000Z</time>
      </trkpt>
      <trkpt lat="45.17161" lon="5.95932">
        <ele>2846</ele>
        <time>2020-02-23T12:03:22.000Z</time>
      </trkpt>
      <trkpt lat="45.17167" lon="5.95934">
        <ele>2846</ele>
        <time>2020-02-23T12:04:04.000Z</time>
      </trkpt>
      <trkpt lat="45.17165" lon="5.95941">
        <ele>2849</ele>
        <time>2020-02-23T12:11:44.000Z</time>
      </trkpt>
      <trkpt lat="45.17162" lon="5.95954">
        <ele>2845</ele>
        <time>2020-02-23T12:11:55.000Z</time>
      </trkpt>
      <trkpt lat="45.17157" lon="5.9596">
        <ele>2843</ele>
        <time>2020-02-23T12:12:05.000Z</time>
      </trkpt>
      <trkpt lat="45.17155" lon="5.95966">
        <ele>2842</ele>
        <time>2020-02-23T12:12:22.000Z</time>
      </trkpt>
      <trkpt lat="45.17158" lon="5.95975">
        <ele>2842</ele>
        <time>2020-02-23T12:12:24.454Z</time>
      </trkpt>
      <trkpt lat="45.17145" lon="5.95981">
        <ele>2840</ele>
        <time>2020-02-23T12:12:31.071Z</time>
      </trkpt>
      <trkpt lat="45.17132" lon="5.95983">
        <ele>2834</ele>
        <time>2020-02-23T12:12:35.000Z</time>
      </trkpt>
      <trkpt lat="45.17122" lon="5.9598">
        <ele>2829</ele>
        <time>2020-02-23T12:13:22.000Z</time>
      </trkpt>
      <trkpt lat="45.17112" lon="5.95975">
        <ele>2823</ele>
        <time>2020-02-23T12:13:25.000Z</time>
      </trkpt>
      <trkpt lat="45.17105" lon="5.95961">
        <ele>2821</ele>
        <time>2020-02-23T12:13:27.963Z</time>
      </trkpt>
      <trkpt lat="45.17104" lon="5.95951">
        <ele>2818</ele>
        <time>2020-02-23T12:13:35.000Z</time>
      </trkpt>
      <trkpt lat="45.17109" lon="5.95947">
        <ele>2816</ele>
        <time>2020-02-23T12:13:37.354Z</time>
      </trkpt>
      <trkpt lat="45.17118" lon="5.95938">
        <ele>2812</ele>
        <time>2020-02-23T12:13:45.000Z</time>
      </trkpt>
      <trkpt lat="45.17128" lon="5.95925">
        <ele>2810</ele>
        <time>2020-02-23T12:13:48.000Z</time>
      </trkpt>
      <trkpt lat="45.17131" lon="5.9592">
        <ele>2808</ele>
        <time>2020-02-23T12:14:08.000Z</time>
      </trkpt>
      <trkpt lat="45.17129" lon="5.95909">
        <ele>2803</ele>
        <time>2020-02-23T12:14:26.000Z</time>
      </trkpt>
      <trkpt lat="45.17121" lon="5.95901">
        <ele>2804</ele>
        <time>2020-02-23T12:14:29.000Z</time>
      </trkpt>
      <trkpt lat="45.17115" lon="5.95884">
        <ele>2802</ele>
        <time>2020-02-23T12:14:32.000Z</time>
      </trkpt>
      <trkpt lat="45.17101" lon="5.95887">
        <ele>2798</ele>
        <time>2020-02-23T12:14:35.000Z</time>
      </trkpt>
      <trkpt lat="45.17083" lon="5.95881">
        <ele>2789</ele>
        <time>2020-02-23T12:14:39.000Z</time>
      </trkpt>
      <trkpt lat="45.17072" lon="5.95891">
        <ele>2783</ele>
        <time>2020-02-23T12:14:41.749Z</time>
      </trkpt>
      <trkpt lat="45.17052" lon="5.9588">
        <ele>2770</ele>
        <time>2020-02-23T12:14:46.000Z</time>
      </trkpt>
      <trkpt lat="45.17043" lon="5.95882">
        <ele>2763</ele>
        <time>2020-02-23T12:14:49.000Z</time>
      </trkpt>
      <trkpt lat="45.17041" lon="5.95872">
        <ele>2760</ele>
        <time>2020-02-23T12:14:53.000Z</time>
      </trkpt>
      <trkpt lat="45.17035" lon="5.95883">
        <ele>2760</ele>
        <time>2020-02-23T12:15:19.645Z</time>
      </trkpt>
      <trkpt lat="45.17031" lon="5.95897">
        <ele>2760</ele>
        <time>2020-02-23T12:15:22.997Z</time>
      </trkpt>
      <trkpt lat="45.17016" lon="5.95896">
        <ele>2755</ele>
        <time>2020-02-23T12:15:27.000Z</time>
      </trkpt>
      <trkpt lat="45.17007" lon="5.95899">
        <ele>2752</ele>
        <time>2020-02-23T12:15:30.000Z</time>
      </trkpt>
      <trkpt lat="45.16984" lon="5.95892">
        <ele>2743</ele>
        <time>2020-02-23T12:15:34.000Z</time>
      </trkpt>
      <trkpt lat="45.16978" lon="5.95895">
        <ele>2740</ele>
        <time>2020-02-23T12:15:37.000Z</time>
      </trkpt>
      <trkpt lat="45.16974" lon="5.95892">
        <ele>2735</ele>
        <time>2020-02-23T12:15:44.000Z</time>
      </trkpt>
      <trkpt lat="45.16979" lon="5.95887">
        <ele>2728</ele>
        <time>2020-02-23T12:16:57.000Z</time>
      </trkpt>
      <trkpt lat="45.16989" lon="5.95877">
        <ele>2721</ele>
        <time>2020-02-23T12:17:03.471Z</time>
      </trkpt>
      <trkpt lat="45.16992" lon="5.95868">
        <ele>2720</ele>
        <time>2020-02-23T12:17:07.133Z</time>
      </trkpt>
      <trkpt lat="45.16975" lon="5.95855">
        <ele>2717</ele>
        <time>2020-02-23T12:17:11.000Z</time>
      </trkpt>
      <trkpt lat="45.16957" lon="5.95844">
        <ele>2713</ele>
        <time>2020-02-23T12:17:14.000Z</time>
      </trkpt>
      <trkpt lat="45.16956" lon="5.95823">
        <ele>2706</ele>
        <time>2020-02-23T12:17:16.982Z</time>
      </trkpt>
      <trkpt lat="45.16953" lon="5.9581">
        <ele>2700</ele>
        <time>2020-02-23T12:17:21.000Z</time>
      </trkpt>
      <trkpt lat="45.16948" lon="5.95802">
        <ele>2698</ele>
        <time>2020-02-23T12:17:31.139Z</time>
      </trkpt>
      <trkpt lat="45.16941" lon="5.95786">
        <ele>2697</ele>
        <time>2020-02-23T12:17:35.000Z</time>
      </trkpt>
      <trkpt lat="45.1695" lon="5.95767">
        <ele>2693</ele>
        <time>2020-02-23T12:17:38.000Z</time>
      </trkpt>
      <trkpt lat="45.16961" lon="5.95742">
        <ele>2694</ele>
        <time>2020-02-23T12:17:42.000Z</time>
      </trkpt>
      <trkpt lat="45.1697" lon="5.95735">
        <ele>2696</ele>
        <time>2020-02-23T12:17:45.000Z</time>
      </trkpt>
      <trkpt lat="45.16976" lon="5.95719">
        <ele>2695</ele>
        <time>2020-02-23T12:17:47.705Z</time>
      </trkpt>
      <trkpt lat="45.16963" lon="5.95697">
        <ele>2690</ele>
        <time>2020-02-23T12:17:52.000Z</time>
      </trkpt>
      <trkpt lat="45.16944" lon="5.9568">
        <ele>2684</ele>
        <time>2020-02-23T12:17:55.000Z</time>
      </trkpt>
      <trkpt lat="45.16927" lon="5.95663">
        <ele>2679</ele>
        <time>2020-02-23T12:17:58.000Z</time>
      </trkpt>
      <trkpt lat="45.16921" lon="5.95661">
        <ele>2677</ele>
        <time>2020-02-23T12:18:00.831Z</time>
      </trkpt>
      <trkpt lat="45.16921" lon="5.95668">
        <ele>2664</ele>
        <time>2020-02-23T12:18:16.000Z</time>
      </trkpt>
      <trkpt lat="45.1691" lon="5.95671">
        <ele>2663</ele>
        <time>2020-02-23T12:20:48.578Z</time>
      </trkpt>
      <trkpt lat="45.16904" lon="5.9568">
        <ele>2661</ele>
        <time>2020-02-23T12:20:51.657Z</time>
      </trkpt>
      <trkpt lat="45.16889" lon="5.95675">
        <ele>2658</ele>
        <time>2020-02-23T12:20:56.000Z</time>
      </trkpt>
      <trkpt lat="45.1688" lon="5.95671">
        <ele>2653</ele>
        <time>2020-02-23T12:20:59.000Z</time>
      </trkpt>
      <trkpt lat="45.16873" lon="5.95674">
        <ele>2649</ele>
        <time>2020-02-23T12:21:02.000Z</time>
      </trkpt>
      <trkpt lat="45.16866" lon="5.95676">
        <ele>2647</ele>
        <time>2020-02-23T12:21:10.000Z</time>
      </trkpt>
      <trkpt lat="45.1686" lon="5.95682">
        <ele>2644</ele>
        <time>2020-02-23T12:21:13.000Z</time>
      </trkpt>
      <trkpt lat="45.1685" lon="5.95677">
        <ele>2637</ele>
        <time>2020-02-23T12:21:15.341Z</time>
      </trkpt>
      <trkpt lat="45.16844" lon="5.95659">
        <ele>2632</ele>
        <time>2020-02-23T12:21:18.634Z</time>
      </trkpt>
      <trkpt lat="45.16832" lon="5.9566">
        <ele>2630</ele>
        <time>2020-02-23T12:21:21.823Z</time>
      </trkpt>
      <trkpt lat="45.16827" lon="5.95671">
        <ele>2627</ele>
        <time>2020-02-23T12:21:26.000Z</time>
      </trkpt>
      <trkpt lat="45.16823" lon="5.95659">
        <ele>2622</ele>
        <time>2020-02-23T12:21:36.000Z</time>
      </trkpt>
      <trkpt lat="45.1681" lon="5.95658">
        <ele>2614</ele>
        <time>2020-02-23T12:21:45.253Z</time>
      </trkpt>
      <trkpt lat="45.168" lon="5.95647">
        <ele>2607</ele>
        <time>2020-02-23T12:21:50.000Z</time>
      </trkpt>
      <trkpt lat="45.16791" lon="5.95642">
        <ele>2602</ele>
        <time>2020-02-23T12:21:52.201Z</time>
      </trkpt>
      <trkpt lat="45.16784" lon="5.95649">
        <ele>2601</ele>
        <time>2020-02-23T12:21:57.000Z</time>
      </trkpt>
      <trkpt lat="45.16773" lon="5.95638">
        <ele>2597</ele>
        <time>2020-02-23T12:22:01.000Z</time>
      </trkpt>
      <trkpt lat="45.16767" lon="5.95646">
        <ele>2597</ele>
        <time>2020-02-23T12:22:04.000Z</time>
      </trkpt>
      <trkpt lat="45.16763" lon="5.95636">
        <ele>2585</ele>
        <time>2020-02-23T12:22:08.000Z</time>
      </trkpt>
      <trkpt lat="45.16752" lon="5.95629">
        <ele>2581</ele>
        <time>2020-02-23T12:22:11.000Z</time>
      </trkpt>
      <trkpt lat="45.16745" lon="5.95632">
        <ele>2580</ele>
        <time>2020-02-23T12:22:14.000Z</time>
      </trkpt>
      <trkpt lat="45.16727" lon="5.95631">
        <ele>2573</ele>
        <time>2020-02-23T12:22:17.000Z</time>
      </trkpt>
      <trkpt lat="45.16726" lon="5.95615">
        <ele>2561</ele>
        <time>2020-02-23T12:22:21.000Z</time>
      </trkpt>
      <trkpt lat="45.16728" lon="5.9558">
        <ele>2550</ele>
        <time>2020-02-23T12:22:25.000Z</time>
      </trkpt>
      <trkpt lat="45.16722" lon="5.95564">
        <ele>2544</ele>
        <time>2020-02-23T12:22:27.759Z</time>
      </trkpt>
      <trkpt lat="45.16719" lon="5.95558">
        <ele>2542</ele>
        <time>2020-02-23T12:22:31.081Z</time>
      </trkpt>
      <trkpt lat="45.16708" lon="5.95553">
        <ele>2538</ele>
        <time>2020-02-23T12:22:34.345Z</time>
      </trkpt>
      <trkpt lat="45.167" lon="5.95546">
        <ele>2536</ele>
        <time>2020-02-23T12:22:37.655Z</time>
      </trkpt>
      <trkpt lat="45.16696" lon="5.95561">
        <ele>2535</ele>
        <time>2020-02-23T12:22:42.000Z</time>
      </trkpt>
      <trkpt lat="45.16689" lon="5.95557">
        <ele>2529</ele>
        <time>2020-02-23T12:23:37.000Z</time>
      </trkpt>
      <trkpt lat="45.16689" lon="5.95565">
        <ele>2527</ele>
        <time>2020-02-23T12:23:39.270Z</time>
      </trkpt>
      <trkpt lat="45.16668" lon="5.95567">
        <ele>2524</ele>
        <time>2020-02-23T12:23:44.000Z</time>
      </trkpt>
      <trkpt lat="45.1666" lon="5.95555">
        <ele>2519</ele>
        <time>2020-02-23T12:23:47.000Z</time>
      </trkpt>
      <trkpt lat="45.16642" lon="5.95552">
        <ele>2513</ele>
        <time>2020-02-23T12:23:49.760Z</time>
      </trkpt>
      <trkpt lat="45.16633" lon="5.95547">
        <ele>2507</ele>
        <time>2020-02-23T12:23:54.000Z</time>
      </trkpt>
      <trkpt lat="45.16621" lon="5.95535">
        <ele>2498</ele>
        <time>2020-02-23T12:23:58.000Z</time>
      </trkpt>
      <trkpt lat="45.16615" lon="5.95508">
        <ele>2490</ele>
        <time>2020-02-23T12:24:01.000Z</time>
      </trkpt>
      <trkpt lat="45.16591" lon="5.95517">
        <ele>2487</ele>
        <time>2020-02-23T12:24:05.000Z</time>
      </trkpt>
      <trkpt lat="45.16572" lon="5.95498">
        <ele>2478</ele>
        <time>2020-02-23T12:24:09.000Z</time>
      </trkpt>
      <trkpt lat="45.16572" lon="5.95475">
        <ele>2470</ele>
        <time>2020-02-23T12:24:12.000Z</time>
      </trkpt>
      <trkpt lat="45.16562" lon="5.95458">
        <ele>2465</ele>
        <time>2020-02-23T12:24:15.000Z</time>
      </trkpt>
      <trkpt lat="45.16546" lon="5.95437">
        <ele>2454</ele>
        <time>2020-02-23T12:24:19.000Z</time>
      </trkpt>
      <trkpt lat="45.16532" lon="5.95429">
        <ele>2445</ele>
        <time>2020-02-23T12:24:22.000Z</time>
      </trkpt>
      <trkpt lat="45.16521" lon="5.95417">
        <ele>2437</ele>
        <time>2020-02-23T12:24:25.000Z</time>
      </trkpt>
      <trkpt lat="45.16515" lon="5.95406">
        <ele>2431</ele>
        <time>2020-02-23T12:24:28.000Z</time>
      </trkpt>
      <trkpt lat="45.16512" lon="5.95411">
        <ele>2416</ele>
        <time>2020-02-23T12:25:08.000Z</time>
      </trkpt>
      <trkpt lat="45.16508" lon="5.95415">
        <ele>2417</ele>
        <time>2020-02-23T12:25:56.000Z</time>
      </trkpt>
      <trkpt lat="45.16504" lon="5.95411">
        <ele>2415</ele>
        <time>2020-02-23T12:26:19.000Z</time>
      </trkpt>
      <trkpt lat="45.16502" lon="5.95405">
        <ele>2415</ele>
        <time>2020-02-23T12:26:43.000Z</time>
      </trkpt>
      <trkpt lat="45.16499" lon="5.95401">
        <ele>2415</ele>
        <time>2020-02-23T12:27:18.000Z</time>
      </trkpt>
      <trkpt lat="45.16501" lon="5.95395">
        <ele>2416</ele>
        <time>2020-02-23T12:28:01.000Z</time>
      </trkpt>
      <trkpt lat="45.16496" lon="5.954">
        <ele>2420</ele>
        <time>2020-02-23T13:00:05.587Z</time>
      </trkpt>
      <trkpt lat="45.16498" lon="5.95406">
        <ele>2418</ele>
        <time>2020-02-23T13:01:10.000Z</time>
      </trkpt>
      <trkpt lat="45.16502" lon="5.95406">
        <ele>2419</ele>
        <time>2020-02-23T13:01:34.000Z</time>
      </trkpt>
      <trkpt lat="45.16507" lon="5.95404">
        <ele>2420</ele>
        <time>2020-02-23T13:04:55.000Z</time>
      </trkpt>
      <trkpt lat="45.16511" lon="5.95397">
        <ele>2421</ele>
        <time>2020-02-23T13:05:14.000Z</time>
      </trkpt>
      <trkpt lat="45.16514" lon="5.95387">
        <ele>2420</ele>
        <time>2020-02-23T13:05:18.000Z</time>
      </trkpt>
      <trkpt lat="45.16523" lon="5.95377">
        <ele>2419</ele>
        <time>2020-02-23T13:05:25.000Z</time>
      </trkpt>
      <trkpt lat="45.1653" lon="5.95376">
        <ele>2418</ele>
        <time>2020-02-23T13:05:28.000Z</time>
      </trkpt>
      <trkpt lat="45.16532" lon="5.95366">
        <ele>2414</ele>
        <time>2020-02-23T13:05:31.000Z</time>
      </trkpt>
      <trkpt lat="45.1653" lon="5.9536">
        <ele>2413</ele>
        <time>2020-02-23T13:05:44.000Z</time>
      </trkpt>
      <trkpt lat="45.16539" lon="5.95354">
        <ele>2409</ele>
        <time>2020-02-23T13:06:09.025Z</time>
      </trkpt>
      <trkpt lat="45.16548" lon="5.95351">
        <ele>2402</ele>
        <time>2020-02-23T13:06:13.000Z</time>
      </trkpt>
      <trkpt lat="45.16564" lon="5.95343">
        <ele>2396</ele>
        <time>2020-02-23T13:06:16.000Z</time>
      </trkpt>
      <trkpt lat="45.16593" lon="5.9534">
        <ele>2393</ele>
        <time>2020-02-23T13:06:20.000Z</time>
      </trkpt>
      <trkpt lat="45.1661" lon="5.95344">
        <ele>2392</ele>
        <time>2020-02-23T13:06:23.000Z</time>
      </trkpt>
      <trkpt lat="45.16641" lon="5.95336">
        <ele>2383</ele>
        <time>2020-02-23T13:06:27.000Z</time>
      </trkpt>
      <trkpt lat="45.16658" lon="5.95327">
        <ele>2378</ele>
        <time>2020-02-23T13:06:30.000Z</time>
      </trkpt>
      <trkpt lat="45.16673" lon="5.9531">
        <ele>2374</ele>
        <time>2020-02-23T13:06:34.000Z</time>
      </trkpt>
      <trkpt lat="45.16681" lon="5.95299">
        <ele>2372</ele>
        <time>2020-02-23T13:06:38.000Z</time>
      </trkpt>
      <trkpt lat="45.16685" lon="5.95294">
        <ele>2370</ele>
        <time>2020-02-23T13:06:54.953Z</time>
      </trkpt>
      <trkpt lat="45.16692" lon="5.95279">
        <ele>2368</ele>
        <time>2020-02-23T13:06:58.393Z</time>
      </trkpt>
      <trkpt lat="45.16698" lon="5.9527">
        <ele>2367</ele>
        <time>2020-02-23T13:07:01.909Z</time>
      </trkpt>
      <trkpt lat="45.16701" lon="5.95252">
        <ele>2359</ele>
        <time>2020-02-23T13:07:29.000Z</time>
      </trkpt>
      <trkpt lat="45.16708" lon="5.95219">
        <ele>2358</ele>
        <time>2020-02-23T13:07:32.000Z</time>
      </trkpt>
      <trkpt lat="45.16715" lon="5.9519">
        <ele>2362</ele>
        <time>2020-02-23T13:07:35.000Z</time>
      </trkpt>
      <trkpt lat="45.16725" lon="5.95152">
        <ele>2359</ele>
        <time>2020-02-23T13:07:39.000Z</time>
      </trkpt>
      <trkpt lat="45.16726" lon="5.951">
        <ele>2356</ele>
        <time>2020-02-23T13:07:43.000Z</time>
      </trkpt>
      <trkpt lat="45.16717" lon="5.95054">
        <ele>2354</ele>
        <time>2020-02-23T13:07:47.000Z</time>
      </trkpt>
      <trkpt lat="45.167" lon="5.95019">
        <ele>2352</ele>
        <time>2020-02-23T13:07:51.000Z</time>
      </trkpt>
      <trkpt lat="45.16688" lon="5.94995">
        <ele>2350</ele>
        <time>2020-02-23T13:07:54.000Z</time>
      </trkpt>
      <trkpt lat="45.16673" lon="5.94967">
        <ele>2347</ele>
        <time>2020-02-23T13:07:58.000Z</time>
      </trkpt>
      <trkpt lat="45.16662" lon="5.94951">
        <ele>2345</ele>
        <time>2020-02-23T13:08:01.000Z</time>
      </trkpt>
      <trkpt lat="45.16652" lon="5.94941">
        <ele>2344</ele>
        <time>2020-02-23T13:08:05.000Z</time>
      </trkpt>
      <trkpt lat="45.16644" lon="5.94931">
        <ele>2343</ele>
        <time>2020-02-23T13:08:12.000Z</time>
      </trkpt>
      <trkpt lat="45.16641" lon="5.94924">
        <ele>2342</ele>
        <time>2020-02-23T13:08:16.000Z</time>
      </trkpt>
      <trkpt lat="45.16638" lon="5.94919">
        <ele>2340</ele>
        <time>2020-02-23T13:08:18.725Z</time>
      </trkpt>
      <trkpt lat="45.16625" lon="5.94922">
        <ele>2338</ele>
        <time>2020-02-23T13:08:23.000Z</time>
      </trkpt>
      <trkpt lat="45.16617" lon="5.94913">
        <ele>2335</ele>
        <time>2020-02-23T13:08:25.505Z</time>
      </trkpt>
      <trkpt lat="45.16612" lon="5.94907">
        <ele>2332</ele>
        <time>2020-02-23T13:08:28.967Z</time>
      </trkpt>
      <trkpt lat="45.16609" lon="5.94895">
        <ele>2323</ele>
        <time>2020-02-23T13:09:06.000Z</time>
      </trkpt>
      <trkpt lat="45.16606" lon="5.94887">
        <ele>2321</ele>
        <time>2020-02-23T13:09:08.972Z</time>
      </trkpt>
      <trkpt lat="45.16599" lon="5.94885">
        <ele>2320</ele>
        <time>2020-02-23T13:09:12.854Z</time>
      </trkpt>
      <trkpt lat="45.16595" lon="5.94876">
        <ele>2312</ele>
        <time>2020-02-23T13:09:36.969Z</time>
      </trkpt>
      <trkpt lat="45.16591" lon="5.94861">
        <ele>2310</ele>
        <time>2020-02-23T13:09:41.000Z</time>
      </trkpt>
      <trkpt lat="45.16583" lon="5.9485">
        <ele>2308</ele>
        <time>2020-02-23T13:09:43.849Z</time>
      </trkpt>
      <trkpt lat="45.16589" lon="5.94833">
        <ele>2297</ele>
        <time>2020-02-23T13:09:48.000Z</time>
      </trkpt>
      <trkpt lat="45.16596" lon="5.94805">
        <ele>2288</ele>
        <time>2020-02-23T13:09:51.000Z</time>
      </trkpt>
      <trkpt lat="45.16596" lon="5.94782">
        <ele>2285</ele>
        <time>2020-02-23T13:09:54.000Z</time>
      </trkpt>
      <trkpt lat="45.16571" lon="5.94762">
        <ele>2282</ele>
        <time>2020-02-23T13:09:58.000Z</time>
      </trkpt>
      <trkpt lat="45.16556" lon="5.94745">
        <ele>2278</ele>
        <time>2020-02-23T13:10:02.000Z</time>
      </trkpt>
      <trkpt lat="45.16551" lon="5.94732">
        <ele>2273</ele>
        <time>2020-02-23T13:10:05.000Z</time>
      </trkpt>
      <trkpt lat="45.16548" lon="5.94727">
        <ele>2267</ele>
        <time>2020-02-23T13:10:33.086Z</time>
      </trkpt>
      <trkpt lat="45.16546" lon="5.94717">
        <ele>2263</ele>
        <time>2020-02-23T13:10:37.000Z</time>
      </trkpt>
      <trkpt lat="45.16541" lon="5.94702">
        <ele>2259</ele>
        <time>2020-02-23T13:10:40.000Z</time>
      </trkpt>
      <trkpt lat="45.16537" lon="5.94684">
        <ele>2258</ele>
        <time>2020-02-23T13:10:43.074Z</time>
      </trkpt>
      <trkpt lat="45.16534" lon="5.94672">
        <ele>2257</ele>
        <time>2020-02-23T13:10:47.000Z</time>
      </trkpt>
      <trkpt lat="45.16526" lon="5.94647">
        <ele>2254</ele>
        <time>2020-02-23T13:10:51.000Z</time>
      </trkpt>
      <trkpt lat="45.16522" lon="5.94629">
        <ele>2251</ele>
        <time>2020-02-23T13:10:55.000Z</time>
      </trkpt>
      <trkpt lat="45.1652" lon="5.94607">
        <ele>2250</ele>
        <time>2020-02-23T13:10:57.801Z</time>
      </trkpt>
      <trkpt lat="45.16512" lon="5.94583">
        <ele>2246</ele>
        <time>2020-02-23T13:11:02.000Z</time>
      </trkpt>
      <trkpt lat="45.16496" lon="5.9457">
        <ele>2243</ele>
        <time>2020-02-23T13:11:06.000Z</time>
      </trkpt>
      <trkpt lat="45.16484" lon="5.94557">
        <ele>2240</ele>
        <time>2020-02-23T13:11:09.063Z</time>
      </trkpt>
      <trkpt lat="45.16482" lon="5.94539">
        <ele>2235</ele>
        <time>2020-02-23T13:11:13.000Z</time>
      </trkpt>
      <trkpt lat="45.16484" lon="5.94517">
        <ele>2230</ele>
        <time>2020-02-23T13:11:16.160Z</time>
      </trkpt>
      <trkpt lat="45.16483" lon="5.94507">
        <ele>2216</ele>
        <time>2020-02-23T13:11:20.000Z</time>
      </trkpt>
      <trkpt lat="45.16484" lon="5.945">
        <ele>2214</ele>
        <time>2020-02-23T13:11:24.000Z</time>
      </trkpt>
      <trkpt lat="45.1648" lon="5.94494">
        <ele>2210</ele>
        <time>2020-02-23T13:11:33.658Z</time>
      </trkpt>
      <trkpt lat="45.16474" lon="5.94494">
        <ele>2209</ele>
        <time>2020-02-23T13:11:36.981Z</time>
      </trkpt>
      <trkpt lat="45.16471" lon="5.94485">
        <ele>2208</ele>
        <time>2020-02-23T13:11:40.076Z</time>
      </trkpt>
      <trkpt lat="45.16463" lon="5.94484">
        <ele>2206</ele>
        <time>2020-02-23T13:11:43.721Z</time>
      </trkpt>
      <trkpt lat="45.16439" lon="5.94477">
        <ele>2206</ele>
        <time>2020-02-23T13:11:48.000Z</time>
      </trkpt>
      <trkpt lat="45.16424" lon="5.94477">
        <ele>2203</ele>
        <time>2020-02-23T13:11:50.736Z</time>
      </trkpt>
      <trkpt lat="45.16418" lon="5.94472">
        <ele>2200</ele>
        <time>2020-02-23T13:11:55.000Z</time>
      </trkpt>
      <trkpt lat="45.1642" lon="5.94462">
        <ele>2191</ele>
        <time>2020-02-23T13:13:10.000Z</time>
      </trkpt>
      <trkpt lat="45.16427" lon="5.94443">
        <ele>2183</ele>
        <time>2020-02-23T13:13:13.000Z</time>
      </trkpt>
      <trkpt lat="45.16448" lon="5.94411">
        <ele>2176</ele>
        <time>2020-02-23T13:13:17.000Z</time>
      </trkpt>
      <trkpt lat="45.16456" lon="5.94389">
        <ele>2171</ele>
        <time>2020-02-23T13:13:20.000Z</time>
      </trkpt>
      <trkpt lat="45.16465" lon="5.94352">
        <ele>2158</ele>
        <time>2020-02-23T13:13:24.000Z</time>
      </trkpt>
      <trkpt lat="45.16468" lon="5.94325">
        <ele>2153</ele>
        <time>2020-02-23T13:13:27.000Z</time>
      </trkpt>
      <trkpt lat="45.16481" lon="5.94294">
        <ele>2141</ele>
        <time>2020-02-23T13:13:31.000Z</time>
      </trkpt>
      <trkpt lat="45.16494" lon="5.94276">
        <ele>2135</ele>
        <time>2020-02-23T13:13:34.000Z</time>
      </trkpt>
      <trkpt lat="45.16506" lon="5.94267">
        <ele>2129</ele>
        <time>2020-02-23T13:13:38.000Z</time>
      </trkpt>
      <trkpt lat="45.16518" lon="5.9426">
        <ele>2125</ele>
        <time>2020-02-23T13:13:41.000Z</time>
      </trkpt>
      <trkpt lat="45.16528" lon="5.94257">
        <ele>2123</ele>
        <time>2020-02-23T13:13:44.139Z</time>
      </trkpt>
      <trkpt lat="45.16531" lon="5.94251">
        <ele>2123</ele>
        <time>2020-02-23T13:13:47.741Z</time>
      </trkpt>
      <trkpt lat="45.16532" lon="5.94243">
        <ele>2121</ele>
        <time>2020-02-23T13:14:03.000Z</time>
      </trkpt>
      <trkpt lat="45.16532" lon="5.94235">
        <ele>2123</ele>
        <time>2020-02-23T13:15:14.000Z</time>
      </trkpt>
      <trkpt lat="45.16536" lon="5.94228">
        <ele>2129</ele>
        <time>2020-02-23T13:18:34.000Z</time>
      </trkpt>
      <trkpt lat="45.16543" lon="5.94221">
        <ele>2127</ele>
        <time>2020-02-23T13:18:39.137Z</time>
      </trkpt>
      <trkpt lat="45.16545" lon="5.94215">
        <ele>2125</ele>
        <time>2020-02-23T13:18:42.939Z</time>
      </trkpt>
      <trkpt lat="45.16552" lon="5.94197">
        <ele>2118</ele>
        <time>2020-02-23T13:18:47.000Z</time>
      </trkpt>
      <trkpt lat="45.16564" lon="5.94174">
        <ele>2115</ele>
        <time>2020-02-23T13:18:50.000Z</time>
      </trkpt>
      <trkpt lat="45.16566" lon="5.94165">
        <ele>2113</ele>
        <time>2020-02-23T13:18:55.421Z</time>
      </trkpt>
      <trkpt lat="45.1657" lon="5.9415">
        <ele>2109</ele>
        <time>2020-02-23T13:19:00.000Z</time>
      </trkpt>
      <trkpt lat="45.16596" lon="5.94148">
        <ele>2098</ele>
        <time>2020-02-23T13:19:04.000Z</time>
      </trkpt>
      <trkpt lat="45.16633" lon="5.94141">
        <ele>2091</ele>
        <time>2020-02-23T13:19:08.000Z</time>
      </trkpt>
      <trkpt lat="45.16672" lon="5.94117">
        <ele>2088</ele>
        <time>2020-02-23T13:19:12.000Z</time>
      </trkpt>
      <trkpt lat="45.16691" lon="5.94091">
        <ele>2088</ele>
        <time>2020-02-23T13:19:15.000Z</time>
      </trkpt>
      <trkpt lat="45.16705" lon="5.94066">
        <ele>2085</ele>
        <time>2020-02-23T13:19:18.000Z</time>
      </trkpt>
      <trkpt lat="45.16722" lon="5.94035">
        <ele>2086</ele>
        <time>2020-02-23T13:19:21.000Z</time>
      </trkpt>
      <trkpt lat="45.16746" lon="5.93975">
        <ele>2086</ele>
        <time>2020-02-23T13:19:25.000Z</time>
      </trkpt>
      <trkpt lat="45.16757" lon="5.93934">
        <ele>2087</ele>
        <time>2020-02-23T13:19:29.000Z</time>
      </trkpt>
      <trkpt lat="45.16763" lon="5.93925">
        <ele>2081</ele>
        <time>2020-02-23T13:19:32.000Z</time>
      </trkpt>
      <trkpt lat="45.16769" lon="5.93918">
        <ele>2078</ele>
        <time>2020-02-23T13:19:35.000Z</time>
      </trkpt>
      <trkpt lat="45.16774" lon="5.93914">
        <ele>2074</ele>
        <time>2020-02-23T13:19:39.000Z</time>
      </trkpt>
      <trkpt lat="45.16785" lon="5.93902">
        <ele>2066</ele>
        <time>2020-02-23T13:19:42.000Z</time>
      </trkpt>
      <trkpt lat="45.16799" lon="5.93909">
        <ele>2066</ele>
        <time>2020-02-23T13:19:44.681Z</time>
      </trkpt>
      <trkpt lat="45.16825" lon="5.93917">
        <ele>2062</ele>
        <time>2020-02-23T13:19:49.000Z</time>
      </trkpt>
      <trkpt lat="45.16843" lon="5.93913">
        <ele>2061</ele>
        <time>2020-02-23T13:19:52.000Z</time>
      </trkpt>
      <trkpt lat="45.16857" lon="5.93905">
        <ele>2059</ele>
        <time>2020-02-23T13:19:56.000Z</time>
      </trkpt>
      <trkpt lat="45.16866" lon="5.93897">
        <ele>2057</ele>
        <time>2020-02-23T13:19:58.147Z</time>
      </trkpt>
      <trkpt lat="45.16875" lon="5.93887">
        <ele>2055</ele>
        <time>2020-02-23T13:20:01.799Z</time>
      </trkpt>
      <trkpt lat="45.16882" lon="5.93878">
        <ele>2054</ele>
        <time>2020-02-23T13:20:06.000Z</time>
      </trkpt>
      <trkpt lat="45.16887" lon="5.93873">
        <ele>2053</ele>
        <time>2020-02-23T13:20:09.000Z</time>
      </trkpt>
      <trkpt lat="45.16892" lon="5.93866">
        <ele>2052</ele>
        <time>2020-02-23T13:20:12.000Z</time>
      </trkpt>
      <trkpt lat="45.16902" lon="5.93854">
        <ele>2050</ele>
        <time>2020-02-23T13:20:14.840Z</time>
      </trkpt>
      <trkpt lat="45.16912" lon="5.93839">
        <ele>2049</ele>
        <time>2020-02-23T13:20:18.082Z</time>
      </trkpt>
      <trkpt lat="45.16917" lon="5.93828">
        <ele>2048</ele>
        <time>2020-02-23T13:20:22.000Z</time>
      </trkpt>
      <trkpt lat="45.16934" lon="5.93808">
        <ele>2046</ele>
        <time>2020-02-23T13:20:26.000Z</time>
      </trkpt>
      <trkpt lat="45.16946" lon="5.93794">
        <ele>2044</ele>
        <time>2020-02-23T13:20:29.000Z</time>
      </trkpt>
      <trkpt lat="45.16959" lon="5.93782">
        <ele>2043</ele>
        <time>2020-02-23T13:20:31.650Z</time>
      </trkpt>
      <trkpt lat="45.16976" lon="5.93771">
        <ele>2039</ele>
        <time>2020-02-23T13:20:36.000Z</time>
      </trkpt>
      <trkpt lat="45.16993" lon="5.93761">
        <ele>2037</ele>
        <time>2020-02-23T13:20:40.000Z</time>
      </trkpt>
      <trkpt lat="45.17002" lon="5.93757">
        <ele>2035</ele>
        <time>2020-02-23T13:20:42.515Z</time>
      </trkpt>
      <trkpt lat="45.17007" lon="5.93756">
        <ele>2034</ele>
        <time>2020-02-23T13:20:49.494Z</time>
      </trkpt>
      <trkpt lat="45.17015" lon="5.93748">
        <ele>2027</ele>
        <time>2020-02-23T13:21:46.000Z</time>
      </trkpt>
      <trkpt lat="45.17021" lon="5.93733">
        <ele>2024</ele>
        <time>2020-02-23T13:21:49.000Z</time>
      </trkpt>
      <trkpt lat="45.17056" lon="5.93723">
        <ele>2021</ele>
        <time>2020-02-23T13:21:53.000Z</time>
      </trkpt>
      <trkpt lat="45.17074" lon="5.9371">
        <ele>2021</ele>
        <time>2020-02-23T13:21:56.000Z</time>
      </trkpt>
      <trkpt lat="45.1708" lon="5.937">
        <ele>2020</ele>
        <time>2020-02-23T13:21:58.517Z</time>
      </trkpt>
      <trkpt lat="45.17092" lon="5.93692">
        <ele>2018</ele>
        <time>2020-02-23T13:22:03.000Z</time>
      </trkpt>
      <trkpt lat="45.17103" lon="5.93678">
        <ele>2018</ele>
        <time>2020-02-23T13:22:06.000Z</time>
      </trkpt>
      <trkpt lat="45.17105" lon="5.93671">
        <ele>2019</ele>
        <time>2020-02-23T13:22:09.000Z</time>
      </trkpt>
      <trkpt lat="45.17107" lon="5.9366">
        <ele>2019</ele>
        <time>2020-02-23T13:22:11.501Z</time>
      </trkpt>
      <trkpt lat="45.17109" lon="5.93654">
        <ele>2019</ele>
        <time>2020-02-23T13:22:14.536Z</time>
      </trkpt>
      <trkpt lat="45.17113" lon="5.93649">
        <ele>2019</ele>
        <time>2020-02-23T13:22:18.019Z</time>
      </trkpt>
      <trkpt lat="45.17118" lon="5.93643">
        <ele>2020</ele>
        <time>2020-02-23T13:22:24.552Z</time>
      </trkpt>
      <trkpt lat="45.17123" lon="5.93639">
        <ele>2018</ele>
        <time>2020-02-23T13:22:31.080Z</time>
      </trkpt>
      <trkpt lat="45.17127" lon="5.93633">
        <ele>2018</ele>
        <time>2020-02-23T13:22:35.000Z</time>
      </trkpt>
      <trkpt lat="45.17131" lon="5.93628">
        <ele>2017</ele>
        <time>2020-02-23T13:22:39.000Z</time>
      </trkpt>
      <trkpt lat="45.17135" lon="5.93624">
        <ele>2018</ele>
        <time>2020-02-23T13:22:42.000Z</time>
      </trkpt>
      <trkpt lat="45.17141" lon="5.93622">
        <ele>2016</ele>
        <time>2020-02-23T13:22:49.000Z</time>
      </trkpt>
      <trkpt lat="45.17145" lon="5.93626">
        <ele>2017</ele>
        <time>2020-02-23T13:23:01.718Z</time>
      </trkpt>
      <trkpt lat="45.17155" lon="5.93635">
        <ele>2016</ele>
        <time>2020-02-23T13:23:10.000Z</time>
      </trkpt>
      <trkpt lat="45.17175" lon="5.93644">
        <ele>2015</ele>
        <time>2020-02-23T13:23:13.000Z</time>
      </trkpt>
      <trkpt lat="45.17194" lon="5.93646">
        <ele>2012</ele>
        <time>2020-02-23T13:23:16.000Z</time>
      </trkpt>
      <trkpt lat="45.17214" lon="5.93645">
        <ele>2011</ele>
        <time>2020-02-23T13:23:20.000Z</time>
      </trkpt>
      <trkpt lat="45.17224" lon="5.93644">
        <ele>2011</ele>
        <time>2020-02-23T13:23:23.000Z</time>
      </trkpt>
      <trkpt lat="45.17233" lon="5.93641">
        <ele>2009</ele>
        <time>2020-02-23T13:23:27.000Z</time>
      </trkpt>
      <trkpt lat="45.17241" lon="5.93639">
        <ele>2008</ele>
        <time>2020-02-23T13:23:29.513Z</time>
      </trkpt>
      <trkpt lat="45.17253" lon="5.93636">
        <ele>2005</ele>
        <time>2020-02-23T13:23:33.194Z</time>
      </trkpt>
      <trkpt lat="45.17262" lon="5.93636">
        <ele>2005</ele>
        <time>2020-02-23T13:23:38.000Z</time>
      </trkpt>
      <trkpt lat="45.1727" lon="5.93634">
        <ele>2005</ele>
        <time>2020-02-23T13:23:40.516Z</time>
      </trkpt>
      <trkpt lat="45.17281" lon="5.93629">
        <ele>2003</ele>
        <time>2020-02-23T13:23:47.309Z</time>
      </trkpt>
      <trkpt lat="45.17286" lon="5.9363">
        <ele>2002</ele>
        <time>2020-02-23T13:23:55.000Z</time>
      </trkpt>
      <trkpt lat="45.17292" lon="5.93632">
        <ele>2002</ele>
        <time>2020-02-23T13:24:40.000Z</time>
      </trkpt>
      <trkpt lat="45.17287" lon="5.9363">
        <ele>2002</ele>
        <time>2020-02-23T13:24:52.000Z</time>
      </trkpt>
      <trkpt lat="45.17296" lon="5.93622">
        <ele>2001</ele>
        <time>2020-02-23T13:27:40.000Z</time>
      </trkpt>
      <trkpt lat="45.17311" lon="5.93618">
        <ele>1999</ele>
        <time>2020-02-23T13:27:43.000Z</time>
      </trkpt>
      <trkpt lat="45.17322" lon="5.93621">
        <ele>1997</ele>
        <time>2020-02-23T13:27:46.000Z</time>
      </trkpt>
      <trkpt lat="45.17329" lon="5.93626">
        <ele>1996</ele>
        <time>2020-02-23T13:27:49.000Z</time>
      </trkpt>
      <trkpt lat="45.17339" lon="5.93625">
        <ele>1994</ele>
        <time>2020-02-23T13:27:56.000Z</time>
      </trkpt>
      <trkpt lat="45.17354" lon="5.93623">
        <ele>1993</ele>
        <time>2020-02-23T13:27:58.672Z</time>
      </trkpt>
      <trkpt lat="45.17372" lon="5.93612">
        <ele>1992</ele>
        <time>2020-02-23T13:28:03.000Z</time>
      </trkpt>
      <trkpt lat="45.17386" lon="5.93601">
        <ele>1991</ele>
        <time>2020-02-23T13:28:06.000Z</time>
      </trkpt>
      <trkpt lat="45.17385" lon="5.93579">
        <ele>1989</ele>
        <time>2020-02-23T13:28:09.000Z</time>
      </trkpt>
      <trkpt lat="45.17379" lon="5.93562">
        <ele>1981</ele>
        <time>2020-02-23T13:28:11.541Z</time>
      </trkpt>
      <trkpt lat="45.17377" lon="5.93529">
        <ele>1976</ele>
        <time>2020-02-23T13:28:16.000Z</time>
      </trkpt>
      <trkpt lat="45.1738" lon="5.93495">
        <ele>1974</ele>
        <time>2020-02-23T13:28:20.000Z</time>
      </trkpt>
      <trkpt lat="45.17385" lon="5.93479">
        <ele>1973</ele>
        <time>2020-02-23T13:28:23.000Z</time>
      </trkpt>
      <trkpt lat="45.17386" lon="5.93465">
        <ele>1972</ele>
        <time>2020-02-23T13:28:27.000Z</time>
      </trkpt>
      <trkpt lat="45.17393" lon="5.93447">
        <ele>1970</ele>
        <time>2020-02-23T13:28:30.000Z</time>
      </trkpt>
      <trkpt lat="45.17405" lon="5.93411">
        <ele>1963</ele>
        <time>2020-02-23T13:28:35.000Z</time>
      </trkpt>
      <trkpt lat="45.17404" lon="5.93393">
        <ele>1959</ele>
        <time>2020-02-23T13:28:39.000Z</time>
      </trkpt>
      <trkpt lat="45.17407" lon="5.93366">
        <ele>1958</ele>
        <time>2020-02-23T13:28:42.000Z</time>
      </trkpt>
      <trkpt lat="45.17412" lon="5.93354">
        <ele>1955</ele>
        <time>2020-02-23T13:28:45.000Z</time>
      </trkpt>
      <trkpt lat="45.17417" lon="5.93352">
        <ele>1955</ele>
        <time>2020-02-23T13:28:48.000Z</time>
      </trkpt>
      <trkpt lat="45.17422" lon="5.93341">
        <ele>1949</ele>
        <time>2020-02-23T13:29:29.000Z</time>
      </trkpt>
      <trkpt lat="45.17422" lon="5.93325">
        <ele>1949</ele>
        <time>2020-02-23T13:29:31.406Z</time>
      </trkpt>
      <trkpt lat="45.17417" lon="5.93314">
        <ele>1950</ele>
        <time>2020-02-23T13:29:36.000Z</time>
      </trkpt>
      <trkpt lat="45.1742" lon="5.93303">
        <ele>1949</ele>
        <time>2020-02-23T13:29:39.000Z</time>
      </trkpt>
      <trkpt lat="45.17441" lon="5.93292">
        <ele>1947</ele>
        <time>2020-02-23T13:29:43.000Z</time>
      </trkpt>
      <trkpt lat="45.17448" lon="5.9327">
        <ele>1945</ele>
        <time>2020-02-23T13:29:46.000Z</time>
      </trkpt>
      <trkpt lat="45.17447" lon="5.93239">
        <ele>1942</ele>
        <time>2020-02-23T13:29:50.000Z</time>
      </trkpt>
      <trkpt lat="45.17448" lon="5.93229">
        <ele>1943</ele>
        <time>2020-02-23T13:29:52.620Z</time>
      </trkpt>
      <trkpt lat="45.17435" lon="5.93198">
        <ele>1940</ele>
        <time>2020-02-23T13:29:57.000Z</time>
      </trkpt>
      <trkpt lat="45.17434" lon="5.93183">
        <ele>1938</ele>
        <time>2020-02-23T13:30:01.000Z</time>
      </trkpt>
      <trkpt lat="45.17432" lon="5.93177">
        <ele>1937</ele>
        <time>2020-02-23T13:30:35.912Z</time>
      </trkpt>
      <trkpt lat="45.17436" lon="5.93168">
        <ele>1929</ele>
        <time>2020-02-23T13:31:02.754Z</time>
      </trkpt>
      <trkpt lat="45.17441" lon="5.93165">
        <ele>1928</ele>
        <time>2020-02-23T13:31:12.971Z</time>
      </trkpt>
      <trkpt lat="45.17437" lon="5.93152">
        <ele>1922</ele>
        <time>2020-02-23T13:31:31.000Z</time>
      </trkpt>
      <trkpt lat="45.17435" lon="5.93146">
        <ele>1916</ele>
        <time>2020-02-23T13:31:36.463Z</time>
      </trkpt>
      <trkpt lat="45.17446" lon="5.93143">
        <ele>1910</ele>
        <time>2020-02-23T13:31:41.000Z</time>
      </trkpt>
      <trkpt lat="45.17457" lon="5.93135">
        <ele>1905</ele>
        <time>2020-02-23T13:31:45.000Z</time>
      </trkpt>
      <trkpt lat="45.17448" lon="5.93116">
        <ele>1903</ele>
        <time>2020-02-23T13:31:48.000Z</time>
      </trkpt>
      <trkpt lat="45.17444" lon="5.93113">
        <ele>1901</ele>
        <time>2020-02-23T13:33:10.000Z</time>
      </trkpt>
      <trkpt lat="45.17442" lon="5.93102">
        <ele>1902</ele>
        <time>2020-02-23T13:34:40.587Z</time>
      </trkpt>
      <trkpt lat="45.17436" lon="5.93081">
        <ele>1897</ele>
        <time>2020-02-23T13:34:45.000Z</time>
      </trkpt>
      <trkpt lat="45.17431" lon="5.93057">
        <ele>1894</ele>
        <time>2020-02-23T13:34:48.000Z</time>
      </trkpt>
      <trkpt lat="45.17419" lon="5.9303">
        <ele>1890</ele>
        <time>2020-02-23T13:34:52.000Z</time>
      </trkpt>
      <trkpt lat="45.17417" lon="5.93019">
        <ele>1888</ele>
        <time>2020-02-23T13:34:55.121Z</time>
      </trkpt>
      <trkpt lat="45.17406" lon="5.92991">
        <ele>1886</ele>
        <time>2020-02-23T13:35:00.000Z</time>
      </trkpt>
      <trkpt lat="45.17395" lon="5.92979">
        <ele>1886</ele>
        <time>2020-02-23T13:35:03.000Z</time>
      </trkpt>
      <trkpt lat="45.17384" lon="5.92967">
        <ele>1884</ele>
        <time>2020-02-23T13:35:05.951Z</time>
      </trkpt>
      <trkpt lat="45.17378" lon="5.92944">
        <ele>1882</ele>
        <time>2020-02-23T13:35:10.000Z</time>
      </trkpt>
      <trkpt lat="45.17366" lon="5.92919">
        <ele>1881</ele>
        <time>2020-02-23T13:35:13.000Z</time>
      </trkpt>
      <trkpt lat="45.1736" lon="5.92911">
        <ele>1879</ele>
        <time>2020-02-23T13:35:16.000Z</time>
      </trkpt>
      <trkpt lat="45.17353" lon="5.929">
        <ele>1878</ele>
        <time>2020-02-23T13:35:19.000Z</time>
      </trkpt>
      <trkpt lat="45.17351" lon="5.92892">
        <ele>1876</ele>
        <time>2020-02-23T13:35:22.000Z</time>
      </trkpt>
      <trkpt lat="45.17357" lon="5.92889">
        <ele>1871</ele>
        <time>2020-02-23T13:35:37.000Z</time>
      </trkpt>
      <trkpt lat="45.17358" lon="5.92879">
        <ele>1869</ele>
        <time>2020-02-23T13:35:39.826Z</time>
      </trkpt>
      <trkpt lat="45.17358" lon="5.9286">
        <ele>1865</ele>
        <time>2020-02-23T13:35:44.000Z</time>
      </trkpt>
      <trkpt lat="45.17364" lon="5.92853">
        <ele>1862</ele>
        <time>2020-02-23T13:35:46.600Z</time>
      </trkpt>
      <trkpt lat="45.17356" lon="5.92843">
        <ele>1861</ele>
        <time>2020-02-23T13:35:51.000Z</time>
      </trkpt>
      <trkpt lat="45.17348" lon="5.92831">
        <ele>1861</ele>
        <time>2020-02-23T13:35:53.848Z</time>
      </trkpt>
      <trkpt lat="45.1734" lon="5.92807">
        <ele>1856</ele>
        <time>2020-02-23T13:35:58.000Z</time>
      </trkpt>
      <trkpt lat="45.17332" lon="5.92784">
        <ele>1852</ele>
        <time>2020-02-23T13:36:01.000Z</time>
      </trkpt>
      <trkpt lat="45.17326" lon="5.9276">
        <ele>1850</ele>
        <time>2020-02-23T13:36:04.000Z</time>
      </trkpt>
      <trkpt lat="45.17318" lon="5.92745">
        <ele>1849</ele>
        <time>2020-02-23T13:36:06.257Z</time>
      </trkpt>
      <trkpt lat="45.17316" lon="5.92729">
        <ele>1846</ele>
        <time>2020-02-23T13:36:10.080Z</time>
      </trkpt>
      <trkpt lat="45.17323" lon="5.92724">
        <ele>1843</ele>
        <time>2020-02-23T13:36:14.000Z</time>
      </trkpt>
      <trkpt lat="45.17319" lon="5.92705">
        <ele>1839</ele>
        <time>2020-02-23T13:38:01.896Z</time>
      </trkpt>
      <trkpt lat="45.17308" lon="5.92695">
        <ele>1837</ele>
        <time>2020-02-23T13:38:05.749Z</time>
      </trkpt>
      <trkpt lat="45.17289" lon="5.92679">
        <ele>1836</ele>
        <time>2020-02-23T13:38:10.000Z</time>
      </trkpt>
      <trkpt lat="45.17279" lon="5.92662">
        <ele>1836</ele>
        <time>2020-02-23T13:38:13.000Z</time>
      </trkpt>
      <trkpt lat="45.1727" lon="5.92646">
        <ele>1834</ele>
        <time>2020-02-23T13:38:15.359Z</time>
      </trkpt>
      <trkpt lat="45.17288" lon="5.92635">
        <ele>1830</ele>
        <time>2020-02-23T13:38:20.000Z</time>
      </trkpt>
      <trkpt lat="45.17291" lon="5.92615">
        <ele>1825</ele>
        <time>2020-02-23T13:38:23.000Z</time>
      </trkpt>
      <trkpt lat="45.17304" lon="5.92594">
        <ele>1819</ele>
        <time>2020-02-23T13:38:26.000Z</time>
      </trkpt>
      <trkpt lat="45.17314" lon="5.92577">
        <ele>1814</ele>
        <time>2020-02-23T13:38:29.000Z</time>
      </trkpt>
      <trkpt lat="45.17319" lon="5.92558">
        <ele>1808</ele>
        <time>2020-02-23T13:38:33.000Z</time>
      </trkpt>
      <trkpt lat="45.17326" lon="5.92538">
        <ele>1798</ele>
        <time>2020-02-23T13:38:37.000Z</time>
      </trkpt>
      <trkpt lat="45.17335" lon="5.92517">
        <ele>1794</ele>
        <time>2020-02-23T13:38:40.803Z</time>
      </trkpt>
      <trkpt lat="45.17342" lon="5.92499">
        <ele>1791</ele>
        <time>2020-02-23T13:38:44.000Z</time>
      </trkpt>
      <trkpt lat="45.17363" lon="5.92493">
        <ele>1790</ele>
        <time>2020-02-23T13:38:47.000Z</time>
      </trkpt>
      <trkpt lat="45.17375" lon="5.92464">
        <ele>1786</ele>
        <time>2020-02-23T13:38:50.000Z</time>
      </trkpt>
      <trkpt lat="45.17387" lon="5.92425">
        <ele>1778</ele>
        <time>2020-02-23T13:38:54.000Z</time>
      </trkpt>
      <trkpt lat="45.1741" lon="5.92405">
        <ele>1776</ele>
        <time>2020-02-23T13:38:58.000Z</time>
      </trkpt>
      <trkpt lat="45.17422" lon="5.92396">
        <ele>1774</ele>
        <time>2020-02-23T13:39:02.000Z</time>
      </trkpt>
      <trkpt lat="45.1743" lon="5.92388">
        <ele>1771</ele>
        <time>2020-02-23T13:39:12.000Z</time>
      </trkpt>
      <trkpt lat="45.17437" lon="5.92385">
        <ele>1769</ele>
        <time>2020-02-23T13:39:16.000Z</time>
      </trkpt>
      <trkpt lat="45.17446" lon="5.92392">
        <ele>1768</ele>
        <time>2020-02-23T13:39:19.000Z</time>
      </trkpt>
      <trkpt lat="45.17451" lon="5.92407">
        <ele>1767</ele>
        <time>2020-02-23T13:39:21.839Z</time>
      </trkpt>
      <trkpt lat="45.17468" lon="5.92414">
        <ele>1766</ele>
        <time>2020-02-23T13:39:26.000Z</time>
      </trkpt>
      <trkpt lat="45.17474" lon="5.92417">
        <ele>1765</ele>
        <time>2020-02-23T13:39:30.000Z</time>
      </trkpt>
      <trkpt lat="45.17482" lon="5.9242">
        <ele>1760</ele>
        <time>2020-02-23T13:39:54.000Z</time>
      </trkpt>
      <trkpt lat="45.1749" lon="5.92415">
        <ele>1756</ele>
        <time>2020-02-23T13:39:57.000Z</time>
      </trkpt>
      <trkpt lat="45.17498" lon="5.92401">
        <ele>1752</ele>
        <time>2020-02-23T13:39:59.922Z</time>
      </trkpt>
      <trkpt lat="45.17503" lon="5.92394">
        <ele>1750</ele>
        <time>2020-02-23T13:40:03.087Z</time>
      </trkpt>
      <trkpt lat="45.17508" lon="5.92389">
        <ele>1748</ele>
        <time>2020-02-23T13:40:07.000Z</time>
      </trkpt>
      <trkpt lat="45.17513" lon="5.92386">
        <ele>1740</ele>
        <time>2020-02-23T13:40:27.000Z</time>
      </trkpt>
      <trkpt lat="45.17517" lon="5.92382">
        <ele>1735</ele>
        <time>2020-02-23T13:40:43.958Z</time>
      </trkpt>
      <trkpt lat="45.1752" lon="5.92378">
        <ele>1732</ele>
        <time>2020-02-23T13:40:55.000Z</time>
      </trkpt>
      <trkpt lat="45.17515" lon="5.92375">
        <ele>1730</ele>
        <time>2020-02-23T13:41:15.000Z</time>
      </trkpt>
      <trkpt lat="45.1752" lon="5.92373">
        <ele>1729</ele>
        <time>2020-02-23T13:42:01.000Z</time>
      </trkpt>
      <trkpt lat="45.17525" lon="5.92375">
        <ele>1734</ele>
        <time>2020-02-23T13:43:18.000Z</time>
      </trkpt>
      <trkpt lat="45.17528" lon="5.92379">
        <ele>1735</ele>
        <time>2020-02-23T13:44:41.000Z</time>
      </trkpt>
      <trkpt lat="45.17529" lon="5.92373">
        <ele>1741</ele>
        <time>2020-02-23T13:47:48.000Z</time>
      </trkpt>
      <trkpt lat="45.17533" lon="5.92369">
        <ele>1738</ele>
        <time>2020-02-23T13:48:53.630Z</time>
      </trkpt>
      <trkpt lat="45.17538" lon="5.92365">
        <ele>1741</ele>
        <time>2020-02-23T13:49:08.000Z</time>
      </trkpt>
      <trkpt lat="45.17541" lon="5.9236">
        <ele>1741</ele>
        <time>2020-02-23T13:49:14.015Z</time>
      </trkpt>
      <trkpt lat="45.17541" lon="5.92353">
        <ele>1741</ele>
        <time>2020-02-23T13:49:21.000Z</time>
      </trkpt>
      <trkpt lat="45.17539" lon="5.92347">
        <ele>1741</ele>
        <time>2020-02-23T13:49:26.906Z</time>
      </trkpt>
      <trkpt lat="45.17537" lon="5.9234">
        <ele>1741</ele>
        <time>2020-02-23T13:49:34.000Z</time>
      </trkpt>
      <trkpt lat="45.17536" lon="5.92333">
        <ele>1740</ele>
        <time>2020-02-23T13:49:40.000Z</time>
      </trkpt>
      <trkpt lat="45.17531" lon="5.92326">
        <ele>1737</ele>
        <time>2020-02-23T13:49:45.668Z</time>
      </trkpt>
      <trkpt lat="45.17526" lon="5.9232">
        <ele>1736</ele>
        <time>2020-02-23T13:49:52.177Z</time>
      </trkpt>
      <trkpt lat="45.17522" lon="5.92314">
        <ele>1735</ele>
        <time>2020-02-23T13:49:59.000Z</time>
      </trkpt>
      <trkpt lat="45.17519" lon="5.92306">
        <ele>1736</ele>
        <time>2020-02-23T13:50:05.005Z</time>
      </trkpt>
      <trkpt lat="45.17521" lon="5.92297">
        <ele>1740</ele>
        <time>2020-02-23T13:50:16.000Z</time>
      </trkpt>
      <trkpt lat="45.17523" lon="5.92289">
        <ele>1741</ele>
        <time>2020-02-23T13:50:21.636Z</time>
      </trkpt>
      <trkpt lat="45.17527" lon="5.9228">
        <ele>1741</ele>
        <time>2020-02-23T13:50:29.000Z</time>
      </trkpt>
      <trkpt lat="45.17531" lon="5.92271">
        <ele>1742</ele>
        <time>2020-02-23T13:50:34.294Z</time>
      </trkpt>
      <trkpt lat="45.17534" lon="5.92261">
        <ele>1743</ele>
        <time>2020-02-23T13:50:43.000Z</time>
      </trkpt>
      <trkpt lat="45.17536" lon="5.92254">
        <ele>1744</ele>
        <time>2020-02-23T13:50:48.436Z</time>
      </trkpt>
      <trkpt lat="45.17537" lon="5.92245">
        <ele>1744</ele>
        <time>2020-02-23T13:50:54.863Z</time>
      </trkpt>
      <trkpt lat="45.17539" lon="5.92238">
        <ele>1745</ele>
        <time>2020-02-23T13:51:02.000Z</time>
      </trkpt>
      <trkpt lat="45.17544" lon="5.9223">
        <ele>1746</ele>
        <time>2020-02-23T13:51:07.856Z</time>
      </trkpt>
      <trkpt lat="45.1755" lon="5.92224">
        <ele>1746</ele>
        <time>2020-02-23T13:51:15.000Z</time>
      </trkpt>
      <trkpt lat="45.17555" lon="5.92216">
        <ele>1744</ele>
        <time>2020-02-23T13:51:22.000Z</time>
      </trkpt>
      <trkpt lat="45.17559" lon="5.9221">
        <ele>1743</ele>
        <time>2020-02-23T13:51:28.280Z</time>
      </trkpt>
      <trkpt lat="45.17563" lon="5.92203">
        <ele>1742</ele>
        <time>2020-02-23T13:51:34.649Z</time>
      </trkpt>
      <trkpt lat="45.17568" lon="5.92194">
        <ele>1742</ele>
        <time>2020-02-23T13:51:42.000Z</time>
      </trkpt>
      <trkpt lat="45.17572" lon="5.92187">
        <ele>1742</ele>
        <time>2020-02-23T13:51:47.979Z</time>
      </trkpt>
      <trkpt lat="45.17579" lon="5.92182">
        <ele>1742</ele>
        <time>2020-02-23T13:51:55.000Z</time>
      </trkpt>
      <trkpt lat="45.17585" lon="5.92178">
        <ele>1743</ele>
        <time>2020-02-23T13:52:01.154Z</time>
      </trkpt>
      <trkpt lat="45.1759" lon="5.92175">
        <ele>1743</ele>
        <time>2020-02-23T13:52:08.000Z</time>
      </trkpt>
      <trkpt lat="45.17593" lon="5.92168">
        <ele>1746</ele>
        <time>2020-02-23T13:52:20.000Z</time>
      </trkpt>
      <trkpt lat="45.17594" lon="5.92161">
        <ele>1745</ele>
        <time>2020-02-23T13:52:29.596Z</time>
      </trkpt>
      <trkpt lat="45.17596" lon="5.92153">
        <ele>1742</ele>
        <time>2020-02-23T13:52:39.459Z</time>
      </trkpt>
      <trkpt lat="45.17597" lon="5.92145">
        <ele>1738</ele>
        <time>2020-02-23T13:52:46.179Z</time>
      </trkpt>
      <trkpt lat="45.17598" lon="5.92138">
        <ele>1735</ele>
        <time>2020-02-23T13:52:52.877Z</time>
      </trkpt>
      <trkpt lat="45.17603" lon="5.92132">
        <ele>1733</ele>
        <time>2020-02-23T13:52:59.642Z</time>
      </trkpt>
      <trkpt lat="45.17608" lon="5.92126">
        <ele>1731</ele>
        <time>2020-02-23T13:53:07.172Z</time>
      </trkpt>
      <trkpt lat="45.1761" lon="5.92119">
        <ele>1731</ele>
        <time>2020-02-23T13:53:14.000Z</time>
      </trkpt>
      <trkpt lat="45.17611" lon="5.92111">
        <ele>1732</ele>
        <time>2020-02-23T13:53:24.000Z</time>
      </trkpt>
      <trkpt lat="45.17613" lon="5.92105">
        <ele>1732</ele>
        <time>2020-02-23T13:53:31.000Z</time>
      </trkpt>
      <trkpt lat="45.17618" lon="5.92097">
        <ele>1730</ele>
        <time>2020-02-23T13:53:40.650Z</time>
      </trkpt>
      <trkpt lat="45.17623" lon="5.92093">
        <ele>1729</ele>
        <time>2020-02-23T13:53:47.393Z</time>
      </trkpt>
      <trkpt lat="45.17628" lon="5.92088">
        <ele>1729</ele>
        <time>2020-02-23T13:53:54.009Z</time>
      </trkpt>
      <trkpt lat="45.17633" lon="5.92085">
        <ele>1729</ele>
        <time>2020-02-23T13:54:00.727Z</time>
      </trkpt>
      <trkpt lat="45.17639" lon="5.92081">
        <ele>1730</ele>
        <time>2020-02-23T13:54:26.000Z</time>
      </trkpt>
      <trkpt lat="45.17641" lon="5.92073">
        <ele>1729</ele>
        <time>2020-02-23T13:54:46.000Z</time>
      </trkpt>
      <trkpt lat="45.17642" lon="5.92066">
        <ele>1721</ele>
        <time>2020-02-23T13:56:56.254Z</time>
      </trkpt>
      <trkpt lat="45.17646" lon="5.92064">
        <ele>1721</ele>
        <time>2020-02-23T13:57:03.008Z</time>
      </trkpt>
      <trkpt lat="45.17653" lon="5.92061">
        <ele>1721</ele>
        <time>2020-02-23T13:57:10.000Z</time>
      </trkpt>
      <trkpt lat="45.17658" lon="5.92059">
        <ele>1722</ele>
        <time>2020-02-23T13:57:12.733Z</time>
      </trkpt>
      <trkpt lat="45.17666" lon="5.92054">
        <ele>1721</ele>
        <time>2020-02-23T13:57:19.570Z</time>
      </trkpt>
      <trkpt lat="45.17669" lon="5.92044">
        <ele>1721</ele>
        <time>2020-02-23T13:57:26.455Z</time>
      </trkpt>
      <trkpt lat="45.17669" lon="5.92033">
        <ele>1722</ele>
        <time>2020-02-23T13:57:37.000Z</time>
      </trkpt>
      <trkpt lat="45.17671" lon="5.92025">
        <ele>1723</ele>
        <time>2020-02-23T13:57:44.000Z</time>
      </trkpt>
      <trkpt lat="45.17674" lon="5.92016">
        <ele>1722</ele>
        <time>2020-02-23T13:57:50.698Z</time>
      </trkpt>
      <trkpt lat="45.17676" lon="5.92006">
        <ele>1721</ele>
        <time>2020-02-23T13:58:00.645Z</time>
      </trkpt>
      <trkpt lat="45.17679" lon="5.91998">
        <ele>1722</ele>
        <time>2020-02-23T13:58:08.000Z</time>
      </trkpt>
      <trkpt lat="45.17684" lon="5.91992">
        <ele>1722</ele>
        <time>2020-02-23T13:58:13.300Z</time>
      </trkpt>
      <trkpt lat="45.17688" lon="5.91989">
        <ele>1722</ele>
        <time>2020-02-23T13:58:19.000Z</time>
      </trkpt>
      <trkpt lat="45.17694" lon="5.91984">
        <ele>1722</ele>
        <time>2020-02-23T13:58:24.917Z</time>
      </trkpt>
      <trkpt lat="45.177" lon="5.91978">
        <ele>1720</ele>
        <time>2020-02-23T13:58:33.000Z</time>
      </trkpt>
      <trkpt lat="45.17704" lon="5.91971">
        <ele>1719</ele>
        <time>2020-02-23T13:58:38.254Z</time>
      </trkpt>
      <trkpt lat="45.17705" lon="5.91963">
        <ele>1718</ele>
        <time>2020-02-23T13:58:45.260Z</time>
      </trkpt>
      <trkpt lat="45.17706" lon="5.91956">
        <ele>1718</ele>
        <time>2020-02-23T13:58:54.818Z</time>
      </trkpt>
      <trkpt lat="45.17706" lon="5.9195">
        <ele>1718</ele>
        <time>2020-02-23T13:59:02.000Z</time>
      </trkpt>
      <trkpt lat="45.17706" lon="5.91941">
        <ele>1717</ele>
        <time>2020-02-23T13:59:09.000Z</time>
      </trkpt>
      <trkpt lat="45.17707" lon="5.91933">
        <ele>1716</ele>
        <time>2020-02-23T13:59:14.892Z</time>
      </trkpt>
      <trkpt lat="45.17708" lon="5.91926">
        <ele>1716</ele>
        <time>2020-02-23T13:59:22.000Z</time>
      </trkpt>
      <trkpt lat="45.1771" lon="5.91918">
        <ele>1712</ele>
        <time>2020-02-23T13:59:32.000Z</time>
      </trkpt>
      <trkpt lat="45.17708" lon="5.91911">
        <ele>1711</ele>
        <time>2020-02-23T13:59:41.663Z</time>
      </trkpt>
      <trkpt lat="45.1771" lon="5.91904">
        <ele>1709</ele>
        <time>2020-02-23T13:59:51.997Z</time>
      </trkpt>
      <trkpt lat="45.17715" lon="5.91903">
        <ele>1707</ele>
        <time>2020-02-23T13:59:59.000Z</time>
      </trkpt>
      <trkpt lat="45.17715" lon="5.91896">
        <ele>1709</ele>
        <time>2020-02-23T14:00:06.000Z</time>
      </trkpt>
      <trkpt lat="45.1772" lon="5.91894">
        <ele>1708</ele>
        <time>2020-02-23T14:00:15.895Z</time>
      </trkpt>
      <trkpt lat="45.17726" lon="5.91889">
        <ele>1710</ele>
        <time>2020-02-23T14:00:22.352Z</time>
      </trkpt>
      <trkpt lat="45.17733" lon="5.91888">
        <ele>1711</ele>
        <time>2020-02-23T14:00:29.225Z</time>
      </trkpt>
      <trkpt lat="45.1774" lon="5.91886">
        <ele>1711</ele>
        <time>2020-02-23T14:00:37.000Z</time>
      </trkpt>
      <trkpt lat="45.17742" lon="5.91878">
        <ele>1710</ele>
        <time>2020-02-23T14:00:44.000Z</time>
      </trkpt>
      <trkpt lat="45.1774" lon="5.91871">
        <ele>1705</ele>
        <time>2020-02-23T14:00:51.000Z</time>
      </trkpt>
      <trkpt lat="45.17736" lon="5.91868">
        <ele>1704</ele>
        <time>2020-02-23T14:00:55.000Z</time>
      </trkpt>
      <trkpt lat="45.17729" lon="5.91866">
        <ele>1701</ele>
        <time>2020-02-23T14:01:01.000Z</time>
      </trkpt>
      <trkpt lat="45.17723" lon="5.91863">
        <ele>1699</ele>
        <time>2020-02-23T14:01:07.159Z</time>
      </trkpt>
      <trkpt lat="45.1772" lon="5.91858">
        <ele>1693</ele>
        <time>2020-02-23T14:01:20.815Z</time>
      </trkpt>
      <trkpt lat="45.17725" lon="5.91853">
        <ele>1694</ele>
        <time>2020-02-23T14:01:31.000Z</time>
      </trkpt>
      <trkpt lat="45.17729" lon="5.91851">
        <ele>1695</ele>
        <time>2020-02-23T14:01:33.421Z</time>
      </trkpt>
      <trkpt lat="45.17737" lon="5.91848">
        <ele>1695</ele>
        <time>2020-02-23T14:01:41.000Z</time>
      </trkpt>
      <trkpt lat="45.17743" lon="5.91847">
        <ele>1694</ele>
        <time>2020-02-23T14:01:47.618Z</time>
      </trkpt>
      <trkpt lat="45.17748" lon="5.91845">
        <ele>1694</ele>
        <time>2020-02-23T14:01:55.000Z</time>
      </trkpt>
      <trkpt lat="45.17755" lon="5.91843">
        <ele>1694</ele>
        <time>2020-02-23T14:02:01.074Z</time>
      </trkpt>
      <trkpt lat="45.1776" lon="5.91843">
        <ele>1695</ele>
        <time>2020-02-23T14:02:08.000Z</time>
      </trkpt>
      <trkpt lat="45.17765" lon="5.91838">
        <ele>1692</ele>
        <time>2020-02-23T14:02:18.067Z</time>
      </trkpt>
      <trkpt lat="45.17759" lon="5.91837">
        <ele>1687</ele>
        <time>2020-02-23T14:02:31.220Z</time>
      </trkpt>
      <trkpt lat="45.17754" lon="5.91835">
        <ele>1684</ele>
        <time>2020-02-23T14:02:38.354Z</time>
      </trkpt>
      <trkpt lat="45.17757" lon="5.91828">
        <ele>1686</ele>
        <time>2020-02-23T14:02:49.000Z</time>
      </trkpt>
      <trkpt lat="45.17763" lon="5.91826">
        <ele>1684</ele>
        <time>2020-02-23T14:02:54.733Z</time>
      </trkpt>
      <trkpt lat="45.17769" lon="5.91824">
        <ele>1682</ele>
        <time>2020-02-23T14:03:01.676Z</time>
      </trkpt>
      <trkpt lat="45.17776" lon="5.91827">
        <ele>1680</ele>
        <time>2020-02-23T14:03:08.801Z</time>
      </trkpt>
      <trkpt lat="45.17781" lon="5.91832">
        <ele>1681</ele>
        <time>2020-02-23T14:03:15.743Z</time>
      </trkpt>
      <trkpt lat="45.17786" lon="5.91828">
        <ele>1677</ele>
        <time>2020-02-23T14:03:23.000Z</time>
      </trkpt>
      <trkpt lat="45.17782" lon="5.91822">
        <ele>1676</ele>
        <time>2020-02-23T14:03:28.482Z</time>
      </trkpt>
      <trkpt lat="45.17778" lon="5.91816">
        <ele>1674</ele>
        <time>2020-02-23T14:03:38.773Z</time>
      </trkpt>
      <trkpt lat="45.17775" lon="5.91813">
        <ele>1671</ele>
        <time>2020-02-23T14:03:49.000Z</time>
      </trkpt>
      <trkpt lat="45.1777" lon="5.91809">
        <ele>1671</ele>
        <time>2020-02-23T14:04:02.000Z</time>
      </trkpt>
      <trkpt lat="45.17766" lon="5.91803">
        <ele>1669</ele>
        <time>2020-02-23T14:04:08.304Z</time>
      </trkpt>
      <trkpt lat="45.17772" lon="5.91797">
        <ele>1667</ele>
        <time>2020-02-23T14:04:15.066Z</time>
      </trkpt>
      <trkpt lat="45.17777" lon="5.91795">
        <ele>1665</ele>
        <time>2020-02-23T14:04:23.000Z</time>
      </trkpt>
      <trkpt lat="45.17784" lon="5.91794">
        <ele>1667</ele>
        <time>2020-02-23T14:04:31.338Z</time>
      </trkpt>
      <trkpt lat="45.17791" lon="5.91794">
        <ele>1667</ele>
        <time>2020-02-23T14:04:41.726Z</time>
      </trkpt>
      <trkpt lat="45.17795" lon="5.91789">
        <ele>1664</ele>
        <time>2020-02-23T14:04:52.000Z</time>
      </trkpt>
      <trkpt lat="45.17791" lon="5.91783">
        <ele>1663</ele>
        <time>2020-02-23T14:05:01.618Z</time>
      </trkpt>
      <trkpt lat="45.17791" lon="5.91776">
        <ele>1662</ele>
        <time>2020-02-23T14:05:11.930Z</time>
      </trkpt>
      <trkpt lat="45.17793" lon="5.91769">
        <ele>1659</ele>
        <time>2020-02-23T14:05:24.818Z</time>
      </trkpt>
      <trkpt lat="45.17786" lon="5.91769">
        <ele>1658</ele>
        <time>2020-02-23T14:05:38.082Z</time>
      </trkpt>
      <trkpt lat="45.17781" lon="5.91767">
        <ele>1656</ele>
        <time>2020-02-23T14:05:46.000Z</time>
      </trkpt>
      <trkpt lat="45.17776" lon="5.91767">
        <ele>1654</ele>
        <time>2020-02-23T14:05:53.000Z</time>
      </trkpt>
      <trkpt lat="45.17772" lon="5.91765">
        <ele>1654</ele>
        <time>2020-02-23T14:05:58.932Z</time>
      </trkpt>
      <trkpt lat="45.17767" lon="5.91762">
        <ele>1651</ele>
        <time>2020-02-23T14:06:06.000Z</time>
      </trkpt>
      <trkpt lat="45.17762" lon="5.91759">
        <ele>1650</ele>
        <time>2020-02-23T14:06:12.418Z</time>
      </trkpt>
      <trkpt lat="45.17757" lon="5.91757">
        <ele>1649</ele>
        <time>2020-02-23T14:06:19.342Z</time>
      </trkpt>
      <trkpt lat="45.17752" lon="5.91755">
        <ele>1647</ele>
        <time>2020-02-23T14:06:27.000Z</time>
      </trkpt>
      <trkpt lat="45.17748" lon="5.91753">
        <ele>1646</ele>
        <time>2020-02-23T14:06:33.460Z</time>
      </trkpt>
      <trkpt lat="45.1775" lon="5.91744">
        <ele>1646</ele>
        <time>2020-02-23T14:06:40.322Z</time>
      </trkpt>
      <trkpt lat="45.17755" lon="5.91737">
        <ele>1644</ele>
        <time>2020-02-23T14:06:47.000Z</time>
      </trkpt>
      <trkpt lat="45.17761" lon="5.91733">
        <ele>1642</ele>
        <time>2020-02-23T14:06:53.941Z</time>
      </trkpt>
      <trkpt lat="45.17766" lon="5.91731">
        <ele>1642</ele>
        <time>2020-02-23T14:07:00.137Z</time>
      </trkpt>
      <trkpt lat="45.1777" lon="5.91729">
        <ele>1643</ele>
        <time>2020-02-23T14:07:07.560Z</time>
      </trkpt>
      <trkpt lat="45.17776" lon="5.91725">
        <ele>1643</ele>
        <time>2020-02-23T14:07:15.000Z</time>
      </trkpt>
      <trkpt lat="45.17782" lon="5.91721">
        <ele>1641</ele>
        <time>2020-02-23T14:07:21.175Z</time>
      </trkpt>
      <trkpt lat="45.17788" lon="5.91718">
        <ele>1642</ele>
        <time>2020-02-23T14:07:29.080Z</time>
      </trkpt>
      <trkpt lat="45.17793" lon="5.91716">
        <ele>1641</ele>
        <time>2020-02-23T14:07:36.000Z</time>
      </trkpt>
      <trkpt lat="45.17798" lon="5.91713">
        <ele>1640</ele>
        <time>2020-02-23T14:07:42.159Z</time>
      </trkpt>
      <trkpt lat="45.17803" lon="5.9171">
        <ele>1638</ele>
        <time>2020-02-23T14:07:48.814Z</time>
      </trkpt>
      <trkpt lat="45.1781" lon="5.9171">
        <ele>1637</ele>
        <time>2020-02-23T14:07:55.921Z</time>
      </trkpt>
      <trkpt lat="45.17816" lon="5.91708">
        <ele>1635</ele>
        <time>2020-02-23T14:08:03.000Z</time>
      </trkpt>
      <trkpt lat="45.17821" lon="5.91706">
        <ele>1635</ele>
        <time>2020-02-23T14:08:09.000Z</time>
      </trkpt>
      <trkpt lat="45.17828" lon="5.91703">
        <ele>1636</ele>
        <time>2020-02-23T14:08:16.456Z</time>
      </trkpt>
      <trkpt lat="45.17833" lon="5.91699">
        <ele>1633</ele>
        <time>2020-02-23T14:08:24.000Z</time>
      </trkpt>
      <trkpt lat="45.1784" lon="5.91697">
        <ele>1632</ele>
        <time>2020-02-23T14:08:34.000Z</time>
      </trkpt>
      <trkpt lat="45.17845" lon="5.91693">
        <ele>1631</ele>
        <time>2020-02-23T14:08:41.000Z</time>
      </trkpt>
      <trkpt lat="45.17839" lon="5.91689">
        <ele>1625</ele>
        <time>2020-02-23T14:08:51.000Z</time>
      </trkpt>
      <trkpt lat="45.17834" lon="5.91689">
        <ele>1625</ele>
        <time>2020-02-23T14:08:55.000Z</time>
      </trkpt>
      <trkpt lat="45.17829" lon="5.91687">
        <ele>1624</ele>
        <time>2020-02-23T14:09:00.324Z</time>
      </trkpt>
      <trkpt lat="45.17825" lon="5.91682">
        <ele>1621</ele>
        <time>2020-02-23T14:09:07.051Z</time>
      </trkpt>
      <trkpt lat="45.1782" lon="5.91679">
        <ele>1619</ele>
        <time>2020-02-23T14:09:14.000Z</time>
      </trkpt>
      <trkpt lat="45.17816" lon="5.91675">
        <ele>1618</ele>
        <time>2020-02-23T14:09:20.000Z</time>
      </trkpt>
      <trkpt lat="45.17811" lon="5.91673">
        <ele>1617</ele>
        <time>2020-02-23T14:09:26.091Z</time>
      </trkpt>
      <trkpt lat="45.17807" lon="5.91671">
        <ele>1616</ele>
        <time>2020-02-23T14:09:32.349Z</time>
      </trkpt>
      <trkpt lat="45.17801" lon="5.91669">
        <ele>1616</ele>
        <time>2020-02-23T14:09:40.000Z</time>
      </trkpt>
      <trkpt lat="45.17795" lon="5.91667">
        <ele>1613</ele>
        <time>2020-02-23T14:09:45.816Z</time>
      </trkpt>
      <trkpt lat="45.17802" lon="5.91661">
        <ele>1614</ele>
        <time>2020-02-23T14:09:53.000Z</time>
      </trkpt>
      <trkpt lat="45.17809" lon="5.91659">
        <ele>1614</ele>
        <time>2020-02-23T14:09:58.530Z</time>
      </trkpt>
      <trkpt lat="45.17814" lon="5.91658">
        <ele>1615</ele>
        <time>2020-02-23T14:10:06.000Z</time>
      </trkpt>
      <trkpt lat="45.17819" lon="5.91654">
        <ele>1614</ele>
        <time>2020-02-23T14:12:49.000Z</time>
      </trkpt>
      <trkpt lat="45.17823" lon="5.91651">
        <ele>1610</ele>
        <time>2020-02-23T14:12:55.741Z</time>
      </trkpt>
      <trkpt lat="45.17831" lon="5.91648">
        <ele>1608</ele>
        <time>2020-02-23T14:13:03.000Z</time>
      </trkpt>
      <trkpt lat="45.17837" lon="5.91646">
        <ele>1606</ele>
        <time>2020-02-23T14:13:08.867Z</time>
      </trkpt>
      <trkpt lat="45.17843" lon="5.91642">
        <ele>1603</ele>
        <time>2020-02-23T14:13:16.000Z</time>
      </trkpt>
      <trkpt lat="45.17849" lon="5.91638">
        <ele>1602</ele>
        <time>2020-02-23T14:13:21.982Z</time>
      </trkpt>
      <trkpt lat="45.17854" lon="5.91631">
        <ele>1600</ele>
        <time>2020-02-23T14:13:29.000Z</time>
      </trkpt>
      <trkpt lat="45.1786" lon="5.91622">
        <ele>1597</ele>
        <time>2020-02-23T14:13:36.000Z</time>
      </trkpt>
      <trkpt lat="45.17864" lon="5.91618">
        <ele>1596</ele>
        <time>2020-02-23T14:13:41.484Z</time>
      </trkpt>
      <trkpt lat="45.17871" lon="5.91614">
        <ele>1596</ele>
        <time>2020-02-23T14:13:48.482Z</time>
      </trkpt>
      <trkpt lat="45.17879" lon="5.91612">
        <ele>1595</ele>
        <time>2020-02-23T14:13:56.000Z</time>
      </trkpt>
      <trkpt lat="45.17885" lon="5.91611">
        <ele>1594</ele>
        <time>2020-02-23T14:14:02.235Z</time>
      </trkpt>
      <trkpt lat="45.17892" lon="5.91608">
        <ele>1592</ele>
        <time>2020-02-23T14:14:11.000Z</time>
      </trkpt>
      <trkpt lat="45.17897" lon="5.91606">
        <ele>1590</ele>
        <time>2020-02-23T14:14:16.700Z</time>
      </trkpt>
      <trkpt lat="45.17903" lon="5.91603">
        <ele>1590</ele>
        <time>2020-02-23T14:14:23.732Z</time>
      </trkpt>
      <trkpt lat="45.1791" lon="5.916">
        <ele>1588</ele>
        <time>2020-02-23T14:14:32.000Z</time>
      </trkpt>
      <trkpt lat="45.17916" lon="5.91598">
        <ele>1587</ele>
        <time>2020-02-23T14:14:37.197Z</time>
      </trkpt>
      <trkpt lat="45.17922" lon="5.91597">
        <ele>1584</ele>
        <time>2020-02-23T14:14:45.000Z</time>
      </trkpt>
      <trkpt lat="45.17929" lon="5.91597">
        <ele>1581</ele>
        <time>2020-02-23T14:14:50.326Z</time>
      </trkpt>
      <trkpt lat="45.17936" lon="5.91597">
        <ele>1581</ele>
        <time>2020-02-23T14:14:56.552Z</time>
      </trkpt>
      <trkpt lat="45.17943" lon="5.91597">
        <ele>1578</ele>
        <time>2020-02-23T14:15:03.318Z</time>
      </trkpt>
      <trkpt lat="45.17949" lon="5.91595">
        <ele>1577</ele>
        <time>2020-02-23T14:15:09.565Z</time>
      </trkpt>
      <trkpt lat="45.17955" lon="5.91594">
        <ele>1577</ele>
        <time>2020-02-23T14:15:16.100Z</time>
      </trkpt>
      <trkpt lat="45.17961" lon="5.91592">
        <ele>1574</ele>
        <time>2020-02-23T14:15:22.343Z</time>
      </trkpt>
      <trkpt lat="45.17966" lon="5.91588">
        <ele>1571</ele>
        <time>2020-02-23T14:15:29.272Z</time>
      </trkpt>
      <trkpt lat="45.17973" lon="5.91586">
        <ele>1567</ele>
        <time>2020-02-23T14:15:35.798Z</time>
      </trkpt>
      <trkpt lat="45.17981" lon="5.91585">
        <ele>1567</ele>
        <time>2020-02-23T14:15:43.255Z</time>
      </trkpt>
      <trkpt lat="45.17989" lon="5.91584">
        <ele>1566</ele>
        <time>2020-02-23T14:15:50.083Z</time>
      </trkpt>
      <trkpt lat="45.17996" lon="5.91584">
        <ele>1566</ele>
        <time>2020-02-23T14:15:56.701Z</time>
      </trkpt>
      <trkpt lat="45.18003" lon="5.91584">
        <ele>1565</ele>
        <time>2020-02-23T14:16:03.731Z</time>
      </trkpt>
      <trkpt lat="45.18012" lon="5.91584">
        <ele>1564</ele>
        <time>2020-02-23T14:16:10.835Z</time>
      </trkpt>
      <trkpt lat="45.18019" lon="5.91584">
        <ele>1564</ele>
        <time>2020-02-23T14:16:17.195Z</time>
      </trkpt>
      <trkpt lat="45.18025" lon="5.91584">
        <ele>1560</ele>
        <time>2020-02-23T14:16:23.997Z</time>
      </trkpt>
      <trkpt lat="45.1803" lon="5.91584">
        <ele>1560</ele>
        <time>2020-02-23T14:16:30.938Z</time>
      </trkpt>
      <trkpt lat="45.18037" lon="5.91584">
        <ele>1558</ele>
        <time>2020-02-23T14:16:37.481Z</time>
      </trkpt>
      <trkpt lat="45.18044" lon="5.91583">
        <ele>1556</ele>
        <time>2020-02-23T14:16:45.000Z</time>
      </trkpt>
      <trkpt lat="45.18049" lon="5.91581">
        <ele>1554</ele>
        <time>2020-02-23T14:16:47.761Z</time>
      </trkpt>
      <trkpt lat="45.18054" lon="5.91578">
        <ele>1554</ele>
        <time>2020-02-23T14:16:52.000Z</time>
      </trkpt>
      <trkpt lat="45.18061" lon="5.91574">
        <ele>1552</ele>
        <time>2020-02-23T14:16:57.989Z</time>
      </trkpt>
      <trkpt lat="45.18065" lon="5.91573">
        <ele>1551</ele>
        <time>2020-02-23T14:17:02.073Z</time>
      </trkpt>
      <trkpt lat="45.18072" lon="5.91571">
        <ele>1552</ele>
        <time>2020-02-23T14:17:06.719Z</time>
      </trkpt>
      <trkpt lat="45.18079" lon="5.91569">
        <ele>1553</ele>
        <time>2020-02-23T14:17:13.214Z</time>
      </trkpt>
      <trkpt lat="45.18085" lon="5.91566">
        <ele>1555</ele>
        <time>2020-02-23T14:17:19.850Z</time>
      </trkpt>
      <trkpt lat="45.18094" lon="5.91565">
        <ele>1556</ele>
        <time>2020-02-23T14:17:26.299Z</time>
      </trkpt>
      <trkpt lat="45.18101" lon="5.91564">
        <ele>1554</ele>
        <time>2020-02-23T14:17:33.074Z</time>
      </trkpt>
      <trkpt lat="45.18109" lon="5.9156">
        <ele>1552</ele>
        <time>2020-02-23T14:17:39.984Z</time>
      </trkpt>
      <trkpt lat="45.18116" lon="5.91553">
        <ele>1548</ele>
        <time>2020-02-23T14:17:46.308Z</time>
      </trkpt>
      <trkpt lat="45.18119" lon="5.91549">
        <ele>1547</ele>
        <time>2020-02-23T14:17:49.801Z</time>
      </trkpt>
      <trkpt lat="45.18124" lon="5.91541">
        <ele>1547</ele>
        <time>2020-02-23T14:17:55.997Z</time>
      </trkpt>
      <trkpt lat="45.18128" lon="5.91533">
        <ele>1544</ele>
        <time>2020-02-23T14:18:03.000Z</time>
      </trkpt>
      <trkpt lat="45.18127" lon="5.91522">
        <ele>1541</ele>
        <time>2020-02-23T14:18:08.671Z</time>
      </trkpt>
      <trkpt lat="45.18125" lon="5.91513">
        <ele>1540</ele>
        <time>2020-02-23T14:18:15.472Z</time>
      </trkpt>
      <trkpt lat="45.18122" lon="5.91502">
        <ele>1539</ele>
        <time>2020-02-23T14:18:23.000Z</time>
      </trkpt>
      <trkpt lat="45.18121" lon="5.91491">
        <ele>1536</ele>
        <time>2020-02-23T14:18:30.000Z</time>
      </trkpt>
      <trkpt lat="45.18124" lon="5.9148">
        <ele>1535</ele>
        <time>2020-02-23T14:18:37.000Z</time>
      </trkpt>
      <trkpt lat="45.18128" lon="5.91472">
        <ele>1534</ele>
        <time>2020-02-23T14:18:44.000Z</time>
      </trkpt>
      <trkpt lat="45.18133" lon="5.91468">
        <ele>1535</ele>
        <time>2020-02-23T14:18:48.000Z</time>
      </trkpt>
      <trkpt lat="45.1814" lon="5.91465">
        <ele>1535</ele>
        <time>2020-02-23T14:18:54.018Z</time>
      </trkpt>
      <trkpt lat="45.18148" lon="5.91463">
        <ele>1535</ele>
        <time>2020-02-23T14:19:00.797Z</time>
      </trkpt>
      <trkpt lat="45.18154" lon="5.91462">
        <ele>1534</ele>
        <time>2020-02-23T14:19:08.000Z</time>
      </trkpt>
      <trkpt lat="45.18159" lon="5.9146">
        <ele>1534</ele>
        <time>2020-02-23T14:19:13.860Z</time>
      </trkpt>
      <trkpt lat="45.18166" lon="5.91458">
        <ele>1533</ele>
        <time>2020-02-23T14:19:20.556Z</time>
      </trkpt>
      <trkpt lat="45.18172" lon="5.91457">
        <ele>1532</ele>
        <time>2020-02-23T14:19:28.000Z</time>
      </trkpt>
      <trkpt lat="45.18177" lon="5.91454">
        <ele>1531</ele>
        <time>2020-02-23T14:19:33.988Z</time>
      </trkpt>
      <trkpt lat="45.18178" lon="5.91447">
        <ele>1530</ele>
        <time>2020-02-23T14:19:41.092Z</time>
      </trkpt>
      <trkpt lat="45.18183" lon="5.91443">
        <ele>1528</ele>
        <time>2020-02-23T14:19:50.752Z</time>
      </trkpt>
      <trkpt lat="45.18188" lon="5.91438">
        <ele>1529</ele>
        <time>2020-02-23T14:19:57.628Z</time>
      </trkpt>
      <trkpt lat="45.18192" lon="5.91439">
        <ele>1531</ele>
        <time>2020-02-23T14:20:04.273Z</time>
      </trkpt>
      <trkpt lat="45.182" lon="5.91436">
        <ele>1531</ele>
        <time>2020-02-23T14:20:16.000Z</time>
      </trkpt>
      <trkpt lat="45.18205" lon="5.91432">
        <ele>1529</ele>
        <time>2020-02-23T14:20:30.000Z</time>
      </trkpt>
      <trkpt lat="45.18212" lon="5.91429">
        <ele>1529</ele>
        <time>2020-02-23T14:20:39.710Z</time>
      </trkpt>
      <trkpt lat="45.18216" lon="5.91426">
        <ele>1529</ele>
        <time>2020-02-23T14:20:47.000Z</time>
      </trkpt>
      <trkpt lat="45.18221" lon="5.91426">
        <ele>1528</ele>
        <time>2020-02-23T14:20:53.084Z</time>
      </trkpt>
      <trkpt lat="45.18226" lon="5.91425">
        <ele>1526</ele>
        <time>2020-02-23T14:20:59.697Z</time>
      </trkpt>
      <trkpt lat="45.18231" lon="5.91423">
        <ele>1525</ele>
        <time>2020-02-23T14:21:07.000Z</time>
      </trkpt>
      <trkpt lat="45.18237" lon="5.91421">
        <ele>1522</ele>
        <time>2020-02-23T14:21:14.000Z</time>
      </trkpt>
      <trkpt lat="45.18243" lon="5.9142">
        <ele>1522</ele>
        <time>2020-02-23T14:21:20.000Z</time>
      </trkpt>
      <trkpt lat="45.1825" lon="5.91419">
        <ele>1522</ele>
        <time>2020-02-23T14:21:27.162Z</time>
      </trkpt>
      <trkpt lat="45.18255" lon="5.91419">
        <ele>1523</ele>
        <time>2020-02-23T14:21:35.000Z</time>
      </trkpt>
      <trkpt lat="45.1826" lon="5.91419">
        <ele>1524</ele>
        <time>2020-02-23T14:21:41.121Z</time>
      </trkpt>
      <trkpt lat="45.18266" lon="5.91417">
        <ele>1522</ele>
        <time>2020-02-23T14:21:50.393Z</time>
      </trkpt>
      <trkpt lat="45.18272" lon="5.91413">
        <ele>1523</ele>
        <time>2020-02-23T14:21:57.249Z</time>
      </trkpt>
      <trkpt lat="45.18277" lon="5.9141">
        <ele>1523</ele>
        <time>2020-02-23T14:22:05.000Z</time>
      </trkpt>
      <trkpt lat="45.18282" lon="5.9141">
        <ele>1520</ele>
        <time>2020-02-23T14:22:10.692Z</time>
      </trkpt>
      <trkpt lat="45.18288" lon="5.91408">
        <ele>1517</ele>
        <time>2020-02-23T14:22:17.593Z</time>
      </trkpt>
      <trkpt lat="45.18294" lon="5.91408">
        <ele>1517</ele>
        <time>2020-02-23T14:22:23.736Z</time>
      </trkpt>
      <trkpt lat="45.183" lon="5.91409">
        <ele>1516</ele>
        <time>2020-02-23T14:22:30.034Z</time>
      </trkpt>
      <trkpt lat="45.18306" lon="5.91408">
        <ele>1514</ele>
        <time>2020-02-23T14:22:36.470Z</time>
      </trkpt>
      <trkpt lat="45.18312" lon="5.91408">
        <ele>1511</ele>
        <time>2020-02-23T14:22:44.000Z</time>
      </trkpt>
      <trkpt lat="45.18318" lon="5.91407">
        <ele>1509</ele>
        <time>2020-02-23T14:22:51.000Z</time>
      </trkpt>
      <trkpt lat="45.18323" lon="5.91405">
        <ele>1507</ele>
        <time>2020-02-23T14:22:54.000Z</time>
      </trkpt>
      <trkpt lat="45.1833" lon="5.91401">
        <ele>1505</ele>
        <time>2020-02-23T14:23:01.000Z</time>
      </trkpt>
      <trkpt lat="45.18337" lon="5.91398">
        <ele>1504</ele>
        <time>2020-02-23T14:23:07.176Z</time>
      </trkpt>
      <trkpt lat="45.18341" lon="5.91397">
        <ele>1502</ele>
        <time>2020-02-23T14:23:14.000Z</time>
      </trkpt>
      <trkpt lat="45.18346" lon="5.91392">
        <ele>1498</ele>
        <time>2020-02-23T14:23:20.158Z</time>
      </trkpt>
      <trkpt lat="45.18352" lon="5.9139">
        <ele>1498</ele>
        <time>2020-02-23T14:23:26.925Z</time>
      </trkpt>
      <trkpt lat="45.18361" lon="5.91388">
        <ele>1497</ele>
        <time>2020-02-23T14:23:34.916Z</time>
      </trkpt>
      <trkpt lat="45.18367" lon="5.91385">
        <ele>1499</ele>
        <time>2020-02-23T14:23:42.000Z</time>
      </trkpt>
      <trkpt lat="45.18373" lon="5.91383">
        <ele>1498</ele>
        <time>2020-02-23T14:23:48.461Z</time>
      </trkpt>
      <trkpt lat="45.18379" lon="5.91382">
        <ele>1496</ele>
        <time>2020-02-23T14:23:55.000Z</time>
      </trkpt>
      <trkpt lat="45.18385" lon="5.91379">
        <ele>1493</ele>
        <time>2020-02-23T14:24:02.000Z</time>
      </trkpt>
      <trkpt lat="45.1839" lon="5.91378">
        <ele>1493</ele>
        <time>2020-02-23T14:24:09.376Z</time>
      </trkpt>
      <trkpt lat="45.18396" lon="5.91376">
        <ele>1491</ele>
        <time>2020-02-23T14:24:16.000Z</time>
      </trkpt>
      <trkpt lat="45.18402" lon="5.91373">
        <ele>1490</ele>
        <time>2020-02-23T14:24:22.330Z</time>
      </trkpt>
      <trkpt lat="45.18408" lon="5.91372">
        <ele>1489</ele>
        <time>2020-02-23T14:24:29.035Z</time>
      </trkpt>
      <trkpt lat="45.18413" lon="5.91371">
        <ele>1488</ele>
        <time>2020-02-23T14:24:36.039Z</time>
      </trkpt>
      <trkpt lat="45.1842" lon="5.91371">
        <ele>1486</ele>
        <time>2020-02-23T14:24:45.718Z</time>
      </trkpt>
      <trkpt lat="45.18425" lon="5.9137">
        <ele>1484</ele>
        <time>2020-02-23T14:24:51.779Z</time>
      </trkpt>
      <trkpt lat="45.18431" lon="5.91371">
        <ele>1483</ele>
        <time>2020-02-23T14:24:58.879Z</time>
      </trkpt>
      <trkpt lat="45.18437" lon="5.91371">
        <ele>1480</ele>
        <time>2020-02-23T14:25:06.000Z</time>
      </trkpt>
      <trkpt lat="45.18445" lon="5.9137">
        <ele>1477</ele>
        <time>2020-02-23T14:25:16.000Z</time>
      </trkpt>
      <trkpt lat="45.18452" lon="5.91369">
        <ele>1475</ele>
        <time>2020-02-23T14:25:23.000Z</time>
      </trkpt>
      <trkpt lat="45.18458" lon="5.91368">
        <ele>1472</ele>
        <time>2020-02-23T14:25:29.215Z</time>
      </trkpt>
      <trkpt lat="45.18466" lon="5.91367">
        <ele>1471</ele>
        <time>2020-02-23T14:25:36.000Z</time>
      </trkpt>
      <trkpt lat="45.18473" lon="5.91368">
        <ele>1470</ele>
        <time>2020-02-23T14:25:42.018Z</time>
      </trkpt>
      <trkpt lat="45.18478" lon="5.91372">
        <ele>1470</ele>
        <time>2020-02-23T14:25:49.000Z</time>
      </trkpt>
      <trkpt lat="45.18484" lon="5.91375">
        <ele>1471</ele>
        <time>2020-02-23T14:25:55.358Z</time>
      </trkpt>
      <trkpt lat="45.18489" lon="5.91379">
        <ele>1469</ele>
        <time>2020-02-23T14:26:01.914Z</time>
      </trkpt>
      <trkpt lat="45.18495" lon="5.91381">
        <ele>1465</ele>
        <time>2020-02-23T14:26:08.293Z</time>
      </trkpt>
      <trkpt lat="45.18502" lon="5.91381">
        <ele>1464</ele>
        <time>2020-02-23T14:26:15.000Z</time>
      </trkpt>
      <trkpt lat="45.18509" lon="5.91381">
        <ele>1462</ele>
        <time>2020-02-23T14:26:20.998Z</time>
      </trkpt>
      <trkpt lat="45.18516" lon="5.91378">
        <ele>1460</ele>
        <time>2020-02-23T14:26:27.054Z</time>
      </trkpt>
      <trkpt lat="45.1852" lon="5.91372">
        <ele>1456</ele>
        <time>2020-02-23T14:26:34.119Z</time>
      </trkpt>
      <trkpt lat="45.18525" lon="5.91365">
        <ele>1453</ele>
        <time>2020-02-23T14:26:41.259Z</time>
      </trkpt>
      <trkpt lat="45.1853" lon="5.9136">
        <ele>1452</ele>
        <time>2020-02-23T14:26:47.972Z</time>
      </trkpt>
      <trkpt lat="45.18535" lon="5.91355">
        <ele>1451</ele>
        <time>2020-02-23T14:26:54.383Z</time>
      </trkpt>
      <trkpt lat="45.18541" lon="5.91354">
        <ele>1451</ele>
        <time>2020-02-23T14:27:00.978Z</time>
      </trkpt>
      <trkpt lat="45.18548" lon="5.91351">
        <ele>1449</ele>
        <time>2020-02-23T14:27:07.583Z</time>
      </trkpt>
      <trkpt lat="45.18554" lon="5.91348">
        <ele>1445</ele>
        <time>2020-02-23T14:27:15.000Z</time>
      </trkpt>
      <trkpt lat="45.18559" lon="5.91345">
        <ele>1444</ele>
        <time>2020-02-23T14:27:21.000Z</time>
      </trkpt>
      <trkpt lat="45.18564" lon="5.91342">
        <ele>1442</ele>
        <time>2020-02-23T14:27:26.797Z</time>
      </trkpt>
      <trkpt lat="45.18569" lon="5.91337">
        <ele>1439</ele>
        <time>2020-02-23T14:27:35.000Z</time>
      </trkpt>
      <trkpt lat="45.18573" lon="5.91331">
        <ele>1436</ele>
        <time>2020-02-23T14:27:40.400Z</time>
      </trkpt>
      <trkpt lat="45.18576" lon="5.91324">
        <ele>1434</ele>
        <time>2020-02-23T14:27:45.000Z</time>
      </trkpt>
      <trkpt lat="45.18579" lon="5.91319">
        <ele>1434</ele>
        <time>2020-02-23T14:27:47.355Z</time>
      </trkpt>
      <trkpt lat="45.18584" lon="5.91314">
        <ele>1433</ele>
        <time>2020-02-23T14:27:55.000Z</time>
      </trkpt>
      <trkpt lat="45.18591" lon="5.91309">
        <ele>1430</ele>
        <time>2020-02-23T14:28:01.000Z</time>
      </trkpt>
      <trkpt lat="45.18598" lon="5.91305">
        <ele>1429</ele>
        <time>2020-02-23T14:28:06.895Z</time>
      </trkpt>
      <trkpt lat="45.18606" lon="5.91302">
        <ele>1430</ele>
        <time>2020-02-23T14:28:13.755Z</time>
      </trkpt>
      <trkpt lat="45.18611" lon="5.913">
        <ele>1430</ele>
        <time>2020-02-23T14:28:20.120Z</time>
      </trkpt>
      <trkpt lat="45.18617" lon="5.91299">
        <ele>1430</ele>
        <time>2020-02-23T14:28:27.000Z</time>
      </trkpt>
      <trkpt lat="45.18624" lon="5.91297">
        <ele>1429</ele>
        <time>2020-02-23T14:28:34.000Z</time>
      </trkpt>
      <trkpt lat="45.18631" lon="5.91296">
        <ele>1428</ele>
        <time>2020-02-23T14:28:39.582Z</time>
      </trkpt>
      <trkpt lat="45.18636" lon="5.91295">
        <ele>1430</ele>
        <time>2020-02-23T14:28:44.000Z</time>
      </trkpt>
      <trkpt lat="45.18644" lon="5.91295">
        <ele>1428</ele>
        <time>2020-02-23T14:28:49.631Z</time>
      </trkpt>
      <trkpt lat="45.1865" lon="5.91295">
        <ele>1426</ele>
        <time>2020-02-23T14:28:55.778Z</time>
      </trkpt>
      <trkpt lat="45.18657" lon="5.91296">
        <ele>1424</ele>
        <time>2020-02-23T14:29:02.904Z</time>
      </trkpt>
      <trkpt lat="45.18662" lon="5.91296">
        <ele>1424</ele>
        <time>2020-02-23T14:29:06.856Z</time>
      </trkpt>
      <trkpt lat="45.18667" lon="5.91294">
        <ele>1419</ele>
        <time>2020-02-23T14:29:13.742Z</time>
      </trkpt>
      <trkpt lat="45.18673" lon="5.91288">
        <ele>1418</ele>
        <time>2020-02-23T14:29:21.000Z</time>
      </trkpt>
      <trkpt lat="45.18675" lon="5.9128">
        <ele>1416</ele>
        <time>2020-02-23T14:29:27.775Z</time>
      </trkpt>
      <trkpt lat="45.18671" lon="5.91274">
        <ele>1416</ele>
        <time>2020-02-23T14:29:35.000Z</time>
      </trkpt>
      <trkpt lat="45.18668" lon="5.91268">
        <ele>1416</ele>
        <time>2020-02-23T14:29:50.000Z</time>
      </trkpt>
      <trkpt lat="45.18675" lon="5.9127">
        <ele>1417</ele>
        <time>2020-02-23T14:30:47.000Z</time>
      </trkpt>
      <trkpt lat="45.1867" lon="5.91273">
        <ele>1417</ele>
        <time>2020-02-23T14:31:41.000Z</time>
      </trkpt>
    </trkseg>
  </trk>
</gpx>